[[{"header":{"parameterUnit":"m.s-1","parameterCategory":1,"la1":30.6,"la2":29.2853,"lo1":-89.7004,"lo2":-87.6739,"dy":0.0162,"dx":0.0183,"nx":112,"ny":82,"refTime":"2023-09-02T00:00:00:Z","depth":0,"parameterNumber":2,"parameterNumberName":"U-component_of_WINDS"},"data":[0.0,0.0,0.0,0.0,0.0,0.0,0.0,0.0,0.0,0.0,0.0,0.0,0.0,0.0,0.0,0.0,0.0,0.0,0.0,0.0,0.0,0.0,0.0,0.0,0.0,0.0,0.0,0.0,0.0,0.0,0.0,0.0,0.0,0.0,0.0,0.0,0.0,0.0,0.0,0.0,0.0,0.0,0.0,0.0,0.0,0.0,0.0,0.0,0.0,0.0,0.0,0.0,0.0,0.0,0.0,0.0,0.0,0.0,0.0,0.0,0.0,0.0,0.0,0.0,0.0,0.0,0.0,0.0,0.0,0.0,0.0,0.0,0.0,0.0,0.0,0.0,0.0,0.0,0.0,0.0,0.0,0.0,0.0,0.0,0.0,0.0,0.0,0.0,0.0,0.0,-2.9151,-3.1524,-3.411,-3.5408,-3.4856,-3.3759,-3.2177,-3.0055,0.0,0.0,0.0,0.0,0.0,0.0,0.0,0.0,0.0,0.0,0.0,0.0,0.0,0.0,0.0,0.0,0.0,0.0,0.0,0.0,0.0,0.0,0.0,0.0,0.0,0.0,0.0,0.0,0.0,0.0,0.0,0.0,0.0,0.0,0.0,0.0,0.0,0.0,0.0,0.0,0.0,0.0,0.0,0.0,0.0,0.0,0.0,0.0,0.0,0.0,0.0,0.0,0.0,0.0,0.0,0.0,0.0,0.0,0.0,0.0,0.0,0.0,0.0,0.0,0.0,0.0,0.0,0.0,0.0,0.0,0.0,0.0,0.0,0.0,0.0,0.0,0.0,0.0,0.0,0.0,0.0,0.0,0.0,0.0,0.0,0.0,0.0,0.0,0.0,0.0,0.0,0.0,0.0,0.0,0.0,0.0,0.0,0.0,0.0,0.0,0.0,0.0,0.0,0.0,-3.0018,-3.3181,-3.5152,-3.6006,-3.542,-3.3985,-3.234,-3.0608,0.0,0.0,0.0,0.0,0.0,0.0,0.0,0.0,0.0,0.0,0.0,0.0,0.0,0.0,0.0,0.0,0.0,0.0,0.0,0.0,0.0,0.0,0.0,0.0,0.0,0.0,0.0,0.0,0.0,0.0,0.0,0.0,0.0,0.0,0.0,0.0,0.0,0.0,0.0,0.0,0.0,0.0,0.0,0.0,0.0,0.0,0.0,0.0,0.0,0.0,0.0,0.0,0.0,0.0,0.0,0.0,0.0,0.0,0.0,0.0,0.0,0.0,0.0,0.0,0.0,0.0,0.0,0.0,0.0,0.0,0.0,0.0,0.0,0.0,0.0,0.0,0.0,0.0,0.0,0.0,0.0,0.0,0.0,0.0,0.0,0.0,0.0,0.0,0.0,0.0,0.0,0.0,0.0,0.0,0.0,0.0,0.0,0.0,0.0,0.0,0.0,0.0,0.0,-3.0104,-3.2102,-3.4525,-3.5466,-3.5692,-3.5094,-3.3571,-3.1913,-3.0269,-2.7869,0.0,0.0,0.0,0.0,0.0,0.0,0.0,0.0,0.0,0.0,0.0,0.0,0.0,0.0,0.0,0.0,0.0,0.0,0.0,0.0,0.0,0.0,0.0,0.0,0.0,0.0,0.0,0.0,0.0,0.0,0.0,0.0,0.0,0.0,0.0,0.0,0.0,0.0,0.0,0.0,0.0,0.0,0.0,0.0,0.0,0.0,0.0,0.0,0.0,0.0,0.0,0.0,0.0,0.0,0.0,0.0,0.0,0.0,0.0,0.0,0.0,0.0,0.0,0.0,0.0,0.0,0.0,0.0,0.0,0.0,0.0,0.0,0.0,0.0,0.0,0.0,0.0,0.0,0.0,0.0,0.0,0.0,0.0,0.0,0.0,0.0,0.0,0.0,0.0,0.0,0.0,0.0,0.0,0.0,0.0,0.0,0.0,0.0,0.0,0.0,0.0,0.0,-3.1976,-3.3658,-3.5144,-3.542,-3.5219,-3.4587,-3.298,-3.1273,-2.9503,-2.7454,0.0,0.0,0.0,0.0,0.0,0.0,0.0,0.0,0.0,0.0,0.0,0.0,0.0,0.0,0.0,0.0,0.0,0.0,0.0,0.0,0.0,0.0,0.0,0.0,0.0,0.0,0.0,0.0,0.0,0.0,0.0,0.0,0.0,0.0,0.0,0.0,0.0,0.0,0.0,0.0,0.0,0.0,0.0,0.0,0.0,0.0,0.0,0.0,0.0,0.0,0.0,0.0,0.0,0.0,0.0,0.0,0.0,0.0,0.0,0.0,0.0,0.0,0.0,0.0,0.0,0.0,0.0,0.0,0.0,0.0,0.0,0.0,0.0,0.0,0.0,0.0,0.0,0.0,0.0,0.0,0.0,0.0,0.0,0.0,0.0,0.0,0.0,0.0,0.0,0.0,0.0,0.0,0.0,0.0,0.0,0.0,0.0,0.0,0.0,0.0,0.0,0.0,-3.1738,-3.352,-3.4663,-3.5194,-3.5069,-3.4048,-3.2416,-3.052,-2.836,-2.6603,0.0,0.0,0.0,0.0,0.0,0.0,0.0,0.0,0.0,0.0,0.0,0.0,0.0,0.0,0.0,0.0,0.0,0.0,0.0,0.0,0.0,0.0,0.0,0.0,0.0,0.0,0.0,0.0,0.0,0.0,0.0,0.0,0.0,0.0,0.0,0.0,0.0,0.0,0.0,0.0,0.0,0.0,0.0,0.0,0.0,0.0,0.0,0.0,0.0,0.0,0.0,0.0,0.0,0.0,0.0,0.0,0.0,0.0,0.0,0.0,0.0,0.0,0.0,0.0,0.0,0.0,0.0,0.0,0.0,0.0,0.0,0.0,0.0,0.0,0.0,0.0,0.0,0.0,0.0,0.0,0.0,0.0,0.0,0.0,0.0,0.0,0.0,0.0,0.0,0.0,0.0,0.0,0.0,0.0,0.0,0.0,0.0,0.0,0.0,0.0,0.0,0.0,-3.1926,-3.3633,-3.5044,-3.5069,-3.4635,-3.377,-3.1884,-2.9845,-2.7866,0.0,0.0,0.0,0.0,0.0,0.0,0.0,0.0,0.0,0.0,0.0,0.0,0.0,0.0,0.0,0.0,0.0,0.0,0.0,0.0,0.0,0.0,0.0,0.0,0.0,0.0,0.0,0.0,0.0,0.0,0.0,0.0,0.0,0.0,0.0,0.0,0.0,0.0,0.0,0.0,0.0,0.0,0.0,0.0,0.0,0.0,0.0,0.0,0.0,0.0,0.0,0.0,0.0,0.0,0.0,0.0,0.0,0.0,0.0,0.0,0.0,0.0,0.0,0.0,0.0,0.0,0.0,0.0,0.0,0.0,0.0,0.0,0.0,0.0,0.0,0.0,0.0,0.0,0.0,0.0,0.0,0.0,0.0,0.0,0.0,0.0,0.0,0.0,0.0,0.0,0.0,0.0,0.0,0.0,0.0,0.0,0.0,0.0,0.0,0.0,0.0,0.0,-3.0116,-3.1788,-3.337,-3.4818,-3.4643,-3.4072,-3.3158,-3.1211,-2.9268,-2.7373,0.0,0.0,0.0,0.0,0.0,0.0,0.0,0.0,0.0,0.0,0.0,0.0,0.0,0.0,0.0,0.0,0.0,0.0,0.0,0.0,0.0,0.0,0.0,0.0,0.0,0.0,0.0,0.0,0.0,0.0,0.0,0.0,0.0,0.0,0.0,0.0,0.0,0.0,0.0,0.0,0.0,0.0,0.0,0.0,0.0,0.0,0.0,0.0,0.0,0.0,0.0,0.0,0.0,0.0,0.0,0.0,0.0,0.0,0.0,0.0,0.0,0.0,0.0,0.0,0.0,0.0,0.0,0.0,0.0,0.0,0.0,0.0,0.0,0.0,0.0,0.0,0.0,0.0,0.0,0.0,0.0,0.0,0.0,0.0,0.0,0.0,0.0,0.0,0.0,0.0,0.0,0.0,0.0,0.0,0.0,0.0,0.0,0.0,0.0,0.0,0.0,0.0,-2.9602,-3.121,-3.2641,-3.3784,-3.3897,-3.3358,-3.199,-3.044,-2.8672,0.0,0.0,0.0,0.0,0.0,0.0,0.0,0.0,0.0,0.0,0.0,0.0,0.0,0.0,0.0,0.0,0.0,0.0,0.0,0.0,0.0,0.0,0.0,0.0,0.0,0.0,0.0,0.0,0.0,0.0,0.0,0.0,0.0,0.0,0.0,0.0,0.0,0.0,0.0,0.0,0.0,0.0,0.0,0.0,0.0,0.0,0.0,0.0,0.0,0.0,0.0,0.0,0.0,0.0,0.0,0.0,0.0,0.0,0.0,0.0,0.0,0.0,0.0,0.0,0.0,0.0,0.0,0.0,0.0,0.0,0.0,0.0,0.0,0.0,0.0,0.0,0.0,0.0,0.0,0.0,0.0,0.0,0.0,0.0,0.0,0.0,0.0,0.0,0.0,0.0,0.0,0.0,0.0,0.0,0.0,0.0,0.0,0.0,0.0,0.0,0.0,0.0,0.0,-2.9435,-3.1129,-3.2641,-3.3784,-3.3897,-3.3314,-3.1808,-3.0226,-2.843,-2.6384,0.0,0.0,0.0,0.0,0.0,0.0,0.0,0.0,0.0,0.0,0.0,0.0,0.0,0.0,0.0,0.0,0.0,0.0,0.0,0.0,0.0,0.0,0.0,0.0,0.0,0.0,0.0,0.0,0.0,0.0,0.0,0.0,0.0,0.0,0.0,0.0,0.0,0.0,0.0,0.0,0.0,0.0,0.0,0.0,0.0,0.0,0.0,0.0,0.0,0.0,0.0,0.0,0.0,0.0,0.0,0.0,0.0,0.0,0.0,0.0,0.0,0.0,0.0,0.0,0.0,0.0,0.0,0.0,0.0,0.0,0.0,0.0,0.0,0.0,0.0,0.0,0.0,0.0,0.0,0.0,0.0,0.0,0.0,0.0,0.0,0.0,0.0,0.0,0.0,0.0,0.0,0.0,0.0,0.0,0.0,0.0,0.0,0.0,0.0,0.0,0.0,0.0,-2.9346,-3.0888,-3.2315,-3.3458,-3.3571,-3.2989,-3.1529,-3.0301,-2.8788,-2.6785,0.0,0.0,0.0,0.0,0.0,0.0,0.0,0.0,0.0,0.0,0.0,0.0,0.0,0.0,0.0,0.0,0.0,0.0,0.0,0.0,0.0,0.0,0.0,0.0,0.0,0.0,0.0,0.0,0.0,0.0,0.0,0.0,0.0,0.0,0.0,0.0,0.0,0.0,0.0,0.0,0.0,0.0,0.0,0.0,0.0,0.0,0.0,0.0,0.0,0.0,0.0,0.0,0.0,0.0,0.0,0.0,0.0,0.0,0.0,0.0,0.0,0.0,0.0,0.0,0.0,0.0,0.0,0.0,0.0,0.0,0.0,0.0,0.0,0.0,0.0,0.0,0.0,0.0,0.0,0.0,0.0,0.0,0.0,0.0,0.0,0.0,0.0,0.0,0.0,0.0,0.0,0.0,0.0,0.0,0.0,0.0,0.0,0.0,0.0,0.0,0.0,0.0,-2.9381,-3.0626,-3.1825,-3.2998,-3.3124,-3.2557,-3.1286,-3.0652,-2.9514,-2.7692,0.0,0.0,0.0,0.0,0.0,0.0,0.0,0.0,0.0,0.0,0.0,0.0,0.0,0.0,0.0,0.0,0.0,0.0,0.0,0.0,0.0,0.0,0.0,0.0,0.0,0.0,0.0,0.0,0.0,0.0,0.0,0.0,0.0,0.0,0.0,0.0,0.0,0.0,0.0,0.0,0.0,0.0,0.0,0.0,0.0,0.0,0.0,0.0,0.0,0.0,0.0,0.0,0.0,0.0,0.0,0.0,0.0,0.0,0.0,0.0,-2.4002,-2.3588,0.0,0.0,0.0,0.0,0.0,0.0,0.0,0.0,0.0,0.0,0.0,0.0,0.0,0.0,0.0,0.0,0.0,0.0,0.0,0.0,0.0,0.0,0.0,0.0,0.0,0.0,0.0,0.0,0.0,0.0,0.0,0.0,0.0,0.0,0.0,0.0,0.0,0.0,0.0,0.0,-2.9943,-3.0863,-3.1825,-3.2998,-3.3124,-3.2719,-3.1833,-3.0835,-2.9675,-2.8233,-2.7177,0.0,0.0,0.0,0.0,0.0,0.0,0.0,0.0,0.0,0.0,0.0,0.0,0.0,0.0,0.0,0.0,0.0,0.0,0.0,0.0,0.0,0.0,0.0,0.0,0.0,0.0,0.0,0.0,0.0,0.0,0.0,0.0,0.0,0.0,0.0,0.0,0.0,0.0,0.0,0.0,0.0,0.0,0.0,0.0,0.0,0.0,0.0,0.0,0.0,0.0,0.0,0.0,0.0,0.0,0.0,0.0,0.0,0.0,0.0,-2.5788,-2.4882,0.0,0.0,0.0,0.0,0.0,0.0,0.0,0.0,0.0,0.0,0.0,0.0,0.0,0.0,0.0,0.0,0.0,0.0,0.0,0.0,0.0,0.0,0.0,0.0,0.0,0.0,0.0,0.0,0.0,0.0,0.0,0.0,0.0,0.0,0.0,0.0,0.0,0.0,0.0,0.0,-3.0092,-3.0938,-3.1825,-3.2998,-3.3124,-3.28,-3.2097,-3.1535,-3.0595,-2.912,-2.8176,0.0,0.0,0.0,0.0,0.0,0.0,0.0,0.0,0.0,0.0,0.0,0.0,0.0,0.0,0.0,0.0,0.0,0.0,0.0,0.0,0.0,0.0,0.0,0.0,0.0,0.0,0.0,0.0,0.0,0.0,0.0,0.0,0.0,0.0,0.0,0.0,0.0,0.0,0.0,0.0,0.0,0.0,0.0,0.0,0.0,0.0,0.0,0.0,0.0,0.0,0.0,0.0,0.0,-2.8681,-2.9216,-2.9619,-2.9539,-2.9763,-3.0048,-2.7976,-2.6696,-2.6022,-2.6044,0.0,0.0,0.0,0.0,0.0,0.0,0.0,0.0,0.0,0.0,0.0,0.0,0.0,0.0,0.0,0.0,0.0,0.0,0.0,0.0,0.0,0.0,-3.1115,-3.0949,-3.0846,-3.0469,-2.9404,0.0,0.0,0.0,0.0,0.0,0.0,0.0,0.0,0.0,0.0,0.0,-3.0189,-3.096,-3.1784,-3.2955,-3.3124,-3.288,-3.2403,-3.2277,-3.1562,-3.003,-2.9288,-2.8151,0.0,0.0,0.0,0.0,0.0,0.0,0.0,0.0,0.0,0.0,0.0,0.0,0.0,0.0,0.0,0.0,0.0,0.0,0.0,0.0,0.0,0.0,0.0,0.0,0.0,0.0,0.0,0.0,0.0,0.0,0.0,0.0,-2.1459,-2.1065,0.0,0.0,0.0,0.0,0.0,0.0,0.0,0.0,0.0,0.0,0.0,0.0,0.0,-2.7178,-2.8398,-2.9264,-2.992,-3.0448,-3.1309,-3.183,-3.2098,-3.1711,-3.1699,-3.1973,-3.105,0.0,-2.7954,-2.721,0.0,0.0,0.0,0.0,0.0,0.0,0.0,0.0,0.0,0.0,0.0,0.0,0.0,0.0,0.0,0.0,0.0,0.0,0.0,0.0,0.0,0.0,-3.2382,-3.2825,-3.256,-3.2087,-3.1661,-2.971,-2.8087,-2.8288,-2.7443,-2.671,0.0,0.0,0.0,0.0,0.0,0.0,-3.0711,-3.1075,-3.1631,-3.2955,-3.3124,-3.3086,-3.2968,-3.2503,-3.1725,-3.0583,-2.9953,-2.8888,-2.7208,-2.707,0.0,0.0,0.0,0.0,0.0,0.0,0.0,0.0,0.0,0.0,0.0,0.0,0.0,0.0,0.0,0.0,0.0,0.0,0.0,0.0,0.0,0.0,0.0,0.0,0.0,0.0,0.0,0.0,0.0,-2.197,-2.2819,-2.2959,-2.3005,-2.2815,0.0,0.0,0.0,0.0,0.0,0.0,0.0,0.0,0.0,-2.8496,-2.9189,-3.0049,-3.1084,-3.1475,-3.2002,-3.2685,-3.3066,-3.3422,-3.3754,-3.3322,-3.3198,-3.3292,-3.2489,-3.1378,-3.0043,-2.8572,-2.7331,-2.6355,0.0,0.0,0.0,0.0,-2.7922,-2.8788,-2.9737,-3.0338,-3.062,-3.0502,0.0,0.0,0.0,0.0,0.0,0.0,0.0,-3.1841,-3.207,-3.2743,-3.3382,-3.3657,-3.349,-3.3296,-3.3148,-3.1813,-3.0299,-2.9121,-2.8273,-2.7644,-2.7323,-2.7076,0.0,0.0,0.0,-2.869,-3.0696,-3.0931,-3.1435,-3.2741,-3.2766,-3.2736,-3.2853,-3.2543,-3.1985,-3.115,-3.0307,-2.928,-2.7928,-2.7283,-2.6528,0.0,0.0,0.0,0.0,0.0,0.0,0.0,0.0,0.0,0.0,0.0,0.0,0.0,0.0,0.0,0.0,0.0,0.0,0.0,0.0,0.0,0.0,0.0,0.0,0.0,0.0,0.0,0.0,-2.3097,-2.4136,-2.4721,-2.4593,-2.4326,0.0,0.0,0.0,0.0,0.0,0.0,-2.7314,-2.8877,-3.0146,-3.0996,-3.1768,-3.2529,-3.3271,-3.3398,-3.3838,-3.457,-3.457,-3.4795,-3.5185,-3.4531,-3.4228,-3.418,-3.3213,-3.2373,-3.1533,-2.9748,-2.8548,-2.7742,-2.7222,-2.7318,-2.7868,-2.8721,-2.9716,-3.0705,-3.1529,-3.1986,-3.2274,-3.2003,-3.1677,-3.1347,-3.0779,0.0,0.0,0.0,0.0,-3.3128,-3.326,-3.397,-3.4558,-3.4426,-3.439,-3.4318,-3.4054,-3.3394,-3.2316,-3.0411,-2.9392,-2.8707,-2.8303,-2.8009,0.0,-2.8458,-2.8543,-2.912,-3.0695,-3.0891,-3.1331,-3.2494,-3.2475,-3.2475,-3.2593,-3.2475,-3.2093,-3.1362,-3.0552,-2.9509,-2.8134,-2.7311,-2.6305,-2.5056,0.0,0.0,0.0,0.0,0.0,0.0,0.0,0.0,0.0,0.0,0.0,0.0,0.0,0.0,0.0,0.0,0.0,0.0,0.0,0.0,0.0,0.0,0.0,0.0,0.0,0.0,0.0,0.0,0.0,-2.5825,-2.6287,0.0,0.0,0.0,0.0,-2.648,-2.7709,-2.8891,-2.9961,-3.1279,-3.2383,-3.3232,-3.3701,-3.415,-3.46,-3.5039,-3.5478,-3.5918,-3.5918,-3.6152,-3.6523,-3.5254,-3.4668,-3.46,-3.334,-3.2549,-3.2031,-3.0664,-2.959,-2.8834,-2.867,-2.8916,-2.9536,-3.0616,-3.1719,-3.2764,-3.3653,-3.3921,-3.3874,-3.3672,-3.277,-3.1759,-3.1723,-3.1837,0.0,0.0,-3.3696,-3.4775,-3.5328,-3.5869,-3.6158,-3.5653,-3.5533,-3.5256,-3.421,-3.3958,-3.3668,-3.2762,-3.1381,-3.0311,-3.0245,0.0,-2.8858,-2.9176,-2.9261,-2.9728,-3.1016,-3.1193,-3.151,-3.2326,-3.2388,-3.24,-3.2388,-3.2388,-3.1945,-3.0888,-3.0765,-2.9782,-2.7606,-2.7471,-2.6613,-2.484,-2.4305,0.0,0.0,0.0,0.0,0.0,0.0,0.0,0.0,0.0,0.0,0.0,0.0,0.0,0.0,0.0,0.0,0.0,0.0,0.0,0.0,0.0,0.0,0.0,0.0,0.0,0.0,0.0,0.0,-2.8155,-2.8546,0.0,-2.8805,-2.8528,-2.8653,-2.9458,-3.0364,-3.1327,-3.2226,-3.3242,-3.4072,-3.4678,-3.5098,-3.54,-3.5547,-3.5713,-3.5869,-3.6016,-3.6016,-3.5957,-3.582,-3.5049,-3.4394,-3.3838,-3.3115,-3.2393,-3.1709,-3.124,-3.0527,-2.9697,-2.9388,-2.9615,-3.0269,-3.1176,-3.2272,-3.3425,-3.4451,-3.5034,-3.5308,-3.5408,-3.4652,-3.3815,-3.415,-3.4306,-3.4378,-3.4569,-3.5182,-3.5881,-3.6074,-3.6266,-3.6266,-3.5749,-3.5617,-3.5425,-3.4655,-3.4498,-3.4438,-3.4149,-3.281,-3.1508,-3.0851,-3.0417,-3.0073,-2.9833,-2.9797,-3.0103,-3.09,-3.0996,-3.1288,-3.2064,-3.2025,-3.1981,-3.2125,-3.1721,-3.1258,-3.0883,-2.9888,-2.8821,-2.7668,-2.6953,-2.5985,-2.4623,-2.4126,-2.3562,0.0,0.0,0.0,0.0,0.0,0.0,0.0,0.0,0.0,0.0,0.0,0.0,0.0,0.0,0.0,0.0,0.0,0.0,0.0,0.0,0.0,0.0,0.0,0.0,0.0,-2.71,-2.8682,-3.0264,-3.0655,-3.0974,-3.1459,-3.1051,-3.1148,-3.206,-3.2711,-3.334,-3.4053,-3.4756,-3.5283,-3.5596,-3.5879,-3.6016,-3.6016,-3.6016,-3.6094,-3.624,-3.5947,-3.5732,-3.5586,-3.4834,-3.4101,-3.3389,-3.2832,-3.2178,-3.1504,-3.1239,-3.0772,-3.0276,-3.0117,-3.0359,-3.0856,-3.184,-3.2876,-3.3972,-3.5086,-3.5758,-3.612,-3.6144,-3.5665,-3.5196,-3.5725,-3.5881,-3.5918,-3.6098,-3.6398,-3.6675,-3.6675,-3.6807,-3.6711,-3.5821,-3.5749,-3.5689,-3.4931,-3.4775,-3.4775,-3.4775,-3.3849,-3.2791,-3.207,-3.1649,-3.1312,-3.0951,-3.0735,-3.0747,-3.1139,-3.1187,-3.1363,-3.1857,-3.1761,-3.1749,-3.1893,-3.1267,-3.0766,-3.0362,-2.9184,-2.8114,-2.7212,-2.6478,-2.56,-2.4508,-2.4025,-2.371,-2.3508,0.0,0.0,0.0,0.0,0.0,0.0,0.0,0.0,0.0,0.0,0.0,0.0,0.0,0.0,0.0,0.0,0.0,0.0,0.0,0.0,0.0,0.0,0.0,-2.7031,-2.8945,-3.0781,-3.207,-3.2598,-3.3018,-3.3437,-3.3115,-3.3232,-3.4092,-3.4521,-3.4941,-3.541,-3.5801,-3.6016,-3.6016,-3.6016,-3.6016,-3.6016,-3.6016,-3.623,-3.6641,-3.5791,-3.5596,-3.5937,-3.4658,-3.3818,-3.334,-3.2519,-3.1914,-3.1405,-3.0673,-3.0382,-3.0392,-3.0762,-3.1054,-3.1441,-3.2618,-3.3685,-3.467,-3.5684,-3.6156,-3.6276,-3.5783,-3.5603,-3.5687,-3.629,-3.6459,-3.6567,-3.7072,-3.7204,-3.7192,-3.7192,-3.7565,-3.7541,-3.599,-3.6014,-3.6098,-3.5003,-3.4775,-3.4775,-3.4775,-3.4354,-3.3982,-3.397,-3.3176,-3.2491,-3.2478,-3.201,0.0,-3.1705,-3.1705,-3.1705,-3.1705,-3.1705,-3.1705,-3.1705,-3.1211,-3.041,-2.9388,-2.8775,-2.7753,-2.619,-2.6093,-2.5588,-2.4508,-2.4037,-2.4037,-2.4508,0.0,0.0,0.0,0.0,0.0,0.0,0.0,0.0,0.0,0.0,0.0,0.0,0.0,0.0,0.0,0.0,0.0,0.0,0.0,0.0,0.0,-2.6611,-2.8379,-2.8809,-3.0469,-3.2109,-3.3398,-3.3916,-3.4355,-3.4805,-3.4746,-3.5029,-3.5889,-3.5771,-3.585,-3.6299,-3.6133,-3.6016,-3.6016,-3.6016,-3.6016,-3.6016,-3.6016,-3.6074,-3.6191,-3.5654,-3.5273,-3.5039,-3.4375,-3.3506,-3.25,-3.2275,-3.1618,-3.0673,-3.0498,-3.0274,-3.0098,-3.0401,-3.0743,-3.1141,-3.2342,-3.3909,-3.5497,-3.5862,-3.5909,-3.5884,-3.6081,-3.5904,-3.5801,-3.6935,-3.7261,-3.7338,-3.7681,-3.7481,-3.7192,-3.7192,-3.7024,-3.6627,-3.5809,-3.5725,-3.5653,-3.4968,-3.4775,-3.4775,-3.4775,-3.4354,-3.3874,-3.3561,-3.2947,-3.237,-3.1994,-3.1801,0.0,-3.1705,-3.1705,-3.1705,-3.1705,-3.1705,-3.1705,-3.1705,-3.0874,-3.0182,-2.9893,-2.8294,-2.7126,-2.6681,-2.5949,-2.5204,-2.4496,-2.4386,-2.4566,0.0,0.0,0.0,0.0,0.0,0.0,0.0,0.0,0.0,0.0,0.0,0.0,0.0,0.0,0.0,0.0,0.0,0.0,0.0,0.0,0.0,0.0,-2.7781,-2.9839,-3.0636,-3.2039,-3.3379,-3.4492,-3.499,-3.5361,-3.5635,-3.5654,-3.5859,-3.6357,-3.6162,-3.6133,-3.6387,-3.6152,-3.6016,-3.6016,-3.6016,-3.6016,-3.6016,-3.6016,-3.6016,-3.6016,-3.54,-3.4961,-3.4678,-3.4201,-3.3381,-3.2401,-3.2401,-3.172,-3.0558,-3.0333,-3.0039,-2.9745,0.0,0.0,0.0,0.0,-3.3892,-3.5323,-3.5435,-3.5346,-3.5345,-3.5885,-3.5838,-3.5831,-3.7051,-3.7489,-3.7601,-3.7522,-3.734,-3.7096,-3.6651,-3.6471,-3.6218,-3.5473,-3.5461,-3.5473,-3.4944,-3.4775,-3.4775,-3.4775,-3.4234,0.0,-3.318,-3.2793,-3.2382,-3.207,-3.1862,-3.1705,-3.1705,-3.1705,-3.1705,-3.1705,-3.1705,-3.1705,-3.1705,-3.0742,0.0,0.0,0.0,-2.7126,-2.691,-2.6285,0.0,0.0,0.0,-2.5649,-2.5949,-2.5949,0.0,0.0,-2.5764,-2.5639,0.0,0.0,0.0,0.0,0.0,0.0,0.0,0.0,0.0,0.0,0.0,0.0,0.0,0.0,0.0,0.0,-2.8716,-3.0899,-3.22,-3.331,-3.4404,-3.5293,-3.5762,-3.6016,-3.6016,-3.6064,-3.6113,-3.6162,-3.6045,-3.6045,-3.6094,-3.5938,0.0,0.0,0.0,-3.5947,-3.6016,-3.6016,-3.5996,-3.5937,-3.5098,-3.4678,-3.46,-3.4108,-3.3476,-3.2702,-3.2723,-3.2048,-3.0859,-3.0235,-2.9745,-2.945,-2.9804,-3.0157,-3.0733,-3.2436,-3.3664,-3.4464,-3.4566,0.0,0.0,-3.5242,-3.5481,-3.5704,-3.6632,-3.7174,-3.734,-3.687,-3.6876,-3.6795,-3.5857,-3.5918,-3.599,-3.5052,-3.5184,-3.54,-3.4883,-3.4775,-3.4775,-3.4775,-3.3946,-3.3179,-3.2957,-3.2584,-3.2361,-3.2316,-3.1941,-3.1617,-3.1661,-3.1661,-3.1673,-3.1705,0.0,0.0,-3.1705,-3.0747,-2.9953,-2.9424,-2.8342,-2.745,-2.6922,-2.6898,-2.6898,-2.6898,-2.6958,-2.7018,-2.7078,-2.7138,-2.7349,-2.7644,-2.681,-2.6344,0.0,0.0,0.0,0.0,0.0,0.0,0.0,0.0,0.0,0.0,0.0,0.0,0.0,0.0,0.0,-2.7889,-2.9742,-3.138,-3.2608,-3.3303,-3.4144,-3.5293,-3.5762,-3.6016,-3.6016,-3.6338,-3.668,-3.7021,-3.6451,-3.6193,-3.6521,-3.5628,-3.5264,-3.5616,-3.5616,-3.5753,-3.6016,-3.6016,-3.585,-3.5508,-3.4961,0.0,-3.418,-3.397,-3.3644,-3.3139,-3.3085,-3.2276,-3.0992,-3.0526,-2.9804,-2.9153,-2.9695,-3.0392,-3.1267,-3.2399,-3.3127,-3.3595,-3.3941,-3.3973,-3.3862,-3.4221,-3.4595,-3.5028,-3.5463,-3.6086,0.0,-3.6248,-3.6051,-3.5869,-3.5665,-3.5376,-3.5088,-3.4823,-3.4859,-3.4907,-3.4799,-3.4775,-3.4775,-3.4775,-3.3827,-3.2969,-3.291,-3.2124,-3.1472,-3.1305,-3.1177,-3.1196,-3.135,-3.1395,-3.1439,-3.1661,-3.1705,-3.1705,-3.1705,-3.1127,-3.0494,-2.9965,-2.8546,-2.745,-2.6922,-2.6898,-2.6898,-2.6898,-2.7318,-2.7777,-2.821,-2.8631,-2.9001,-2.9285,-2.7667,-2.728,0.0,0.0,0.0,0.0,0.0,0.0,0.0,0.0,0.0,0.0,0.0,-2.3767,-2.4758,0.0,-2.7586,-2.8618,-3.0167,-3.1452,-3.2263,-3.3103,-3.4079,-3.5293,-3.5586,-3.5791,-3.5996,-3.6084,-3.616,-3.6363,-3.5833,-3.5597,-3.5797,-3.5208,-3.4981,-3.5196,-3.5411,-3.5548,-3.5753,-3.5957,-3.581,-3.5391,-3.4922,-3.4482,-3.4117,-3.412,-3.3813,-3.3184,-3.3326,-3.2425,-3.0848,-3.0066,-2.939,-2.9044,-2.9509,-3.0147,-3.0966,-3.1893,-3.2419,-3.2781,-3.3415,-3.3451,-3.3328,-3.3822,-3.4188,-3.444,-3.4861,-3.5364,-3.5718,-3.5294,-3.5206,-3.5087,-3.4735,-3.4449,-3.4246,-3.439,-3.439,-3.445,-3.4727,-3.4775,-3.4775,-3.4628,-3.3899,-3.322,-3.2972,-3.203,-3.1266,-3.1019,-3.0984,-3.1017,-3.1139,-3.1139,-3.1229,-3.1484,-3.1484,-3.1528,-3.1705,-3.1223,-3.0694,-3.0122,-2.9352,-2.8787,-2.8522,-2.851,-2.851,-2.851,-2.8775,-2.9039,-2.9304,-2.9569,-2.9923,-3.0312,-2.9302,-2.8786,0.0,0.0,0.0,0.0,0.0,0.0,0.0,-2.3188,-2.3448,-2.389,-2.4429,-2.5061,-2.5971,-2.7244,-2.8419,-2.9104,-3.0405,-3.1455,-3.1873,-3.2715,-3.3664,-3.485,-3.5072,-3.5296,-3.5714,-3.5568,-3.5449,-3.5526,-3.5182,-3.4897,-3.4897,-3.4753,-3.4706,-3.4784,-3.5196,-3.5411,-3.5479,-3.5734,-3.5684,-3.5254,-3.4795,-3.4355,-3.4,-3.4269,-3.398,-3.3226,-3.3225,-3.2265,-3.0655,-2.9499,-2.8984,-2.9044,-2.939,-2.9863,-3.0509,-3.1383,-3.1835,-3.2081,-3.3007,-3.3075,-3.2948,-3.3627,-3.3924,-3.4062,-3.4406,-3.4762,-3.4911,-3.44,-3.4462,-3.4525,-3.3907,-3.3719,-3.3756,-3.4031,-3.4018,-3.4138,-3.4618,-3.4726,-3.464,-3.4396,-3.3932,-3.3432,-3.2963,-3.2041,-3.124,-3.1015,-3.0908,-3.0883,-3.0927,-3.0927,-3.1052,-3.1359,-3.1321,-3.1395,-3.1661,-3.1223,-3.0742,-3.0266,-3.0146,-3.0086,-3.0086,-3.0086,-3.0086,-3.0086,-3.0194,-3.0242,-3.0242,-3.035,-3.0615,-3.1023,-3.0754,-3.0194,-2.2461,-2.2543,-2.2712,-2.2761,-2.34,-2.4061,0.0,-2.4237,-2.4548,-2.533,-2.5653,-2.6168,-2.7335,-2.8584,-2.9525,-2.9993,-3.0826,-3.1524,-3.1846,-3.2021,-3.242,-3.3272,-3.3971,-3.4488,-3.4864,-3.4986,-3.523,-3.5591,-3.5191,-3.4972,-3.4972,-3.4279,-3.4094,-3.4439,-3.4784,-3.5127,-3.5479,-3.5452,-3.5234,-3.4775,-3.4346,-3.3916,-3.3496,-3.413,-3.4161,-3.3658,-3.2305,-3.122,-3.0382,-2.939,-2.8984,-2.9044,-2.939,-2.9863,-3.0509,-3.1092,-3.1394,-3.1558,-3.2642,-3.2815,-3.2617,-3.3188,-3.3648,-3.3935,-3.3568,-3.3954,-3.4388,-3.39,-3.396,-3.4184,-3.4066,-3.3895,-3.3803,-3.4243,-3.4186,-3.409,-3.4363,-3.4433,-3.4396,-3.4162,-3.3531,-3.2975,-3.2915,-3.1864,-3.1043,-3.0985,-3.0572,-3.0397,-3.0623,-3.0623,-3.0888,-3.1583,-3.1445,-3.1395,-3.1661,-3.1223,-3.0855,-3.0826,-3.035,-3.0086,-3.0086,-3.0086,-3.0086,-3.0086,-3.0585,-3.0826,-3.0826,-3.1308,-3.156,-3.1609,-3.1096,-3.0922,-2.2802,-2.2837,-2.3107,-2.385,-2.4381,-2.488,-2.5408,-2.581,-2.6164,-2.6506,-2.6986,-2.7536,-2.804,-2.892,-2.9709,-3.013,-3.0671,-3.1185,-3.1552,-3.1577,-3.1675,-3.2035,-3.2124,-3.2658,-3.4013,-3.4257,-3.4374,-3.4543,-3.4422,-3.4274,-3.4274,-3.3969,-3.3845,-3.4025,-3.4357,-3.4574,-3.4729,-3.4879,-3.4775,-3.4336,-3.416,-3.3838,-3.3408,-3.3851,-3.3842,-3.3491,-3.184,-3.0937,-3.0548,-2.945,-2.8984,-2.9044,-2.939,-2.9962,-3.0694,-3.1027,-3.1442,-3.1886,-3.2584,-3.2779,-3.2818,-3.3181,-3.3419,-3.3545,-3.3338,-3.3531,-3.3735,-3.3538,-3.353,-3.361,-3.3455,-3.3085,-3.2959,-3.3585,-3.3445,-3.3327,-3.4083,-3.4211,-3.4162,-3.3927,-3.3592,-3.3343,-3.3146,-3.2448,-3.1869,-3.1869,-3.0928,-3.0261,-3.0352,-3.0628,-3.1101,-3.1833,-3.1839,-3.1803,-3.1938,-3.1593,-3.138,-3.138,-3.1175,-3.1043,-3.1043,-3.1043,-3.1043,-3.1043,-3.1259,-3.138,-3.138,-3.1597,-3.1705,-3.1705,-3.1476,-3.1244,-2.3153,-2.3296,-2.3702,-2.4841,-2.5335,-2.5715,-2.6463,-2.6921,-2.7205,-2.7315,-2.7719,-2.8095,-2.8196,-2.8874,-2.9507,-2.9819,-3.0387,-3.0892,-3.1176,-3.1219,-3.116,-3.116,-3.0807,-3.1146,-3.2598,-3.3011,-3.322,-3.3443,-3.3559,-3.3651,-3.3651,-3.3651,-3.3583,-3.3561,-3.3855,-3.4051,-3.4049,-3.4262,-3.431,-3.4072,-3.3945,-3.373,-3.3408,-3.348,-3.3356,-3.3066,-3.1435,-3.0655,-3.048,-2.945,-2.8984,-2.9044,-2.945,-3.0079,-3.081,-3.1077,-3.1609,-3.2276,-3.2661,-3.2869,-3.2942,-3.3181,-3.3281,-3.3281,-3.3281,-3.3281,-3.3281,-3.3281,-3.3281,-3.325,-3.3079,-3.2679,-3.2519,-3.3248,-3.3064,-3.2959,-3.3826,-3.3977,-3.3927,-3.363,-3.358,-3.353,-3.3331,-3.2845,-3.2489,-3.2489,-3.1433,-3.0641,-3.0641,-3.11,-3.1596,-3.2041,-3.2289,-3.2354,-3.2114,-3.1971,-3.1874,-3.1717,-3.1705,-3.1705,-3.1705,-3.1705,-3.1705,-3.1705,-3.1705,-3.1705,-3.1705,-3.1705,-3.1705,-3.1705,-3.156,-3.1284,-2.3578,-2.4078,-2.4628,-2.5465,-2.6143,-2.6637,-2.7105,-2.7215,-2.7288,-2.7721,-2.7462,-2.7334,-2.7767,-2.8452,-2.9003,-2.9021,-3.0011,-3.0791,-3.0809,-3.08,-3.0791,-3.0791,-3.0442,-3.0222,-3.033,-3.1038,-3.1828,-3.2551,-3.301,-3.3239,-3.3239,-3.3239,-3.3239,-3.3221,-3.3239,-3.3415,-3.3719,-3.3656,-3.3769,-3.4062,-3.3643,-3.3428,-3.3389,-3.2856,-3.2585,-3.2431,-3.1045,-3.0216,-2.9863,-2.9281,-2.8984,-2.9044,-2.9636,-3.0265,-3.0839,-3.1192,-3.1841,-3.2609,-3.2963,-3.3022,-3.2942,-3.3181,-3.3281,-3.3281,-3.3281,-3.3281,-3.3281,-3.3281,-3.3281,-3.3281,-3.3269,-3.3088,-3.3017,-3.3589,-3.3469,-3.338,-3.3662,-3.3729,-3.363,-3.3381,-3.3331,-3.3331,-3.3281,-3.2845,-3.2489,-3.2489,-3.2041,-3.172,-3.1638,-3.2121,-3.2356,-3.211,-3.2804,-3.2936,-3.2174,-3.233,-3.2238,-3.1741,-3.1705,-3.1705,-3.1705,-3.1705,-3.1705,-3.1705,-3.1705,-3.1705,-3.1705,-3.1705,-3.1705,-3.1693,-3.1187,-3.0934,-2.3816,-2.4544,-2.5306,-2.6074,-2.6636,-2.7077,-2.7537,-2.762,-2.7583,-2.7454,-2.727,-2.7141,-2.7004,-2.7416,-2.7866,-2.8189,-2.8975,-2.9681,-2.9947,-2.9975,-2.9975,-2.9975,-2.9635,-2.9608,-3.0149,-3.091,-3.1497,-3.1763,-3.2423,-3.2808,-3.2808,-3.2808,-3.2756,-3.2746,-3.2739,-3.2796,-3.2838,-3.2834,-3.295,-3.3324,-3.3369,-3.3187,-3.2866,-3.2701,-3.2405,-3.1951,-3.0859,-3.0333,-3.0157,-2.934,-2.8984,-2.9044,-2.945,-2.9976,-3.0456,-3.0817,-3.1339,-3.1933,-3.2498,-3.2803,-3.2942,-3.3181,-3.3281,-3.3281,-3.3281,-3.3281,-3.3281,-3.3281,-3.3281,-3.3281,-3.3281,-3.2989,-3.2773,-3.3304,-3.3076,-3.2883,-3.3315,-3.3431,-3.3431,-3.3331,-3.3281,-3.3281,-3.3281,-3.3132,-3.3017,-3.3017,-3.2354,-3.188,-3.219,-3.2386,-3.2607,-3.2889,-3.3163,-3.3065,-3.2406,-3.2466,-3.2262,-3.1741,-3.1705,-3.1705,-3.1705,-3.1705,-3.1705,-3.1705,-3.1705,-3.1705,-3.1705,-3.1705,-3.1705,-3.1705,-3.1524,-3.1259,-2.4587,-2.5341,-2.6004,-2.6811,-2.7196,-2.7416,-2.7583,-2.7444,-2.7243,-2.6646,-2.6417,-2.6197,-2.5793,-2.6214,-2.6719,-2.7114,-2.8049,-2.8966,-2.9498,-2.97,-2.9846,-2.9993,-2.9654,-2.9626,-3.0149,-3.0791,-3.1231,-3.1368,-3.2001,-3.2386,-3.2386,-3.2386,-3.2399,-3.2338,-3.2181,-3.2171,-3.223,-3.223,-3.2422,-3.2921,-3.2957,-3.2822,-3.2442,-3.2154,-3.1751,-3.1257,-3.0441,-3.0089,-3.003,-2.9272,-2.8984,-2.9025,-2.9164,-2.9524,-2.9889,-3.0188,-3.0506,-3.1053,-3.209,-3.2594,-3.2768,-3.3181,-3.3242,-3.3181,-3.3281,-3.3231,-3.3181,-3.3281,-3.3281,-3.3281,-3.3281,-3.3028,-3.2856,-3.3201,-3.3028,-3.2868,-3.3212,-3.3281,-3.3281,-3.3281,-3.3281,-3.3281,-3.3281,-3.3281,-3.3281,-3.3281,-3.273,-3.242,-3.273,-3.2776,-3.2951,-3.3396,-3.3536,-3.3348,-3.2689,-3.2741,-3.2466,-3.1753,-3.1705,-3.1705,-3.1705,-3.1705,-3.1705,-3.1705,-3.1705,-3.1705,-3.1705,-3.1705,-3.1705,-3.1705,-3.1705,-3.1524,-2.5727,-2.637,-2.683,-2.7638,-2.7794,-2.7666,-2.7289,-2.6811,-2.627,-2.5525,-2.4996,-2.4592,-2.422,-2.4808,-2.5488,-2.5892,-2.727,-2.8608,-2.9397,-2.9892,-3.0323,-3.0745,-3.0461,-3.025,-3.0296,-3.0616,-3.0983,-3.1377,-3.1763,-3.1974,-3.1974,-3.1974,-3.1974,-3.1974,-3.1588,-3.158,-3.1855,-3.1919,-3.223,-3.2848,-3.2435,-3.2198,-3.2007,-3.132,-3.0776,-3.0323,-2.9736,-2.9499,-2.945,-2.9163,-2.8984,-2.9007,-2.8818,-2.898,-2.926,-2.9254,-2.9441,-2.9974,-3.1647,-3.2308,-3.242,-3.3069,-3.3081,-3.288,-3.3181,-3.3081,-3.293,-3.3181,-3.3281,-3.3281,-3.3281,-3.3281,-3.3281,-3.3281,-3.3281,-3.3281,-3.3281,-3.3281,-3.3281,-3.3281,-3.3281,-3.3281,-3.3281,-3.3331,-3.3331,-3.3331,-3.3331,-3.3331,-3.3331,-3.3331,-3.3431,-3.3679,-3.3977,-3.381,-3.2995,-3.3168,-3.2839,-3.1813,-3.1729,-3.1705,-3.1705,-3.1705,-3.1705,-3.1705,-3.1705,-3.1705,-3.1705,-3.1705,-3.1705,-3.1705,-3.1705,-3.1705,-2.6261,-2.694,-2.7517,-2.7776,-2.7381,-2.6866,-2.6765,-2.5958,-2.5096,-2.4624,-2.4143,-2.3691,-2.3288,-2.3923,-2.4652,-2.5065,-2.6435,-2.7774,-2.8581,-2.9296,-2.9993,-3.0708,-3.0699,-3.0873,-3.1488,-3.135,-3.1396,-3.1818,-3.1653,-3.1543,-3.1543,-3.1543,-3.1543,-3.1543,-3.1433,-3.1442,-3.1515,-3.1782,-3.1983,-3.2166,-3.1986,-3.1746,-3.1398,-3.0917,-3.0439,-3.0039,-2.9627,-2.9499,-2.945,-2.9163,-2.8984,-2.8948,-2.8661,-2.8475,-2.8483,-2.8393,-2.8494,-2.8813,-2.9879,-3.0785,-3.1629,-3.2454,-3.2493,-3.2291,-3.2606,-3.2493,-3.2342,-3.288,-3.298,-3.3042,-3.3231,-3.3281,-3.3281,-3.3281,-3.3281,-3.3281,-3.3281,-3.3281,-3.3281,-3.3281,-3.3281,-3.3281,-3.3281,-3.3481,-3.358,-3.358,-3.3779,-3.3828,-3.363,-3.358,-3.3679,-3.3977,-3.4211,-3.4086,-3.3541,-3.3372,-3.2996,-3.2334,-3.1934,-3.1705,-3.1705,-3.1705,-3.1705,-3.1705,-3.1705,-3.1705,-3.1705,-3.1705,-3.1705,-3.1705,-3.1705,-3.1705,-2.7224,-2.771,-2.7994,-2.7868,-2.7353,-2.6664,-2.5958,-2.5133,-2.4235,-2.329,-2.2914,-2.2574,-2.2172,-2.2804,-2.3602,-2.4431,-2.5867,-2.7325,-2.8489,-2.9342,-3.0213,-3.1203,-3.1322,-3.157,-3.2203,-3.1891,-3.1753,-3.1992,-3.1616,-3.1304,-3.113,-3.1121,-3.1121,-3.1121,-3.1121,-3.1203,-3.1377,-3.1404,-3.1512,-3.163,-3.1221,-3.094,-3.0705,-3.0282,-2.9911,-2.9509,-2.9331,-2.9272,-2.9272,-2.9103,-2.8984,-2.892,-2.8342,-2.809,-2.7975,-2.7659,-2.7729,-2.8014,-2.8847,-2.9638,-3.0443,-3.1567,-3.1669,-3.1414,-3.1936,-3.1874,-3.1772,-3.2505,-3.2779,-3.293,-3.3231,-3.3281,-3.3281,-3.3281,-3.3281,-3.3281,-3.3281,-3.3281,-3.3281,-3.3281,-3.3281,-3.3281,-3.3281,-3.353,-3.3679,-3.3679,-3.3927,-3.4075,-3.4014,-3.3915,-3.3977,-3.4211,-3.4347,-3.4231,-3.3863,-3.3695,-3.3296,-3.2551,-3.2202,-3.197,-3.1717,-3.1705,-3.1705,-3.1705,-3.1705,-3.1705,-3.1705,-3.1705,-3.1705,-3.1705,-3.1705,-3.1761,-2.8205,-2.8397,-2.8297,-2.7923,-2.7445,-2.6628,-2.5124,-2.4376,-2.3501,-2.1989,-2.1604,-2.1431,-2.1163,-2.1731,-2.2648,-2.3917,-2.5399,-2.6985,-2.859,-2.9571,-3.0589,-3.1854,-3.2056,-3.2267,-3.2716,-3.2349,-3.2084,-3.2084,-3.1598,-3.1148,-3.0809,-3.0791,-3.0772,-3.0717,-3.0708,-3.0873,-3.1222,-3.0882,-3.0897,-3.113,-3.0376,-3.0023,-3.0004,-2.9636,-2.9272,-2.8984,-2.8984,-2.8984,-2.8984,-2.8984,-2.8984,-2.8902,-2.8086,-2.7822,-2.7721,-2.7132,-2.7161,-2.753,-2.8271,-2.8751,-2.929,-3.063,-3.0681,-3.0443,-3.1167,-3.1219,-3.123,-3.2066,-3.2544,-3.288,-3.3231,-3.3281,-3.3281,-3.3281,-3.3281,-3.3281,-3.3281,-3.3281,-3.3281,-3.3281,-3.3281,-3.3281,-3.3281,-3.353,-3.3729,-3.3729,-3.4026,-3.4261,-3.4433,-3.4261,-3.4211,-3.4433,-3.4433,-3.4352,-3.4138,-3.403,-3.361,-3.2755,-3.2647,-3.2394,-3.1946,-3.1849,-3.1849,-3.1922,-3.1849,-3.1849,-3.1922,-3.1922,-3.1886,-3.1825,-3.1825,-3.1878,-2.8361,-2.8397,-2.8297,-2.7923,-2.7022,-2.5975,-2.4996,-2.3675,-2.2474,-2.1815,-2.1156,-2.0805,-2.1062,-2.1511,-2.219,-2.3398,-2.4739,-2.6195,-2.7803,-2.9016,-3.0259,-3.1818,-3.2294,-3.278,-3.3523,-3.2927,-3.2496,-3.2496,-3.1497,-3.0855,-3.0791,-3.0791,-3.0644,-3.0314,-3.0305,-3.0332,-3.0406,-3.0332,-3.0296,-3.042,-2.9932,-2.9702,-2.9683,-2.9278,-2.9044,-2.8984,-2.8984,-2.8984,-2.8984,-2.8984,-2.8984,-2.8902,-2.8086,-2.7822,-2.773,-2.693,-2.6954,-2.7431,-2.7584,-2.813,-2.894,-2.9879,-2.9984,-2.9816,-3.0193,-3.0256,-3.0401,-3.1465,-3.1924,-3.2331,-3.3119,-3.3281,-3.3281,-3.3281,-3.3281,-3.3281,-3.3281,-3.3281,-3.3281,-3.3281,-3.3281,-3.3281,-3.3281,-3.3729,-3.4026,-3.4026,-3.4408,-3.4689,-3.4738,-3.4494,-3.4433,-3.4677,-3.4726,-3.469,-3.4655,-3.4246,-3.3922,-3.3742,-3.338,-3.3104,-3.3008,-3.2587,-3.2563,-3.2996,-3.2575,-3.2575,-3.3008,-3.3008,-3.2779,-3.2358,-3.2358,-3.2151,-2.8645,-2.87,-2.8553,-2.7921,-2.7077,-2.5913,-2.4464,-2.3198,-2.1989,-2.0964,-2.0442,-2.0232,-2.0457,-2.0998,-2.1696,-2.2693,-2.4299,-2.5911,-2.726,-2.8741,-3.0094,-3.1515,-3.2038,-3.2524,-3.312,-3.2643,-3.2194,-3.1974,-3.1432,-3.0897,-3.0497,-3.0277,-3.0066,-2.9883,-3.0085,-3.0204,-3.0204,-2.9984,-2.9874,-2.9865,-2.9461,-2.9269,-2.9319,-2.9246,-2.9272,-2.9272,-2.939,-2.939,-2.9272,-2.9272,-2.9033,-2.8618,-2.8003,-2.7702,-2.7445,-2.6958,-2.7053,-2.7431,-2.7755,-2.8344,-2.9036,-2.9764,-2.9711,-2.9448,-3.0036,-3.0193,-3.0443,-3.1516,-3.2026,-3.2443,-3.3119,-3.3281,-3.3281,-3.3281,-3.3281,-3.3281,-3.3281,-3.3281,-3.3281,-3.3281,-3.3281,-3.3281,-3.3281,-3.363,-3.3878,-3.3878,-3.4211,-3.4457,-3.4457,-3.431,-3.4396,-3.4775,-3.4775,-3.4775,-3.4775,-3.4546,-3.4282,-3.4006,-3.3766,-3.3561,-3.3296,-3.3044,-3.3032,-3.3284,-3.3044,-3.3032,-3.3284,-3.3284,-3.3152,-3.2899,-3.2623,-3.2436,-2.8805,-2.903,-2.8901,-2.8196,-2.7327,-2.61,-2.4144,-2.287,-2.1702,-2.026,-1.9852,-1.9783,-1.9875,-2.0438,-2.1154,-2.2007,-2.362,-2.5179,-2.6481,-2.804,-2.9507,-3.0717,-3.146,-3.2029,-3.2432,-3.2102,-3.18,-3.1543,-3.1369,-3.0965,-3.0331,-2.9854,-2.9684,-2.9684,-2.9947,-3.0122,-3.0061,-2.9729,-2.9564,-2.9443,-2.925,-2.9103,-2.9103,-2.945,-2.9568,-2.9618,-2.971,-2.9672,-2.9427,-2.9343,-2.8944,-2.8397,-2.8029,-2.7669,-2.7345,-2.7148,-2.726,-2.7584,-2.813,-2.8708,-2.928,-2.99,-2.9754,-2.9448,-3.0235,-3.0495,-3.0692,-3.171,-3.2229,-3.2594,-3.3181,-3.3281,-3.3315,-3.3419,-3.343,-3.3465,-3.3591,-3.3614,-3.3579,-3.3453,-3.343,-3.3407,-3.3304,-3.3481,-3.3665,-3.3769,-3.388,-3.4015,-3.4231,-3.4155,-3.4281,-3.4827,-3.4772,-3.4738,-3.4775,-3.4775,-3.4607,-3.4186,-3.4162,-3.3982,-3.3633,-3.3513,-3.3501,-3.3621,-3.3513,-3.3501,-3.3621,-3.3621,-3.3561,-3.344,-3.2911,-3.269,-2.8654,-2.9161,-2.9303,-2.8766,-2.7708,-2.6324,-2.4617,-2.2848,-2.1323,-2.0387,-1.9734,-1.9476,-1.982,-1.9948,-2.0378,-2.1559,-2.2199,-2.3171,-2.4776,-2.6389,-2.7847,-2.9058,-3.0525,-3.1598,-3.2019,-3.168,-3.1552,-3.1855,-3.1323,-3.0873,-3.0474,-3.0087,-2.9861,-2.9861,-2.9898,-2.9799,-2.9561,-2.9524,-2.9387,-2.9039,-2.935,-2.945,-2.944,-2.9745,-2.9863,-2.9844,-2.9475,-2.9315,-2.9286,-2.8842,-2.8663,-2.8531,-2.8153,-2.7965,-2.788,-2.7529,-2.7584,-2.7906,-2.8184,-2.8867,-2.9659,-3.0183,-3.0141,-3.0036,-3.0588,-3.0733,-3.094,-3.1761,-3.2218,-3.2521,-3.3119,-3.3281,-3.3396,-3.3832,-3.3935,-3.4073,-3.4555,-3.4659,-3.4521,-3.4027,-3.3935,-3.3798,-3.3361,-3.3331,-3.348,-3.3917,-3.3708,-3.3828,-3.4567,-3.4404,-3.4404,-3.4987,-3.4704,-3.4531,-3.4787,-3.4775,-3.4763,-3.4715,-3.4715,-3.4691,-3.4643,-3.4174,-3.415,-3.4631,-3.4162,-3.4162,-3.4643,-3.4643,-3.439,-3.391,-3.3452,-3.2959,-2.8746,-2.9343,-2.9565,-2.9323,-2.8279,-2.6769,-2.4803,-2.3054,-2.1546,-2.0495,-1.9818,-1.9524,-1.97,-1.981,-2.0122,-2.0845,0.0,-2.2813,-2.4257,-2.5803,-2.7234,-2.8371,-2.9772,-3.0742,-3.1087,-3.118,-3.1321,-3.1631,-3.1533,-3.1611,-3.1786,-3.0928,-3.0431,-3.0431,-3.0431,-3.0314,-3.003,-3.003,-2.9863,-2.9509,-2.9686,-2.9745,-2.9736,-2.9783,-2.9843,-2.9824,-2.9565,-2.9382,-2.9145,-2.8974,-2.8642,-2.8228,-2.8048,-2.7831,-2.7649,-2.7704,-2.7799,-2.796,-2.8398,-2.9036,-2.9711,-3.0432,-3.0703,-3.0817,-3.1362,-3.1505,-3.1659,-3.2353,-3.2606,-3.2807,-3.3181,-3.3281,-3.3407,-3.3889,-3.4004,-3.4153,-3.4682,-3.4796,-3.4636,-3.4108,-3.4004,-3.3804,-3.3172,-3.2908,-3.2803,-3.2949,-3.2693,-3.2661,-3.309,-3.3145,-3.3453,-3.4257,-3.4363,-3.4548,-3.4996,-3.4759,-3.4628,-3.4775,-3.4775,-3.4775,-3.4775,-3.457,-3.457,-3.4823,-3.457,-3.457,-3.4775,-3.4775,-3.4667,-3.445,-3.3982,-3.3633,-2.849,-2.9226,-2.9505,-2.9644,-2.8592,-2.6963,-2.5086,-2.3442,-2.1973,-2.082,-2.0225,-1.9872,-1.9833,-1.9878,-2.0079,0.0,0.0,-2.2399,-2.359,-2.5015,-2.6375,-2.7354,-2.8704,-2.9736,-3.0269,-3.0806,-3.1124,-3.1179,-3.1648,-3.2102,-3.2514,-3.2045,-3.1757,-3.1632,-3.1506,-3.1285,-3.0966,-3.0733,-3.045,-3.0039,-3.0039,-2.9982,-2.9849,-2.9901,-2.9861,-2.9726,-2.9514,-2.9274,-2.9041,-2.8916,-2.8574,-2.8077,-2.8077,-2.7905,-2.7691,-2.7906,-2.8014,-2.8067,-2.8514,-2.9046,-2.9554,-3.0318,-3.0795,-3.1167,-3.1607,-3.1863,-3.2128,-3.2718,-3.3031,-3.3181,-3.3281,-3.3331,-3.3507,-3.3889,-3.4119,-3.4383,-3.49,-3.5014,-3.4865,-3.444,-3.4159,-3.3793,-3.3222,-3.2745,-3.2447,-3.2534,-3.2077,-3.1827,-3.2233,-3.2469,-3.2976,-3.3835,-3.4271,-3.4674,-3.5141,-3.4823,-3.4698,-3.4787,-3.4775,-3.4775,-3.4775,-3.4775,-3.4775,-3.4775,-3.4775,-3.4775,-3.4775,-3.4775,-3.4775,-3.4763,-3.4234,-3.391,-2.7814,-2.8664,-2.9162,-2.9722,-2.8557,-2.6853,-2.5499,-2.3935,-2.2483,-2.1425,-2.0886,-2.0527,-2.0342,-2.0069,-2.0176,-2.1049,-2.1191,0.0,-2.2589,-2.3783,-2.4874,-2.5712,-2.725,-2.8679,-2.9787,-3.0558,-3.0813,-3.043,-3.1536,-3.2227,-3.2227,-3.3388,-3.3896,-3.3582,-3.3233,-3.2789,-3.217,-3.1604,-3.0976,-3.0382,-3.0382,-3.017,-2.9834,-3.0091,-2.9971,-2.9551,-2.9111,-2.8926,-2.8896,-2.8476,-2.8301,-2.8301,-2.8301,-2.8291,-2.8291,-2.8291,-2.8291,-2.8344,-2.8631,-2.8887,-2.9175,-2.9796,-3.037,-3.0836,-3.1135,-3.1597,-3.2128,-3.2718,-3.3281,-3.363,-3.3381,-3.3481,-3.3757,-3.394,-3.4406,-3.4923,-3.5405,-3.5508,-3.5423,-3.5254,-3.4566,-3.3945,-3.3711,-3.3008,-3.2662,-3.3115,-3.2235,-3.1774,-3.2588,-3.2789,-3.3243,-3.4184,-3.4488,-3.4755,-3.515,-3.5206,-3.5079,-3.4811,-3.4775,-3.4775,-3.4775,-3.4775,-3.4775,-3.4775,-3.4775,-3.4775,-3.4775,-3.4775,-3.4775,-3.4763,-3.4234,-3.3765,-2.7093,-2.7975,-2.8357,-2.8885,-2.7857,-2.6483,-2.5592,-2.4164,-2.2835,-2.215,-2.1711,-2.1318,-2.0964,-2.0838,-2.0938,-2.1328,-2.167,-2.223,-2.3236,-2.4078,-2.502,-2.6212,-2.7726,-2.897,-2.9767,-3.0036,-3.0345,-3.0723,-3.1189,-3.1748,-3.2388,-3.2861,-3.3224,-3.3381,-3.3492,-3.3055,-3.213,-3.1754,-3.1197,-3.0422,-3.0027,-2.9799,-2.9653,-2.9259,-2.8936,-2.8691,-2.8555,-2.8164,-2.7637,-2.7793,-2.7685,-2.7422,-2.7422,-2.7598,-2.7861,-2.7861,-2.8047,-2.8291,-2.8408,-2.8621,-2.8877,-2.9237,-2.9649,-3.0015,-3.0287,-3.1002,-3.1823,-3.2381,-3.2958,-3.3431,-3.353,-3.3779,-3.4044,-3.4447,-3.4692,-3.496,-3.5433,-3.555,-3.545,-3.5016,-3.4578,-3.4097,-3.3511,-3.2846,-3.2498,-3.2597,-3.2077,-3.1827,-3.2244,-3.2823,-3.3463,-3.4173,-3.4941,-3.5588,-3.6008,-3.5329,-3.5046,-3.5327,-3.4979,-3.4775,-3.4775,-3.5172,-3.5147,-3.4787,-3.5184,-3.5196,-3.4775,-3.4775,-3.4775,-3.4823,-3.4607,-3.4246,-2.6094,-2.6822,-2.7121,-2.7718,-2.6911,-2.5862,-2.5337,-2.4299,-2.3323,-2.2837,-2.2494,-2.2155,-2.1835,-2.1711,-2.174,-2.2005,-2.2433,-2.2967,-2.3721,-2.446,-2.5315,-2.6515,-2.7921,-2.8865,-2.9125,-2.9316,-2.9575,-3.0055,-3.0372,-3.0832,-3.1577,-3.2011,-3.2275,-3.2457,-3.3128,-3.3139,-3.2459,-3.1983,-3.1329,-3.056,-2.9895,-2.9427,-2.916,-2.8568,-2.8134,-2.7868,-2.7828,-2.751,0.0,-2.7314,-2.7256,-2.7012,-2.7012,-2.7178,-2.7422,-2.7422,-2.7588,-2.7832,-2.7998,-2.8163,-2.8331,-2.8522,-2.8665,-2.8836,-2.9116,-3.017,-3.1414,-3.1964,-3.2633,-3.3308,-3.363,-3.3965,-3.4294,-3.4463,-3.4675,-3.491,-3.5251,-3.5321,-3.5216,-3.4976,-3.4601,-3.4178,-3.3764,-3.3247,-3.2836,-3.2795,-3.2417,-3.2205,-3.2343,-3.3124,-3.3875,-3.437,-3.5452,-3.6345,-3.6814,-3.5864,-3.5453,-3.5867,-3.5425,-3.5208,-3.5412,-3.5737,-3.5761,-3.5425,-3.5557,-3.5449,-3.5075,-3.4919,-3.4775,-3.4775,-3.4775,-3.4607,0.0,-2.537,-2.5591,-2.6269,-2.5764,-2.5026,-2.4752,-2.4316,0.0,-2.3435,-2.3187,-2.3001,-2.2777,-2.259,-2.2627,-2.3009,-2.338,-2.375,-2.418,-2.5032,-2.5947,-2.6798,-2.7841,-2.8423,-2.8167,-2.8453,-2.8634,-2.8728,-2.9176,-2.9603,-2.9967,-3.0734,-3.1096,-3.0915,-3.2126,-3.2822,-3.2962,-3.2114,-3.141,-3.0734,-2.9887,-2.9072,-2.8346,-2.7968,-2.7526,-2.7102,-2.7014,-2.6931,-2.6924,-2.6953,-2.6953,-2.6924,-2.6924,-2.6943,-2.6973,-2.6973,-2.6992,-2.707,-2.748,-2.7669,-2.7669,-2.7669,-2.754,-2.745,-2.7733,-2.9157,-3.0792,-3.1316,-3.228,-3.3216,-3.356,-3.4028,-3.4396,-3.4211,-3.4466,-3.4807,-3.4807,-3.4807,-3.4858,-3.5108,-3.458,-3.4162,-3.4384,-3.3991,-3.3645,-3.3645,-3.3224,-3.2912,-3.2912,-3.3788,-3.4519,-3.4803,-3.5989,-3.6982,-3.7542,-3.6645,-3.614,-3.6411,-3.5905,-3.5833,-3.6326,-3.6386,-3.6411,-3.6411,-3.5881,-3.5617,-3.5617,-3.5124,-3.4835,-3.4835,-3.4835,-3.4835,-2.3414,0.0,-2.4543,-2.4916,-2.453,-2.4116,0.0,-2.4006,-2.3701,-2.3737,-2.3714,-2.3593,-2.3224,-2.3261,-2.3415,-2.3787,-2.4154,-2.4729,-2.5594,-2.677,-2.7532,-2.7559,-2.8183,-2.8584,-2.8423,-2.8252,-2.8322,-2.8643,-2.8322,-2.8309,-2.8843,-2.8804,-2.8743,-2.878,-2.9299,-3.0151,-3.1323,-3.0926,-3.0347,-2.9487,-2.8359,-2.7631,-2.7153,-2.6578,-2.6309,-2.6285,-2.6548,-2.6429,-2.6015,-2.6396,-2.6338,-2.5996,-2.5996,-2.624,-2.6533,-2.6533,-2.6738,-2.7031,-2.7139,-2.7168,-2.7168,-2.7168,-2.7151,-2.7114,-2.7165,-2.8127,-2.9352,-3.0031,-3.1251,-3.2529,-3.3198,-3.4039,-3.4677,-3.464,-3.4724,-3.482,-3.482,-3.482,-3.482,-3.4857,-3.4577,-3.4347,-3.4384,-3.415,-3.3965,-3.3965,-3.3866,-3.3805,-3.3805,-3.4692,-3.531,-3.5425,-3.6585,-3.7435,-3.7596,-3.7001,-3.6546,-3.6435,-3.5905,-3.5677,-3.5797,-3.6194,-3.6411,-3.6411,-3.5881,-3.5617,-3.5617,-3.5485,-3.5425,-3.5425,-3.5425,-3.5425,-2.2772,-2.322,-2.3633,-2.3875,-2.3716,-2.3621,-2.4033,-2.3905,-2.3787,-2.4007,-2.4043,-2.397,-2.3751,-2.3968,-2.428,-2.4427,-2.5155,-2.6091,-2.7182,-2.7947,-2.8309,-2.8126,-2.8175,-2.8229,-2.8291,-2.7665,-2.7508,-2.7991,-2.7225,-2.699,-2.7443,-2.7136,-2.7012,-2.724,-2.7508,-2.8287,-2.9649,-2.9506,-2.9096,-2.8373,-2.7409,-2.6731,-2.6313,-2.5736,-2.552,-2.5607,-2.5745,-2.5706,-2.5557,-2.579,-2.58,-2.5693,-2.5693,-2.5879,-2.6094,-2.6094,-2.624,-2.6405,-2.666,-2.6728,-2.6728,-2.6728,-2.6592,-2.6426,-2.6566,-2.721,-2.8128,-2.9264,-3.0634,-3.1962,-3.3038,-3.3862,-3.4474,-3.4727,-3.4775,-3.4775,-3.4775,-3.4775,-3.4775,-3.4775,-3.4677,-3.458,-3.458,-3.4494,-3.4396,-3.4396,-3.4396,-3.4396,-3.4396,-3.531,-3.5991,-3.5991,-3.7047,-3.7797,-3.7797,-3.7534,-3.73,-3.7144,-3.6411,-3.6194,-3.6675,-3.6747,-3.6771,-3.6771,-3.6483,-3.6218,-3.5978,-3.5978,-3.5978,-3.5978,-3.5978,-3.5845,-2.2581,-2.2794,-2.3036,-2.3375,-2.339,-2.3468,-2.3915,0.0,0.0,0.0,0.0,0.0,-2.42,-2.459,-2.4969,-2.513,-2.6308,-2.7608,-2.8613,-2.8776,-2.8731,-2.863,-2.8246,-2.8036,-2.8153,-2.7341,-2.6924,-2.7188,-2.6442,-2.6036,-2.6121,-2.5933,-2.5863,-2.5984,-2.6241,-2.6785,-2.7612,-2.7914,-2.7784,-2.7219,-2.6582,-2.6015,-2.5438,-2.495,-2.4805,-2.4836,-2.4763,0.0,-2.5149,-2.5255,-2.543,-2.5635,-2.5684,-2.5693,-2.5693,-2.5693,-2.5693,-2.5742,-2.6162,-2.6289,-2.6289,-2.6289,-2.6035,-2.583,-2.61,-2.6572,-2.7396,-2.8934,-3.0222,-3.1495,-3.2709,-3.347,-3.4018,-3.4534,-3.4667,-3.4679,-3.4763,-3.4775,-3.4775,-3.4775,-3.4775,-3.4775,-3.4775,-3.4775,-3.4775,-3.4775,-3.4775,-3.4775,-3.4775,-3.5749,-3.6411,-3.6411,-3.7348,-3.7986,-3.7986,-3.7986,-3.795,-3.7866,-3.6952,-3.6807,-3.7762,-3.7521,-3.7312,-3.7364,-3.724,-3.6976,-3.6519,-3.6519,-3.6519,-3.6519,-3.6519,-3.6242,-2.241,-2.2695,-2.307,-2.4007,-2.3906,-2.3742,-2.443,-2.424,0.0,0.0,0.0,0.0,-2.42,-2.459,-2.5199,-2.6122,-2.7683,-2.8821,-2.8992,-2.9376,-2.9547,-2.9315,-2.9353,-2.9236,-2.8801,-2.8428,-2.7955,-2.7316,-2.6919,-2.649,-2.5891,-2.5839,-2.5577,-2.5029,-2.5196,-2.5102,-2.46,-2.6104,-2.6512,-2.5863,-2.5201,-2.4557,-2.3862,-2.3409,-2.336,-2.3588,0.0,-2.4218,-2.4497,-2.5091,-2.5333,-2.5382,-2.5586,-2.5693,-2.5693,-2.5693,-2.5693,-2.5703,-2.5762,-2.5791,-2.5791,-2.5791,-2.5927,-2.61,-2.6352,-2.7098,-2.8019,-2.8888,-2.9896,-3.0913,-3.1739,-3.2673,-3.3537,-3.3994,-3.4114,-3.4234,-3.4679,-3.4775,-3.4775,-3.4775,-3.4775,-3.4775,-3.4775,-3.4775,-3.4775,-3.4775,-3.4775,-3.4775,-3.4775,-3.5749,-3.6411,-3.6411,-3.7348,-3.7986,-3.7986,-3.7986,-3.7793,-3.7336,-3.6747,-3.6584,-3.6957,-3.7537,-3.7971,-3.8182,-3.7525,-3.7156,-3.7072,-3.7072,-3.7072,-3.7072,-3.7072,-3.6795,-2.2013,-2.2601,-2.3294,-2.4093,-2.4234,-2.4314,-2.4716,-2.4857,-2.4902,0.0,0.0,0.0,-2.5015,-2.5417,-2.6175,-2.7461,-2.8603,-2.9395,-2.9646,-2.9782,-2.9809,-2.9693,-2.9423,-2.9176,-2.9182,-2.8446,-2.7813,-2.7325,-2.6565,-2.5703,-2.4886,-2.4602,-2.4233,-2.3804,-2.402,-2.3931,-2.3568,-2.4562,-2.48,-2.4341,-2.4057,-2.364,-2.3169,-2.3137,-2.3186,-2.3327,0.0,-2.3748,-2.3994,-2.4127,-2.4402,-2.4669,-2.5044,-2.5227,-2.54,-2.5596,-2.5693,-2.5693,-2.5693,-2.5693,-2.5732,-2.5868,-2.611,-2.639,-2.6928,-2.7631,-2.8373,-2.9255,-3.0068,-3.0801,-3.1688,-3.2385,-3.3068,-3.3802,-3.3994,-3.4138,-3.4667,-3.4775,-3.4775,-3.4775,-3.4775,-3.4775,-3.4775,-3.4775,-3.4775,-3.4775,-3.4775,-3.4883,-3.5208,-3.593,-3.6519,-3.6795,-3.7517,-3.7986,-3.7986,-3.7721,-3.7324,-3.6795,-3.6961,-3.6955,-3.6828,-3.7837,-3.8461,-3.8631,-3.8113,-3.7835,-3.7835,-3.7441,-3.7192,-3.7192,-3.7192,-3.6904,-2.1503,-2.2366,-2.335,-2.3818,-2.4328,-2.4808,-2.5035,-2.5417,-2.5716,0.0,0.0,-2.5638,-2.5638,-2.6194,-2.7108,-2.8322,-2.9064,-2.9668,-3.0079,-2.9909,-2.975,-2.9806,-2.9137,-2.8791,-2.9061,-2.8172,-2.741,-2.6988,-2.5993,-2.4989,-2.4054,-2.3635,-2.3327,-2.3101,-2.3289,-2.3383,-2.3327,-2.3512,-2.3503,-2.3243,-2.3243,-2.3066,-2.2806,-2.3047,-2.3186,-2.3186,-2.328,-2.3456,-2.3632,-2.3485,-2.3719,-2.4231,-2.4598,-2.4865,-2.5159,-2.5554,-2.5731,-2.5741,-2.5839,-2.5927,-2.6014,-2.6294,-2.6572,-2.6965,-2.7715,-2.8337,-2.8954,-2.9874,-3.0454,-3.0941,-3.1703,-3.2105,-3.2539,-3.3418,-3.373,-3.3958,-3.4486,-3.4691,-3.4775,-3.4775,-3.4775,-3.4775,-3.4775,-3.4775,-3.4775,-3.4775,-3.4775,-3.4931,-3.5376,-3.6002,-3.6567,-3.6964,-3.7481,-3.7745,-3.7625,-3.7132,-3.6699,-3.6423,-3.7109,-3.7324,-3.6941,-3.8057,-3.8788,-3.8893,-3.8579,-3.8409,-3.8409,-3.7734,-3.7372,-3.7372,-3.7372,-3.7096,-2.0867,-2.1829,-2.2823,-2.3116,-2.403,-2.5012,-2.5543,-2.5681,0.0,-2.5716,0.0,-2.5433,-2.5433,-2.64,-2.7422,-2.796,-2.8858,-2.96,-2.9874,-2.9466,-2.926,-2.9506,-2.8874,-2.8327,-2.812,-2.7668,-2.7024,-2.6069,-2.571,-2.5067,-2.4034,-2.3988,-2.3868,-2.3673,-2.3673,-2.3567,-2.3376,-2.3422,-2.3286,-2.2994,-2.2994,-2.2806,-2.2438,-2.2713,-2.2846,-2.2865,-2.3214,-2.3422,-2.3451,-2.3779,-2.4127,-2.4424,-2.4694,-2.4934,-2.5167,-2.5618,-2.5779,-2.5839,-2.6308,-2.663,-2.686,-2.704,-2.7468,-2.8034,-2.876,-2.9347,-2.9931,-3.0634,-3.1038,-3.1273,-3.1354,-3.1543,-3.1922,-3.2466,-3.2984,-3.3489,-3.3946,-3.4438,-3.4775,-3.4775,-3.4775,-3.4775,-3.4775,-3.4775,-3.4775,-3.4775,-3.4775,-3.4799,-3.4835,-3.5773,-3.6423,-3.6459,-3.694,-3.7048,-3.6567,-3.6038,-3.5918,-3.6374,-3.6904,-3.726,-3.7243,-3.7993,-3.8671,-3.9258,-3.8684,-3.8409,-3.8409,-3.8096,-3.7926,-3.7926,-3.7926,-3.7649,-2.063,-2.1299,-2.2049,-2.2697,-2.3647,0.0,0.0,-2.608,-2.6668,-2.6855,-2.6819,0.0,-2.6219,-2.6801,-2.7458,-2.7928,-2.8331,-2.8791,-2.9162,-2.8801,-2.8529,-2.8628,-2.8251,-2.7865,-2.7635,-2.7183,-2.6466,-2.5338,-2.4905,-2.4247,-2.3329,-2.3085,-2.295,-2.2879,-2.3194,-2.3295,-2.3195,-2.3497,-2.3571,-2.3416,-2.3202,-2.308,-2.3101,-2.3319,-2.3527,-2.3657,-2.3827,-2.3809,-2.3663,-2.3688,-2.3801,-2.4098,-2.4937,-2.5437,-2.5739,-2.5914,-2.5986,-2.6048,-2.6371,-2.6676,-2.6999,-2.7526,-2.8117,-2.8817,-2.9393,-2.9954,-3.0454,-3.0994,-3.1217,-3.135,-3.1484,-3.1617,-3.1849,-3.237,-3.2899,-3.3428,-3.3886,-3.4402,-3.4775,-3.4775,-3.4775,-3.4775,-3.4775,-3.4775,-3.4775,-3.4775,-3.4775,-3.4895,-3.5231,-3.5665,-3.6038,-3.6374,-3.6579,-3.6495,-3.5966,-3.6038,-3.605,-3.5918,-3.6563,-3.713,-3.7455,-3.8228,-3.8736,-3.8998,-3.8579,-3.8409,-3.8409,-3.7807,-3.7493,-3.7493,-3.7493,-3.7385,-2.0291,-2.0881,-2.1582,-2.2387,0.0,0.0,-2.5172,-2.6211,-2.7058,-2.73,-2.7265,-2.6984,-2.6493,-2.6754,-2.7156,-2.7423,-2.7612,-2.7844,-2.8177,-2.7766,-2.7441,-2.7527,-2.7088,-2.6686,-2.6516,-2.598,-2.5228,-2.4227,-2.3721,-2.3124,-2.2323,-2.213,-2.2034,-2.2121,-2.2519,-2.2853,-2.309,-2.3464,-2.376,-2.3926,-2.366,-2.3545,-2.3598,-2.3943,-2.4206,-2.4418,-2.4575,-2.4509,-2.4305,-2.4143,-2.4176,-2.4421,-2.5293,-2.5816,-2.6147,-2.6218,-2.6315,-2.6368,-2.662,-2.688,-2.7227,-2.7812,-2.8512,-2.9182,-2.9715,-3.0191,-3.0668,-3.1083,-3.1229,-3.1273,-3.1484,-3.1617,-3.1801,-3.2142,-3.2779,-3.3392,-3.3729,-3.4294,-3.4775,-3.4775,-3.4775,-3.4775,-3.4775,-3.4775,-3.4775,-3.4775,-3.4775,-3.4907,-3.5328,-3.5521,-3.5761,-3.6122,-3.6158,-3.5942,-3.5412,-3.5907,-3.6174,-3.5982,-3.6729,-3.7343,-3.7606,-3.8286,-3.8736,-3.8945,-3.8684,-3.8526,-3.8514,-3.7887,-3.7549,-3.7445,-3.7445,-3.7445,-1.9837,-2.0644,-2.1539,-2.2241,0.0,0.0,-2.5081,-2.5977,-2.6571,-2.6842,-2.6531,-2.6146,-2.5937,-2.6235,-2.653,-2.6314,-2.6681,-2.6973,-2.6984,-2.6357,-2.5968,-2.6249,-2.5385,-2.4719,-2.4522,-2.3897,-2.3204,-2.2564,-2.2124,-2.168,-2.1224,-2.1182,-2.1307,-2.1495,-2.1783,-2.2287,-2.3072,-2.3314,-2.3756,-2.4403,-2.4403,-2.4165,-2.3727,-2.4467,-2.4805,-2.4837,-2.528,-2.5485,-2.5496,-2.5285,-2.5327,-2.5538,-2.5812,-2.6052,-2.6252,-2.6516,-2.6734,-2.695,-2.7108,-2.7382,-2.7656,-2.7919,-2.8519,-2.9181,-2.9679,-3.0159,-3.0668,-3.0927,-3.0984,-3.1062,-3.1261,-3.1484,-3.1705,-3.1705,-3.2503,-3.3284,-3.3284,-3.4102,-3.4775,-3.4775,-3.4775,-3.4775,-3.4775,-3.4775,-3.4775,-3.4775,-3.4775,-3.4775,-3.4775,-3.528,-3.5605,-3.5605,-3.5605,-3.54,-3.4823,-3.5562,-3.6244,-3.6779,-3.7606,-3.7964,-3.763,-3.8129,-3.8684,-3.927,-3.8945,-3.8788,-3.8788,-3.8526,-3.825,-3.7986,-3.7986,-3.7986,-1.943,-1.9989,-2.074,-2.1801,-2.2468,-2.3258,0.0,-2.5792,0.0,0.0,-2.6431,-2.5672,-2.5294,-2.4891,-2.4736,-2.5048,-2.4919,-2.4867,-2.5251,-2.4945,-2.4708,-2.4829,-2.4668,-2.4504,-2.4256,-2.3657,-2.3052,-2.2554,-2.1938,-2.1575,-2.1409,-2.1409,-2.1534,-2.1783,-2.2122,-2.2565,-2.3032,-2.3424,-2.3842,-2.4265,-2.4265,-2.4323,-2.4414,-2.4635,-2.5007,-2.5499,-2.5643,-2.5815,-2.5988,-2.5946,-2.5946,-2.603,-2.6426,-2.6644,-2.6697,-2.6771,-2.6869,-2.6925,-2.7164,-2.7417,-2.7676,-2.8134,-2.8653,-2.9184,-2.9662,-3.0047,-3.0434,-3.0866,-3.0984,-3.1062,-3.1261,-3.135,-3.1484,-3.1661,-3.2503,-3.3284,-3.3284,-3.4102,-3.4775,-3.4775,-3.4775,-3.4775,-3.4775,-3.4775,-3.4775,-3.4775,-3.4775,-3.4775,-3.4775,-3.4968,-3.5015,-3.5015,-3.5015,-3.4955,-3.4799,-3.5562,-3.6294,-3.7057,-3.7875,-3.8343,-3.8427,-3.8598,-3.8893,-3.927,-3.9206,-3.9154,-3.9154,-3.905,-3.8788,-3.8303,-3.8303,-3.8198,-1.9509,-1.9848,-2.0445,-2.1855,-2.2455,-2.311,-2.4568,-2.5451,-2.6058,-2.6374,-2.5689,-2.4943,-2.4692,-2.4189,-2.3881,-2.4108,-2.3866,-2.3782,-2.3997,-2.3708,-2.3487,-2.3487,-2.3471,-2.3329,-2.3015,-2.2596,-2.2097,-2.1583,-2.0997,-2.0682,-2.0603,-2.0524,-2.0564,-2.081,-2.1154,-2.1596,-2.2066,-2.261,-2.3058,-2.3485,-2.3556,-2.3697,-2.3929,-2.4511,-2.5015,-2.5464,-2.5678,-2.596,-2.6318,-2.6318,-2.6442,-2.6633,-2.6933,-2.6942,-2.684,-2.6759,-2.6662,-2.66,-2.6869,-2.708,-2.7231,-2.7755,-2.8276,-2.8742,-2.9228,-2.9604,-3.0027,-3.0551,-3.0691,-3.0736,-3.1095,-3.1184,-3.1273,-3.1629,-3.2379,-3.3032,-3.3236,-3.3933,-3.4534,-3.4739,-3.4775,-3.4775,-3.4775,-3.4775,-3.4775,-3.4775,-3.4775,-3.4775,-3.4775,-3.4775,-3.4775,-3.4775,-3.4775,-3.4775,-3.4775,-3.5611,-3.6443,-3.7207,-3.8064,-3.8827,-3.9285,-3.9206,-3.9362,-3.9788,-3.9775,-3.9826,-3.9917,-3.9724,-3.9349,-3.8856,-3.8554,-3.8303,-1.9828,-2.0047,-2.0486,-2.221,-2.2708,-2.3155,-2.4476,-2.4839,-2.4953,-2.5088,-2.4568,-2.4129,-2.4086,-2.3824,-2.3544,-2.3295,-2.3255,-2.3215,-2.3016,-2.2597,-2.2312,-2.2312,-2.1987,-2.1675,-2.1371,-2.1136,-2.0807,-2.0252,-1.9831,-1.9495,-1.933,-1.9122,-1.9085,-1.9268,-1.9495,-1.9965,-2.0669,-2.1255,-2.1825,-2.2366,-2.2571,-2.2673,-2.2753,-2.4097,-2.4763,-2.4877,-2.5463,-2.598,-2.6432,-2.6432,-2.6668,-2.7052,-2.7052,-2.6927,-2.6681,-2.6472,-2.6251,-2.602,-2.6311,-2.6467,-2.6582,-2.7013,-2.7506,-2.8,-2.8494,-2.901,-2.9527,-3.0009,-3.0181,-3.0352,-3.0883,-3.1029,-3.1151,-3.1572,-3.2094,-3.2635,-3.3116,-3.3621,-3.4066,-3.4546,-3.4679,-3.4715,-3.4715,-3.4751,-3.4775,-3.4775,-3.4775,-3.4775,-3.4775,-3.4775,-3.4775,-3.4775,-3.4775,-3.4775,-3.4775,-3.5722,-3.6604,-3.7232,-3.8254,-3.9209,-4.0096,-3.989,-3.9993,-4.0555,-4.0555,-4.0694,-4.0984,-4.0427,-4.0006,-3.9609,-3.8816,-3.8409,-1.9212,-1.9633,-2.0296,-2.1719,-2.2983,-2.3856,-2.374,-2.3546,-2.3697,-2.4875,-2.4304,-2.3457,-2.308,-2.2553,-2.203,-2.1617,-2.1527,-2.1517,-2.1491,-2.1528,-2.1532,-2.1532,-2.1701,-2.1768,-2.171,-2.135,-2.1104,-2.0963,-2.0502,-2.0181,-2.0135,-1.9955,-1.9785,-1.9677,-1.9769,-2.0057,-2.0548,-2.0928,-2.149,-2.2251,-2.24,-2.2537,-2.273,-2.3041,-2.3592,-2.4407,-2.5314,-2.5773,-2.5876,-2.5876,-2.5945,-2.6037,-2.6037,-2.598,-2.5915,-2.5876,-2.5846,-2.5754,-2.583,-2.6129,-2.6524,-2.6639,-2.6978,-2.7483,-2.7977,-2.8482,-2.8976,-2.9504,-3.0063,-3.0578,-3.0927,-3.1107,-3.1306,-3.1617,-3.2094,-3.2527,-3.2647,-3.308,-3.3489,-3.3597,-3.3945,-3.4162,-3.4162,-3.4498,-3.4775,-3.4775,-3.4775,-3.4775,-3.4775,-3.4775,-3.4775,-3.4775,-3.4775,-3.4775,-3.4775,-3.5175,-3.5942,-3.7132,-3.7892,-3.8918,-4.0351,-4.0134,-4.0389,-4.111,-4.111,-4.1261,-4.1547,-4.0984,-4.0478,-3.9955,-3.9089,-3.8579,-1.9,-1.9494,-2.0213,-2.1581,-2.2708,-2.3397,-2.3133,-2.2786,-2.2719,-2.3503,-2.3055,-2.2425,-2.2176,-2.188,-2.1596,-2.1298,-2.122,-2.1145,-2.0815,-2.066,-2.0502,-2.0276,-2.0435,-2.052,-2.0422,-2.0281,-2.0183,-2.0085,-1.9757,-1.9493,-1.9459,-1.926,-1.9037,-1.8802,-1.8822,-1.8946,-1.917,-1.9603,-2.0096,-2.066,-2.0875,-2.1192,-2.1617,-2.2352,-2.3006,-2.35,-2.4028,-2.4533,-2.4981,-2.4981,-2.5279,-2.5716,-2.5716,-2.5555,-2.5325,-2.5325,-2.5187,-2.5015,-2.5245,-2.5497,-2.5807,-2.6341,-2.6685,-2.7001,-2.7759,-2.8149,-2.8517,-2.9286,-2.9854,-3.0365,-3.0857,-3.1139,-3.135,-3.1617,-3.1934,-3.2178,-3.2442,-3.2719,-3.2984,-3.3236,-3.3501,-3.3681,-3.3681,-3.3909,-3.4174,-3.4366,-3.4402,-3.4498,-3.4751,-3.4775,-3.4823,-3.4981,-3.4981,-3.503,-3.5175,-3.5428,-3.6001,-3.6949,-3.7667,-3.8752,-4.0256,-4.0438,-4.0883,-4.1647,-4.1547,-4.171,-4.2105,-4.1298,-4.0681,-4.0287,-3.9258,-3.8684,-1.8967,-1.9576,-2.038,-2.1512,-2.2237,-2.2696,-2.257,-2.2207,-2.1845,-2.1789,-2.1605,-2.1417,-2.1399,-2.1437,-2.1406,-2.1272,-2.1227,-2.0983,-2.0378,-1.9933,-1.9522,-1.9091,-1.9133,-1.913,-1.898,-1.9078,-1.9108,-1.8999,-1.8789,-1.8637,-1.8536,-1.8323,-1.8119,-1.7822,-1.7791,-1.775,-1.7719,-1.8211,-1.8618,-1.8999,-1.9287,-1.9753,-2.0331,-2.1594,-2.2306,-2.2559,-2.2673,-2.3155,-2.3936,-2.3936,-2.4487,-2.5314,-2.5314,-2.5107,-2.4786,-2.4786,-2.4533,-2.4258,-2.4648,-2.4843,-2.5061,-2.5961,-2.6295,-2.6547,-2.7479,-2.7782,-2.8046,-2.8976,-2.9519,-2.9959,-3.0636,-3.1024,-3.135,-3.1572,-3.1673,-3.1837,-3.2262,-3.2358,-3.2478,-3.2923,-3.3092,-3.3176,-3.3272,-3.3284,-3.3428,-3.3802,-3.3862,-3.4054,-3.457,-3.4691,-3.4824,-3.5163,-3.532,-3.5452,-3.5704,-3.5991,-3.6405,-3.6894,-3.7737,-3.8785,-4.0115,-4.0785,-4.1484,-4.2275,-4.1931,-4.1993,-4.2449,-4.1348,-4.0694,-4.0389,-3.9258,-3.8631,-1.8787,-1.9936,-2.1072,-2.1247,-2.2006,-2.257,-2.21,-2.1436,-2.0801,-2.0511,-2.085,-2.1107,-2.0938,-2.0669,-2.0414,-2.0234,-2.0104,-1.9878,-1.9497,-1.9301,-1.9094,-1.8796,-1.9014,-1.919,-1.916,-1.9298,-1.9335,-1.9346,-1.9168,-1.9048,-1.9007,-1.8868,-1.8637,-1.8323,-1.815,-1.7986,-1.7883,-1.813,-1.8477,-1.8909,-1.941,-1.9693,-1.9792,-1.9998,-2.0802,-2.202,-2.249,-2.2788,-2.2914,-2.2914,-2.3224,-2.3705,-2.3705,-2.3935,-2.4292,-2.4292,-2.4246,-2.42,-2.4269,-2.4568,-2.4935,-2.5073,-2.5429,-2.5922,-2.6536,-2.6978,-2.7449,-2.8023,-2.8965,-2.9834,-2.9948,-3.0652,-3.1306,-3.135,-3.1528,-3.1729,-3.1801,-3.1825,-3.1837,-3.191,-3.2274,-3.2755,-3.3212,-3.3284,-3.3308,-3.338,-3.3392,-3.3573,-3.403,-3.4293,-3.4665,-3.5126,-3.5775,-3.6178,-3.6191,-3.6649,-3.7079,-3.7412,-3.8454,-3.9421,-4.0347,-4.1367,-4.2324,-4.3115,-4.2422,-4.2079,-4.2128,-4.1097,-4.044,-4.0134,-3.8985,-3.8409,-1.8759,-1.9378,-1.9994,-2.0293,-2.0602,-2.0791,-2.0543,-2.011,-1.9742,-1.9651,-1.9596,-1.9719,-2.0175,-2.0264,-2.0299,-2.0263,-1.9922,-1.9417,-1.8804,-1.8233,-1.7695,-1.7241,-1.7384,-1.7532,-1.7532,-1.7711,-1.7836,-1.7836,-1.7766,-1.7809,-1.8008,-1.7975,-1.7807,-1.7457,-1.7372,-1.7119,-1.6682,-1.7129,-1.7674,-1.8339,-1.8646,-1.8977,-1.9241,-1.9241,-1.9918,-2.1057,-2.1319,-2.1797,-2.2427,-2.2427,-2.2761,-2.3317,-2.363,-2.3816,-2.3953,-2.4241,-2.4309,-2.42,-2.42,-2.4253,-2.4408,-2.4682,-2.4858,-2.5161,-2.6063,-2.6502,-2.6845,-2.7759,-2.8457,-2.909,-2.966,-3.025,-3.0761,-3.1069,-3.1229,-3.133,-3.1439,-3.1572,-3.1705,-3.1705,-3.191,-3.2106,-3.2379,-3.2415,-3.2536,-3.2803,-3.2851,-3.3032,-3.3549,-3.3796,-3.4161,-3.4627,-3.5506,-3.624,-3.6667,-3.7318,-3.7821,-3.8069,-3.8864,-3.9593,-4.0248,-4.1187,-4.1889,-4.2447,-4.2231,-4.2079,-4.2079,-4.1047,-4.03,-3.9839,-3.9206,-3.8788,-1.8542,-1.8748,-1.8943,-1.9303,-1.9367,-1.9346,-1.9346,-1.9078,-1.884,-1.9029,-1.8625,-1.8493,-1.9442,-1.9797,-2.0005,-2.0164,-1.9679,-1.9045,-1.8204,-1.7427,-1.6714,-1.6165,-1.6196,-1.6247,-1.6247,-1.6448,-1.6598,-1.6598,-1.6598,-1.672,-1.7031,-1.7053,-1.6912,-1.6639,-1.6628,-1.6384,-1.584,-1.6347,-1.699,-1.7716,-1.7863,-1.818,-1.8701,-1.8701,-1.9183,-2.0033,-2.0171,-2.0826,-2.1806,-2.1806,-2.2276,-2.3017,-2.3404,-2.3501,-2.3561,-2.4035,-2.4077,-2.3944,-2.4082,-2.397,-2.3807,-2.4216,-2.4217,-2.4272,-2.5329,-2.5808,-2.6132,-2.7222,-2.7895,-2.8379,-2.9144,-2.9619,-3.0071,-3.0554,-3.0728,-3.0897,-3.1238,-3.1528,-3.1705,-3.1705,-3.1705,-3.1705,-3.1705,-3.1705,-3.1849,-3.2226,-3.2286,-3.2524,-3.3112,-3.3344,-3.3747,-3.4338,-3.5431,-3.6353,-3.7043,-3.787,-3.8459,-3.8702,-3.9323,-3.9946,-4.0458,-4.1187,-4.1745,-4.206,-4.1998,-4.1838,-4.1754,-4.0818,-4.0147,-3.9581,-3.9322,-3.905,-1.797,-1.8306,-1.8691,-1.8599,-1.8902,-1.922,-1.922,-1.8703,-1.834,-1.8668,-1.8216,-1.7993,-1.8884,-1.9071,-1.9113,-1.9246,-1.9033,-1.8536,-1.7654,-1.7227,-1.6832,-1.6432,-1.6398,-1.6375,-1.6375,-1.6512,-1.6598,-1.6598,-1.6598,-1.661,-1.6644,-1.6644,-1.6558,-1.642,-1.642,-1.6345,-1.6182,-1.6334,-1.6681,-1.7228,-1.7375,-1.7679,-1.8157,-1.8157,-1.8444,-1.9,-1.9516,-2.0141,-2.078,-2.078,-2.1455,-2.2421,-2.2325,-2.2561,-2.2992,-2.3317,-2.3336,-2.3227,-2.3738,-2.3677,-2.3335,-2.3368,-2.322,-2.3207,-2.3977,-2.4658,-2.5307,-2.6064,-2.7108,-2.8031,-2.8088,-2.8626,-2.9296,-2.9741,-3.0077,-3.0425,-3.1155,-3.1528,-3.1705,-3.1705,-3.1705,-3.1705,-3.1705,-3.1705,-3.1717,-3.1753,-3.1753,-3.199,-3.2713,-3.3057,-3.3612,-3.4573,-3.5852,-3.6876,-3.7342,-3.8305,-3.8966,-3.9247,-4.0055,-4.0756,-4.1218,-4.2013,-4.2573,-4.2855,-4.1906,-4.1234,-4.079,-4.031,-3.9826,-3.931,-3.8998,-3.8841,-1.7936,-1.8045,-1.8153,-1.8025,-1.7824,-1.764,-1.7545,-1.7087,-1.6708,-1.6868,-1.6803,-1.6956,-1.7713,-1.8202,-1.8652,-1.9119,-1.8465,-1.7727,-1.7248,-1.656,-1.5975,-1.5612,-1.5506,-1.5436,-1.5436,-1.5553,-1.5647,-1.5647,-1.5647,-1.5784,-1.6117,-1.614,-1.614,-1.608,-1.608,-1.6055,-1.602,-1.6057,-1.6344,-1.6834,-1.7194,-1.7499,-1.7656,-1.7962,-1.8215,-1.8398,-1.8593,-1.9304,-2.0328,-2.0698,-2.1214,-2.1813,-2.232,-2.2556,-2.2603,-2.3004,-2.3121,-2.3112,-2.3174,-2.308,-2.2889,-2.2777,-2.2515,-2.2374,-2.3263,-2.3983,-2.47,-2.5516,-2.652,-2.7357,-2.7664,-2.8061,-2.8587,-2.9418,-2.9778,-3.0127,-3.0742,-3.1172,-3.1484,-3.1673,-3.1705,-3.1705,-3.1705,-3.1705,-3.1705,-3.1705,-3.1705,-3.1821,-3.2249,-3.2626,-3.3127,-3.3808,-3.4897,-3.6,-3.7006,-3.7714,-3.8505,-3.9414,-3.9792,-4.0195,-4.0705,-4.1119,-4.1318,-4.1303,-4.0987,-4.0881,-4.0931,-4.016,-3.9728,-3.953,-3.9426,-3.9374,-1.7963,0.0,0.0,-1.7378,-1.6992,-1.6636,-1.6403,-1.6081,-1.5877,-1.5917,-1.612,-1.6448,-1.7069,-1.7433,-1.7885,-1.8646,-1.8048,-1.738,-1.7023,-1.6264,-1.5635,-1.5345,-1.5096,-1.496,-1.496,-1.5062,-1.5108,-1.5108,-1.5108,-1.5269,-1.5613,-1.5636,-1.5636,-1.5636,-1.5636,-1.5624,-1.5625,-1.5625,-1.5889,-1.6371,-1.6727,-1.6968,-1.7077,-1.7394,-1.7592,-1.7725,-1.779,-1.8543,-1.979,-2.0159,-2.0701,-2.1374,-2.1913,-2.2123,-2.2218,-2.2581,-2.2605,-2.244,-2.2553,-2.2368,-2.204,-2.201,-2.1721,-2.1553,-2.2314,-2.3034,-2.3816,-2.4792,-2.5802,-2.6673,-2.7243,-2.7672,-2.8149,-2.8827,-2.9371,-2.9827,-3.0241,-3.0775,-3.1273,-3.1528,-3.1572,-3.1572,-3.1661,-3.1705,-3.1705,-3.1705,-3.1705,-3.1805,-3.2081,-3.2494,-3.297,-3.3428,-3.4367,-3.5366,-3.6388,-3.7012,-3.7847,-3.9046,-3.922,-3.9543,-4.0097,-4.0257,-4.0257,-4.014,-3.9939,-3.997,-4.0301,-3.9822,-3.9524,-3.9421,-3.9609,-3.9697,0.0,0.0,0.0,0.0,-1.6492,-1.6361,-1.5887,-1.5884,-1.5963,-1.5963,-1.6165,-1.6491,-1.6947,-1.68,-1.6848,-1.7727,-1.7762,-1.7503,-1.6987,-1.6392,-1.5935,-1.5738,-1.5345,-1.5108,-1.5108,-1.5108,-1.5108,-1.5108,-1.5108,-1.5108,-1.5108,-1.5108,-1.5108,-1.5108,-1.5108,-1.5108,-1.5108,-1.5108,-1.5349,-1.589,-1.5889,-1.608,-1.6378,-1.64,-1.6596,-1.7002,-1.713,-1.789,-1.9053,-1.9088,-1.9923,-2.1123,-2.0966,-2.1205,-2.1702,-2.2057,-2.1706,-2.1195,-2.1912,-2.1549,-2.0825,-2.1082,-2.0915,-2.0644,-2.1051,-2.1808,-2.271,-2.3845,-2.497,-2.6021,-2.6703,-2.7409,-2.7966,-2.7977,-2.8735,-2.9502,-2.9723,-3.0407,-3.1005,-3.1261,-3.1306,-3.1395,-3.1661,-3.1705,-3.1705,-3.1705,-3.1705,-3.1893,-3.2344,-3.2754,-3.3159,-3.3628,-3.441,-3.5106,-3.5636,-3.6302,-3.7079,-3.8082,-3.8408,-3.8845,-3.9516,-3.956,-3.956,-3.956,-3.8836,-3.8542,-3.8637,-3.9252,-3.9321,-3.8881,-3.9433,-3.9697,-1.7201,0.0,0.0,0.0,0.0,0.0,-1.5494,-1.5319,-1.517,-1.5015,-1.5251,-1.5533,-1.5765,-1.5832,-1.6096,-1.6791,-1.7063,-1.7098,-1.6808,-1.6534,-1.6197,-1.576,-1.5435,-1.521,-1.5108,-1.5108,-1.5108,-1.5108,-1.5108,-1.5108,-1.5108,-1.5108,-1.5108,-1.5108,-1.5108,-1.5108,-1.5108,-1.5108,-1.5177,-1.5326,-1.5716,-1.5897,-1.5901,-1.6253,-1.6429,-1.6522,-1.6882,-1.7304,-1.7809,-1.8714,-1.9427,-1.9963,-2.0515,-2.0841,-2.1008,-2.1351,-2.1334,-2.1107,-2.0997,-2.0806,-2.0551,-2.0333,-2.0197,-2.0177,-2.0644,-2.137,-2.2215,-2.299,-2.4111,-2.5357,-2.6342,-2.7018,-2.7529,-2.7897,-2.8195,-2.864,-2.942,-2.9785,-3.0171,-3.0946,-3.1184,-3.1306,-3.1395,-3.1572,-3.1705,-3.1705,-3.1705,-3.1893,-3.2344,-3.2754,-3.3116,-3.3428,-3.4208,-3.4815,-3.5175,-3.558,-3.6184,-3.7057,-3.7188,-3.7546,-3.8264,-3.831,-3.84,-3.8594,-3.8219,-3.7841,-3.7526,-3.8334,-3.8816,-3.8881,-3.9433,-3.9697,0.0,0.0,0.0,0.0,0.0,0.0,-1.5354,-1.5245,-1.5142,-1.4937,-1.5097,-1.5266,-1.5233,-1.5356,-1.5625,-1.6054,-1.6436,-1.6684,-1.6782,-1.6565,-1.625,-1.5792,-1.5492,-1.5244,-1.5108,-1.5108,-1.5108,-1.5108,-1.5108,-1.5108,-1.5108,-1.5108,-1.5108,-1.5108,-1.5108,-1.5108,-1.5108,-1.5108,-1.5108,-1.5085,-1.5429,-1.5485,-1.5331,-1.5602,-1.5753,-1.5831,-1.6221,-1.6669,-1.7176,-1.7997,-1.8656,-1.9244,-1.9899,-2.0319,-2.0634,-2.0943,-2.0955,-2.0776,-2.0493,-2.0229,-2.0038,-2.0029,-1.9974,-2.0014,-2.0546,-2.1211,-2.1881,-2.2702,-2.4096,-2.552,-2.6302,-2.6852,-2.7259,-2.7598,-2.7828,-2.8195,-2.8987,-2.9343,-2.9775,-3.0643,-3.1005,-3.1184,-3.1306,-3.1528,-3.1705,-3.1705,-3.1705,-3.1893,-3.2344,-3.2754,-3.3086,-3.3356,-3.4035,-3.4508,-3.4695,-3.5044,-3.55,-3.6225,-3.6345,-3.6662,-3.7176,-3.7315,-3.7407,-3.7546,-3.7407,-3.7291,-3.7124,-3.7749,-3.8211,-3.853,-3.9082,-3.9346,0.0,0.0,0.0,0.0,-1.5892,0.0,-1.545,-1.5525,-1.5591,-1.5402,-1.5458,-1.5446,-1.5198,-1.521,-1.5345,-1.5546,-1.5891,-1.6297,-1.6748,-1.6531,-1.6173,-1.5836,-1.5503,-1.5255,-1.5108,-1.5108,-1.5108,-1.5108,-1.5108,-1.5108,-1.5108,-1.5108,-1.5108,-1.5108,-1.5108,-1.5108,-1.5108,-1.5108,-1.5108,-1.5108,-1.5108,-1.5006,-1.4799,-1.4799,-1.4894,-1.5077,-1.5363,-1.6011,-1.6856,-1.7085,-1.782,-1.8834,-1.922,-1.9738,-2.0327,-2.0762,-2.0679,-2.0401,-2.0275,-1.9902,-1.9569,-2.0079,-2.0118,-2.0141,-2.0804,-2.13,-2.1814,-2.2875,-2.4486,-2.6041,-2.6319,-2.676,-2.7121,-2.7179,-2.7575,-2.8023,-2.8517,-2.8987,-2.9558,-3.0266,-3.0699,-3.1017,-3.1229,-3.1484,-3.1673,-3.1705,-3.1705,-3.1849,-3.23,-3.2711,-3.3,-3.327,-3.3806,-3.4142,-3.421,-3.4536,-3.4948,-3.5488,-3.574,-3.5966,-3.6263,-3.6487,-3.6581,-3.6628,-3.6675,-3.6821,-3.7098,-3.7402,-3.7718,-3.8015,-3.853,-3.8856,0.0,0.0,0.0,0.0,-1.5824,0.0,-1.5727,-1.5824,-1.5891,-1.5726,-1.5726,-1.5681,-1.5468,-1.5266,-1.5221,-1.5491,-1.5635,-1.5869,-1.6275,-1.6315,-1.6151,-1.577,-1.557,-1.5356,-1.5131,-1.5108,-1.5108,-1.5108,-1.5108,-1.5108,-1.5108,-1.5108,-1.5108,-1.5108,-1.5108,-1.5153,-1.5267,-1.5267,-1.5267,-1.5267,-1.5267,-1.5142,-1.4869,-1.4869,-1.4868,-1.4874,-1.5314,-1.5678,-1.6024,-1.6676,-1.7393,-1.8163,-1.8949,-1.9384,-1.9685,-2.0563,-2.0775,-2.0529,-2.0412,-2.0234,-2.0072,-2.0272,-2.0549,-2.0879,-2.1442,-2.1901,-2.2386,-2.326,-2.4202,-2.5097,-2.5711,-2.6232,-2.6714,-2.7087,-2.7259,-2.7518,-2.8012,-2.8207,-2.8468,-2.8994,-2.992,-3.0769,-3.1017,-3.1229,-3.1439,-3.1661,-3.1705,-3.1805,-3.2038,-3.2344,-3.2562,-3.2605,-3.3208,-3.3665,-3.372,-3.421,-3.4604,-3.4945,-3.5017,-3.5163,-3.5404,-3.5704,-3.5895,-3.6146,-3.637,-3.6502,-3.6568,-3.7021,-3.7524,-3.8002,-3.8115,-3.8529,0.0,0.0,0.0,-1.6175,-1.611,0.0,0.0,-1.6175,-1.6219,-1.611,-1.5979,-1.5824,-1.5591,-1.5356,-1.5233,-1.5368,-1.5513,-1.568,-1.5915,-1.611,-1.611,-1.5738,-1.5637,-1.5503,-1.5233,-1.5266,-1.5266,-1.521,-1.5131,-1.5131,-1.521,-1.521,-1.5233,-1.5311,-1.5311,-1.5334,-1.539,-1.539,-1.539,-1.539,-1.5335,-1.5187,-1.5006,-1.4926,-1.4857,-1.4811,-1.5082,-1.54,-1.5754,-1.6404,-1.7002,-1.7621,-1.84,-1.8966,-1.9388,-2.0039,-2.0561,-2.086,-2.0592,-2.0532,-2.0588,-2.0775,-2.1156,-2.1629,-2.2039,-2.2546,-2.3113,-2.3593,-2.4249,-2.4937,-2.5539,-2.6094,-2.6639,-2.7105,-2.719,-2.7369,-2.7874,-2.7977,-2.8126,-2.8609,-2.9201,-2.9778,-3.0141,-3.0415,-3.0632,-3.0879,-3.1151,-3.1351,-3.1569,-3.1942,-3.2257,-3.24,-3.2867,-3.3163,-3.3205,-3.3819,-3.4257,-3.4366,-3.4631,-3.4872,-3.4969,-3.5368,-3.5812,-3.6193,-3.6193,-3.6193,-3.6193,-3.6468,-3.6826,-3.7199,-3.7475,-3.8049,0.0,0.0,0.0,0.0,0.0,-1.6565,0.0,0.0,0.0,-1.6436,-1.6241,-1.5988,-1.5746,-1.5547,-1.539,-1.5435,-1.558,-1.5702,-1.5814,-1.6057,-1.6078,-1.5703,-1.5693,-1.5582,-1.5335,-1.5413,-1.5446,-1.5345,-1.5255,-1.5221,-1.5323,-1.5345,-1.539,-1.5491,-1.5491,-1.5513,-1.5536,-1.5536,-1.5536,-1.5536,-1.5435,-1.5278,-1.5131,-1.504,-1.4926,-1.4868,-1.4926,-1.5176,-1.5643,-1.6198,-1.6687,-1.7123,-1.793,-1.8599,-1.9201,-1.9664,-2.0384,-2.1126,-2.0901,-2.0935,-2.1111,-2.136,-2.1902,-2.2465,-2.2818,-2.3315,-2.3824,-2.397,-2.4365,-2.49,-2.5417,-2.5934,-2.649,-2.6967,-2.7121,-2.7305,-2.7748,-2.7839,-2.7954,-2.8344,-2.8413,-2.8599,-2.9277,-2.9591,-2.9814,-3.0044,-3.0585,-3.0953,-3.1113,-3.1598,-3.2038,-3.2257,-3.2471,-3.2629,-3.2738,-3.3437,-3.3886,-3.3982,-3.4486,-3.4775,-3.4775,-3.532,-3.5847,-3.6405,-3.6146,-3.6015,-3.6015,-3.6015,-3.6098,-3.6323,-3.6822,-3.7581,0.0,0.0,0.0,0.0,-1.7031,-1.6897,-1.6718,0.0,-1.6654,-1.65,0.0,-1.6318,-1.6166,0.0,0.0,-1.5913,-1.5944,-1.6032,-1.6216,-1.6315,-1.6154,-1.558,-1.5614,-1.5582,-1.5335,-1.5413,-1.5491,-1.5468,-1.5468,-1.5468,-1.5468,-1.5468,-1.5468,-1.5491,-1.5491,-1.5558,-1.5693,-1.5693,-1.5693,-1.5693,-1.5671,-1.5514,-1.5289,-1.5267,-1.5187,-1.5062,-1.5062,-1.512,-1.5246,-1.6184,-1.6546,-1.6613,-1.7885,-1.8605,-1.9046,-1.9965,-2.0588,-2.1009,-2.1428,-2.1604,-2.1654,-2.1906,-2.2694,-2.363,-2.4329,-2.4491,-2.4418,-2.4418,-2.4344,-2.4395,-2.4877,-2.5406,-2.5922,-2.6467,-2.6898,-2.7201,-2.7259,-2.727,-2.7293,-2.7339,-2.7362,-2.7803,-2.9148,-2.944,-2.9567,-3.0044,-3.0585,-3.0922,-3.091,-3.138,-3.1761,-3.1761,-3.1809,-3.2006,-3.25,-3.3032,-3.3573,-3.3958,-3.4486,-3.4775,-3.4775,-3.532,-3.5847,-3.6405,-3.6146,-3.6015,-3.6015,-3.6015,-3.6015,-3.6063,-3.6338,-3.7298,0.0,0.0,0.0,0.0,0.0,0.0,-1.6926,0.0,-1.6654,0.0,0.0,0.0,0.0,0.0,0.0,0.0,-1.5991,-1.5955,-1.6352,-1.6169,-1.5947,-1.581,-1.6123,-1.6271,-1.6065,-1.5792,-1.5614,-1.5614,-1.5536,-1.5536,-1.5614,-1.5614,-1.5637,-1.5681,-1.5669,-1.5703,-1.5748,-1.5748,-1.5748,-1.5748,-1.5715,-1.5592,-1.5413,-1.5345,-1.5233,-1.5108,-1.5108,-1.5108,-1.5188,-1.6271,-1.6675,-1.6752,-1.8036,-1.8677,-1.9005,-1.98,-2.0491,-2.1091,-2.1623,-2.1874,-2.2063,-2.2479,-2.3044,-2.3718,-2.4306,-2.4578,-2.4682,-2.4682,-2.461,-2.4642,-2.4983,-2.5466,-2.5997,-2.6386,-2.6852,-2.719,-2.719,-2.719,-2.719,-2.719,-2.7301,-2.7632,-2.8404,-2.8516,-2.8692,-2.909,-2.9881,-3.0422,-3.0422,-3.1187,-3.1705,-3.1705,-3.1705,-3.1801,-3.1997,-3.2515,-3.3056,-3.3573,-3.4366,-3.4884,-3.503,-3.5271,-3.556,-3.5943,-3.5656,-3.5524,-3.5524,-3.5668,-3.5764,-3.5764,-3.6181,-3.72,-1.7331,0.0,0.0,0.0,0.0,0.0,0.0,0.0,0.0,0.0,0.0,0.0,0.0,0.0,0.0,0.0,0.0,-1.5976,-1.6553,-1.6107,-1.579,-1.5971,-1.6296,-1.6531,-1.6583,-1.6059,-1.5738,-1.5738,-1.5614,-1.5592,-1.5693,-1.5693,-1.5715,-1.577,-1.5792,-1.5792,-1.5792,-1.5792,-1.5792,-1.5792,-1.576,-1.5637,-1.5491,-1.539,-1.5255,-1.5119,-1.5269,-1.5349,-1.5464,-1.6553,-1.7045,-1.7177,-1.8245,-1.874,-1.8967,-1.9744,-2.0429,-2.1063,-2.173,-2.2092,-2.2282,-2.2843,-2.3263,-2.369,-2.4203,-2.4601,-2.4897,-2.4897,-2.4825,-2.4836,-2.5042,-2.5483,-2.598,-2.6364,-2.6805,-2.7221,-2.736,-2.7394,-2.7394,-2.7394,-2.7505,-2.7696,-2.795,-2.8002,-2.8111,-2.8431,-2.9412,-3.0086,-3.0086,-3.1055,-3.1705,-3.1705,-3.1705,-3.1705,-3.1705,-3.2178,-3.2779,-3.3452,-3.433,-3.4932,-3.5175,-3.5223,-3.5332,-3.5572,-3.532,-3.5223,-3.5223,-3.5416,-3.5524,-3.562,-3.6133,-3.7104,0.0,0.0,0.0,-1.7701,0.0,0.0,0.0,0.0,-1.7259,0.0,0.0,0.0,0.0,0.0,0.0,0.0,0.0,0.0,0.0,-1.6293,-1.5853,-1.5971,-1.5848,-1.5952,-1.6547,-1.6104,-1.5792,-1.5792,-1.5738,-1.5693,-1.5693,-1.5693,-1.5693,-1.5693,-1.577,-1.5792,-1.5792,-1.5792,-1.5792,-1.5792,-1.5792,-1.5691,-1.5491,-1.5491,-1.5356,-1.5142,-1.5659,-1.5948,-1.6149,-1.7159,-1.7655,-1.7845,-1.8531,-1.881,-1.8925,-1.9975,-2.0495,-2.0762,-2.1825,-2.2185,-2.2282,-2.2843,-2.3372,-2.3902,-2.4362,-2.4764,-2.5087,-2.5087,-2.4957,-2.4801,-2.4813,-2.5153,-2.5646,-2.6162,-2.6702,-2.7242,-2.7787,-2.7893,-2.7893,-2.7893,-2.7881,-2.7962,-2.8179,-2.8179,-2.8259,-2.8471,-2.9412,-3.0086,-3.0086,-3.1055,-3.1705,-3.1705,-3.1705,-3.1705,-3.1705,-3.2178,-3.2935,-3.3898,-3.4486,-3.4932,-3.5175,-3.5223,-3.5332,-3.5572,-3.532,-3.5223,-3.5223,-3.5223,-3.5368,-3.562,-3.6133,-3.7104,0.0,0.0,-1.832,-1.8107,0.0,0.0,0.0,0.0,0.0,0.0,0.0,0.0,0.0,0.0,0.0,0.0,0.0,0.0,0.0,-1.5752,-1.5502,-1.612,-1.5838,-1.5805,-1.6338,-1.5923,-1.5603,-1.5603,-1.558,-1.557,-1.557,-1.557,-1.557,-1.557,-1.558,-1.5603,-1.5603,-1.5603,-1.5603,-1.5603,-1.5603,-1.5513,-1.5368,-1.5368,-1.5278,-1.5142,-1.567,-1.5936,-1.6065,-1.7235,-1.777,-1.7869,-1.8728,-1.9011,-1.903,-1.9737,-2.0269,-2.0737,-2.1825,-2.2197,-2.2221,-2.2402,-2.2811,-2.3372,-2.3902,-2.4352,-2.4763,-2.5145,-2.5182,-2.5111,-2.5016,-2.5336,-2.582,-2.6214,-2.6717,-2.7258,-2.7775,-2.7893,-2.7893,-2.7893,-2.8002,-2.8099,-2.8179,-2.8299,-2.8431,-2.8471,-2.9412,-3.0086,-3.0086,-3.1055,-3.1705,-3.1705,-3.1705,-3.1705,-3.1705,-3.2503,-3.3308,-3.3946,-3.4486,-3.4823,-3.492,-3.4932,-3.4981,-3.5078,-3.4969,-3.4932,-3.4932,-3.5126,-3.532,-3.562,-3.5955,-3.6676,-1.6383,-1.716,0.0,-1.7764,-1.8132,0.0,-1.8176,0.0,-1.7928,0.0,0.0,0.0,0.0,0.0,0.0,0.0,0.0,0.0,0.0,-1.5482,-1.5352,-1.5811,-1.5612,-1.5635,-1.6185,-1.5621,-1.5291,-1.5501,-1.5292,-1.5224,-1.5424,-1.5435,-1.5435,-1.5435,-1.5468,-1.5491,-1.5491,-1.5491,-1.5491,-1.5491,-1.5491,-1.5435,-1.5312,-1.5312,-1.5233,-1.5142,-1.583,-1.6165,-1.6331,-1.7555,-1.8118,-1.8206,-1.8867,-1.9078,-1.9086,-1.9655,-2.029,-2.0995,-2.168,-2.2041,-2.2197,-2.2197,-2.2546,-2.3071,-2.3421,-2.3977,-2.4556,-2.4927,-2.5168,-2.5276,-2.5182,-2.5397,-2.5719,-2.6119,-2.6626,-2.7171,-2.7692,-2.7992,-2.8122,-2.8122,-2.8231,-2.8299,-2.8299,-2.8431,-2.851,-2.851,-2.9412,-3.0086,-3.0086,-3.1055,-3.1705,-3.1705,-3.1705,-3.1789,-3.1994,-3.2779,-3.3501,-3.3958,-3.4486,-3.4775,-3.4775,-3.4775,-3.4775,-3.4775,-3.4775,-3.4775,-3.4775,-3.4981,-3.5223,-3.5464,-3.5716,-3.6189]},{"header":{"parameterUnit":"m.s-1","parameterCategory":1,"la1":30.6,"la2":29.2853,"lo1":-89.7004,"lo2":-87.6739,"dy":0.0162,"dx":0.0183,"nx":112,"ny":82,"refTime":"2023-09-02T00:00:00:Z","depth":0,"parameterNumber":3,"parameterNumberName":"V-component_of_WINDS"},"data":[0.0,0.0,0.0,0.0,0.0,0.0,0.0,0.0,0.0,0.0,0.0,0.0,0.0,0.0,0.0,0.0,0.0,0.0,0.0,0.0,0.0,0.0,0.0,0.0,0.0,0.0,0.0,0.0,0.0,0.0,0.0,0.0,0.0,0.0,0.0,0.0,0.0,0.0,0.0,0.0,0.0,0.0,0.0,0.0,0.0,0.0,0.0,0.0,0.0,0.0,0.0,0.0,0.0,0.0,0.0,0.0,0.0,0.0,0.0,0.0,0.0,0.0,0.0,0.0,0.0,0.0,0.0,0.0,0.0,0.0,0.0,0.0,0.0,0.0,0.0,0.0,0.0,0.0,0.0,0.0,0.0,0.0,0.0,0.0,0.0,0.0,0.0,0.0,0.0,0.0,3.4741,3.7569,4.0651,4.2291,4.1632,4.0232,3.8347,3.5818,0.0,0.0,0.0,0.0,0.0,0.0,0.0,0.0,0.0,0.0,0.0,0.0,0.0,0.0,0.0,0.0,0.0,0.0,0.0,0.0,0.0,0.0,0.0,0.0,0.0,0.0,0.0,0.0,0.0,0.0,0.0,0.0,0.0,0.0,0.0,0.0,0.0,0.0,0.0,0.0,0.0,0.0,0.0,0.0,0.0,0.0,0.0,0.0,0.0,0.0,0.0,0.0,0.0,0.0,0.0,0.0,0.0,0.0,0.0,0.0,0.0,0.0,0.0,0.0,0.0,0.0,0.0,0.0,0.0,0.0,0.0,0.0,0.0,0.0,0.0,0.0,0.0,0.0,0.0,0.0,0.0,0.0,0.0,0.0,0.0,0.0,0.0,0.0,0.0,0.0,0.0,0.0,0.0,0.0,0.0,0.0,0.0,0.0,0.0,0.0,0.0,0.0,0.0,0.0,3.5774,3.9544,4.1893,4.291,4.2306,4.0502,3.8542,3.6477,0.0,0.0,0.0,0.0,0.0,0.0,0.0,0.0,0.0,0.0,0.0,0.0,0.0,0.0,0.0,0.0,0.0,0.0,0.0,0.0,0.0,0.0,0.0,0.0,0.0,0.0,0.0,0.0,0.0,0.0,0.0,0.0,0.0,0.0,0.0,0.0,0.0,0.0,0.0,0.0,0.0,0.0,0.0,0.0,0.0,0.0,0.0,0.0,0.0,0.0,0.0,0.0,0.0,0.0,0.0,0.0,0.0,0.0,0.0,0.0,0.0,0.0,0.0,0.0,0.0,0.0,0.0,0.0,0.0,0.0,0.0,0.0,0.0,0.0,0.0,0.0,0.0,0.0,0.0,0.0,0.0,0.0,0.0,0.0,0.0,0.0,0.0,0.0,0.0,0.0,0.0,0.0,0.0,0.0,0.0,0.0,0.0,0.0,0.0,0.0,0.0,0.0,0.0,3.5956,3.8257,4.1145,4.2267,4.2536,4.1916,4.0008,3.8033,3.6073,3.314,0.0,0.0,0.0,0.0,0.0,0.0,0.0,0.0,0.0,0.0,0.0,0.0,0.0,0.0,0.0,0.0,0.0,0.0,0.0,0.0,0.0,0.0,0.0,0.0,0.0,0.0,0.0,0.0,0.0,0.0,0.0,0.0,0.0,0.0,0.0,0.0,0.0,0.0,0.0,0.0,0.0,0.0,0.0,0.0,0.0,0.0,0.0,0.0,0.0,0.0,0.0,0.0,0.0,0.0,0.0,0.0,0.0,0.0,0.0,0.0,0.0,0.0,0.0,0.0,0.0,0.0,0.0,0.0,0.0,0.0,0.0,0.0,0.0,0.0,0.0,0.0,0.0,0.0,0.0,0.0,0.0,0.0,0.0,0.0,0.0,0.0,0.0,0.0,0.0,0.0,0.0,0.0,0.0,0.0,0.0,0.0,0.0,0.0,0.0,0.0,0.0,0.0,3.8108,4.0113,4.1976,4.2306,4.2066,4.122,3.9305,3.727,3.516,3.2647,0.0,0.0,0.0,0.0,0.0,0.0,0.0,0.0,0.0,0.0,0.0,0.0,0.0,0.0,0.0,0.0,0.0,0.0,0.0,0.0,0.0,0.0,0.0,0.0,0.0,0.0,0.0,0.0,0.0,0.0,0.0,0.0,0.0,0.0,0.0,0.0,0.0,0.0,0.0,0.0,0.0,0.0,0.0,0.0,0.0,0.0,0.0,0.0,0.0,0.0,0.0,0.0,0.0,0.0,0.0,0.0,0.0,0.0,0.0,0.0,0.0,0.0,0.0,0.0,0.0,0.0,0.0,0.0,0.0,0.0,0.0,0.0,0.0,0.0,0.0,0.0,0.0,0.0,0.0,0.0,0.0,0.0,0.0,0.0,0.0,0.0,0.0,0.0,0.0,0.0,0.0,0.0,0.0,0.0,0.0,0.0,0.0,0.0,0.0,0.0,0.0,0.0,3.7823,3.9948,4.1309,4.2036,4.1886,4.0576,3.8631,3.6372,3.3799,3.1704,0.0,0.0,0.0,0.0,0.0,0.0,0.0,0.0,0.0,0.0,0.0,0.0,0.0,0.0,0.0,0.0,0.0,0.0,0.0,0.0,0.0,0.0,0.0,0.0,0.0,0.0,0.0,0.0,0.0,0.0,0.0,0.0,0.0,0.0,0.0,0.0,0.0,0.0,0.0,0.0,0.0,0.0,0.0,0.0,0.0,0.0,0.0,0.0,0.0,0.0,0.0,0.0,0.0,0.0,0.0,0.0,0.0,0.0,0.0,0.0,0.0,0.0,0.0,0.0,0.0,0.0,0.0,0.0,0.0,0.0,0.0,0.0,0.0,0.0,0.0,0.0,0.0,0.0,0.0,0.0,0.0,0.0,0.0,0.0,0.0,0.0,0.0,0.0,0.0,0.0,0.0,0.0,0.0,0.0,0.0,0.0,0.0,0.0,0.0,0.0,0.0,0.0,3.8048,4.0083,4.1856,4.1886,4.146,4.0604,3.8337,3.6045,3.3879,0.0,0.0,0.0,0.0,0.0,0.0,0.0,0.0,0.0,0.0,0.0,0.0,0.0,0.0,0.0,0.0,0.0,0.0,0.0,0.0,0.0,0.0,0.0,0.0,0.0,0.0,0.0,0.0,0.0,0.0,0.0,0.0,0.0,0.0,0.0,0.0,0.0,0.0,0.0,0.0,0.0,0.0,0.0,0.0,0.0,0.0,0.0,0.0,0.0,0.0,0.0,0.0,0.0,0.0,0.0,0.0,0.0,0.0,0.0,0.0,0.0,0.0,0.0,0.0,0.0,0.0,0.0,0.0,0.0,0.0,0.0,0.0,0.0,0.0,0.0,0.0,0.0,0.0,0.0,0.0,0.0,0.0,0.0,0.0,0.0,0.0,0.0,0.0,0.0,0.0,0.0,0.0,0.0,0.0,0.0,0.0,0.0,0.0,0.0,0.0,0.0,0.0,3.5971,3.7883,3.9768,4.1587,4.1377,4.0785,4.0046,3.7779,3.5584,3.3727,0.0,0.0,0.0,0.0,0.0,0.0,0.0,0.0,0.0,0.0,0.0,0.0,0.0,0.0,0.0,0.0,0.0,0.0,0.0,0.0,0.0,0.0,0.0,0.0,0.0,0.0,0.0,0.0,0.0,0.0,0.0,0.0,0.0,0.0,0.0,0.0,0.0,0.0,0.0,0.0,0.0,0.0,0.0,0.0,0.0,0.0,0.0,0.0,0.0,0.0,0.0,0.0,0.0,0.0,0.0,0.0,0.0,0.0,0.0,0.0,0.0,0.0,0.0,0.0,0.0,0.0,0.0,0.0,0.0,0.0,0.0,0.0,0.0,0.0,0.0,0.0,0.0,0.0,0.0,0.0,0.0,0.0,0.0,0.0,0.0,0.0,0.0,0.0,0.0,0.0,0.0,0.0,0.0,0.0,0.0,0.0,0.0,0.0,0.0,0.0,0.0,0.0,3.5357,3.7195,3.8901,4.0262,4.0397,3.9931,3.8807,3.6845,3.4936,0.0,0.0,0.0,0.0,0.0,0.0,0.0,0.0,0.0,0.0,0.0,0.0,0.0,0.0,0.0,0.0,0.0,0.0,0.0,0.0,0.0,0.0,0.0,0.0,0.0,0.0,0.0,0.0,0.0,0.0,0.0,0.0,0.0,0.0,0.0,0.0,0.0,0.0,0.0,0.0,0.0,0.0,0.0,0.0,0.0,0.0,0.0,0.0,0.0,0.0,0.0,0.0,0.0,0.0,0.0,0.0,0.0,0.0,0.0,0.0,0.0,0.0,0.0,0.0,0.0,0.0,0.0,0.0,0.0,0.0,0.0,0.0,0.0,0.0,0.0,0.0,0.0,0.0,0.0,0.0,0.0,0.0,0.0,0.0,0.0,0.0,0.0,0.0,0.0,0.0,0.0,0.0,0.0,0.0,0.0,0.0,0.0,0.0,0.0,0.0,0.0,0.0,0.0,3.5471,3.7263,3.8901,4.0262,4.0397,3.9967,3.8931,3.6995,3.5108,3.3393,0.0,0.0,0.0,0.0,0.0,0.0,0.0,0.0,0.0,0.0,0.0,0.0,0.0,0.0,0.0,0.0,0.0,0.0,0.0,0.0,0.0,0.0,0.0,0.0,0.0,0.0,0.0,0.0,0.0,0.0,0.0,0.0,0.0,0.0,0.0,0.0,0.0,0.0,0.0,0.0,0.0,0.0,0.0,0.0,0.0,0.0,0.0,0.0,0.0,0.0,0.0,0.0,0.0,0.0,0.0,0.0,0.0,0.0,0.0,0.0,0.0,0.0,0.0,0.0,0.0,0.0,0.0,0.0,0.0,0.0,0.0,0.0,0.0,0.0,0.0,0.0,0.0,0.0,0.0,0.0,0.0,0.0,0.0,0.0,0.0,0.0,0.0,0.0,0.0,0.0,0.0,0.0,0.0,0.0,0.0,0.0,0.0,0.0,0.0,0.0,0.0,0.0,3.552,3.7057,3.8512,3.9873,4.0008,3.9577,3.8504,3.7086,3.5471,3.3749,0.0,0.0,0.0,0.0,0.0,0.0,0.0,0.0,0.0,0.0,0.0,0.0,0.0,0.0,0.0,0.0,0.0,0.0,0.0,0.0,0.0,0.0,0.0,0.0,0.0,0.0,0.0,0.0,0.0,0.0,0.0,0.0,0.0,0.0,0.0,0.0,0.0,0.0,0.0,0.0,0.0,0.0,0.0,0.0,0.0,0.0,0.0,0.0,0.0,0.0,0.0,0.0,0.0,0.0,0.0,0.0,0.0,0.0,0.0,0.0,0.0,0.0,0.0,0.0,0.0,0.0,0.0,0.0,0.0,0.0,0.0,0.0,0.0,0.0,0.0,0.0,0.0,0.0,0.0,0.0,0.0,0.0,0.0,0.0,0.0,0.0,0.0,0.0,0.0,0.0,0.0,0.0,0.0,0.0,0.0,0.0,0.0,0.0,0.0,0.0,0.0,0.0,3.5642,3.6742,3.7928,3.9239,3.9388,3.8972,3.7869,3.7101,3.5963,3.4197,0.0,0.0,0.0,0.0,0.0,0.0,0.0,0.0,0.0,0.0,0.0,0.0,0.0,0.0,0.0,0.0,0.0,0.0,0.0,0.0,0.0,0.0,0.0,0.0,0.0,0.0,0.0,0.0,0.0,0.0,0.0,0.0,0.0,0.0,0.0,0.0,0.0,0.0,0.0,0.0,0.0,0.0,0.0,0.0,0.0,0.0,0.0,0.0,0.0,0.0,0.0,0.0,0.0,0.0,0.0,0.0,0.0,0.0,0.0,0.0,3.8411,3.7748,0.0,0.0,0.0,0.0,0.0,0.0,0.0,0.0,0.0,0.0,0.0,0.0,0.0,0.0,0.0,0.0,0.0,0.0,0.0,0.0,0.0,0.0,0.0,0.0,0.0,0.0,0.0,0.0,0.0,0.0,0.0,0.0,0.0,0.0,0.0,0.0,0.0,0.0,0.0,0.0,3.6243,3.7027,3.7928,3.9239,3.9388,3.9167,3.8531,3.7406,3.6159,3.4865,3.371,0.0,0.0,0.0,0.0,0.0,0.0,0.0,0.0,0.0,0.0,0.0,0.0,0.0,0.0,0.0,0.0,0.0,0.0,0.0,0.0,0.0,0.0,0.0,0.0,0.0,0.0,0.0,0.0,0.0,0.0,0.0,0.0,0.0,0.0,0.0,0.0,0.0,0.0,0.0,0.0,0.0,0.0,0.0,0.0,0.0,0.0,0.0,0.0,0.0,0.0,0.0,0.0,0.0,0.0,0.0,0.0,0.0,0.0,0.0,4.1876,4.0209,0.0,0.0,0.0,0.0,0.0,0.0,0.0,0.0,0.0,0.0,0.0,0.0,0.0,0.0,0.0,0.0,0.0,0.0,0.0,0.0,0.0,0.0,0.0,0.0,0.0,0.0,0.0,0.0,0.0,0.0,0.0,0.0,0.0,0.0,0.0,0.0,0.0,0.0,0.0,0.0,3.6423,3.7117,3.7928,3.9239,3.9388,3.9176,3.8592,3.7916,3.6869,3.5326,3.4332,0.0,0.0,0.0,0.0,0.0,0.0,0.0,0.0,0.0,0.0,0.0,0.0,0.0,0.0,0.0,0.0,0.0,0.0,0.0,0.0,0.0,0.0,0.0,0.0,0.0,0.0,0.0,0.0,0.0,0.0,0.0,0.0,0.0,0.0,0.0,0.0,0.0,0.0,0.0,0.0,0.0,0.0,0.0,0.0,0.0,0.0,0.0,0.0,0.0,0.0,0.0,0.0,0.0,4.857,4.9229,4.9785,4.9651,4.9904,5.0257,4.633,4.3885,4.2672,4.2292,0.0,0.0,0.0,0.0,0.0,0.0,0.0,0.0,0.0,0.0,0.0,0.0,0.0,0.0,0.0,0.0,0.0,0.0,0.0,0.0,0.0,0.0,3.9736,3.9171,3.8953,3.8305,3.623,0.0,0.0,0.0,0.0,0.0,0.0,0.0,0.0,0.0,0.0,0.0,3.6622,3.7226,3.7963,3.9275,3.9388,3.9185,3.8616,3.8467,3.7614,3.5789,3.5136,3.3923,0.0,0.0,0.0,0.0,0.0,0.0,0.0,0.0,0.0,0.0,0.0,0.0,0.0,0.0,0.0,0.0,0.0,0.0,0.0,0.0,0.0,0.0,0.0,0.0,0.0,0.0,0.0,0.0,0.0,0.0,0.0,0.0,3.589,3.6394,0.0,0.0,0.0,0.0,0.0,0.0,0.0,0.0,0.0,0.0,0.0,0.0,0.0,4.7073,4.9187,5.0559,5.1692,5.2605,5.3957,5.458,5.4491,5.3835,5.3547,5.3475,5.232,0.0,4.6639,4.5286,0.0,0.0,0.0,0.0,0.0,0.0,0.0,0.0,0.0,0.0,0.0,0.0,0.0,0.0,0.0,0.0,0.0,0.0,0.0,0.0,0.0,0.0,4.1447,4.192,4.1581,4.0885,3.9803,3.6936,3.4531,3.4392,3.3291,3.2402,0.0,0.0,0.0,0.0,0.0,0.0,3.7255,3.7613,3.8116,3.9275,3.9388,3.9343,3.929,3.8736,3.7808,3.6447,3.5776,3.4503,3.2497,3.2332,0.0,0.0,0.0,0.0,0.0,0.0,0.0,0.0,0.0,0.0,0.0,0.0,0.0,0.0,0.0,0.0,0.0,0.0,0.0,0.0,0.0,0.0,0.0,0.0,0.0,0.0,0.0,0.0,0.0,3.6654,3.874,3.9766,4.0662,4.0948,0.0,0.0,0.0,0.0,0.0,0.0,0.0,0.0,0.0,4.9357,5.0557,5.2046,5.3839,5.4515,5.5429,5.6613,5.7273,5.7744,5.8025,5.7282,5.6925,5.6802,5.5711,5.3804,5.1258,4.8385,4.6169,4.4409,0.0,0.0,0.0,0.0,4.0437,3.9897,3.9733,3.9449,3.928,3.984,0.0,0.0,0.0,0.0,0.0,0.0,0.0,4.0755,4.1047,4.1909,4.2823,4.3079,4.2961,4.2617,4.2237,4.0355,3.8091,3.5881,3.4682,3.391,3.3516,3.3213,0.0,0.0,0.0,3.535,3.757,3.7857,3.8303,3.9454,3.9661,3.9711,3.9589,3.939,3.8887,3.7956,3.6929,3.5599,3.3955,3.317,3.2324,0.0,0.0,0.0,0.0,0.0,0.0,0.0,0.0,0.0,0.0,0.0,0.0,0.0,0.0,0.0,0.0,0.0,0.0,0.0,0.0,0.0,0.0,0.0,0.0,0.0,0.0,0.0,0.0,3.9211,4.1386,4.3034,4.3579,4.3773,0.0,0.0,0.0,0.0,0.0,0.0,4.731,5.0016,5.2215,5.3687,5.5023,5.6342,5.7628,5.7848,5.8609,5.9877,5.9877,6.0266,6.0943,5.981,5.9285,5.9201,5.7526,5.6072,5.4617,5.1137,4.8829,4.7332,4.587,4.513,4.4815,4.4227,4.3541,4.2849,4.2319,4.1779,4.1309,4.1519,4.1376,4.1038,4.066,0.0,0.0,0.0,0.0,4.2402,4.2571,4.3479,4.4332,4.4163,4.4117,4.4024,4.3685,4.2838,4.1177,3.7976,3.654,3.5688,3.5186,3.482,0.0,3.5537,3.5644,3.6283,3.8074,3.8318,3.869,3.9682,3.9925,3.9925,3.9803,3.9925,3.9631,3.8816,3.7813,3.6522,3.482,3.3802,3.2556,3.108,0.0,0.0,0.0,0.0,0.0,0.0,0.0,0.0,0.0,0.0,0.0,0.0,0.0,0.0,0.0,0.0,0.0,0.0,0.0,0.0,0.0,0.0,0.0,0.0,0.0,0.0,0.0,0.0,0.0,4.5529,4.6345,0.0,0.0,0.0,0.0,4.6685,4.8727,5.0549,5.1894,5.4177,5.6089,5.756,5.8372,5.915,5.9928,6.0689,6.145,6.2212,6.2212,6.2618,6.326,6.1061,6.0047,5.9928,5.7746,5.6376,5.548,5.3112,5.1251,4.9816,4.8916,4.8362,4.7963,4.7258,4.6477,4.5723,4.517,4.4307,4.3454,4.3586,4.29,4.205,4.2003,4.1868,0.0,0.0,4.3519,4.461,4.5218,4.5911,4.628,4.5634,4.548,4.5126,4.3886,4.3562,4.2996,4.1372,3.9451,3.8106,3.8109,0.0,3.6442,3.726,3.7368,3.7795,3.8993,3.9127,3.9348,3.992,3.9996,4.0011,3.9996,3.9996,3.9449,3.8144,3.7992,3.6778,3.4167,3.4,3.3086,3.1228,3.0555,0.0,0.0,0.0,0.0,0.0,0.0,0.0,0.0,0.0,0.0,0.0,0.0,0.0,0.0,0.0,0.0,0.0,0.0,0.0,0.0,0.0,0.0,0.0,0.0,0.0,0.0,0.0,0.0,4.9012,5.0071,0.0,5.0912,5.0552,5.0774,5.1934,5.3126,5.4397,5.5818,5.7577,5.9015,6.0063,6.0791,6.1315,6.1569,6.1856,6.2127,6.2381,6.2381,6.2279,6.2042,6.0706,5.9573,5.8609,5.7357,5.6105,5.4921,5.411,5.2875,5.1437,5.0646,5.0151,4.9759,4.9173,4.8413,4.7625,4.6985,4.6282,4.5704,4.5627,4.4754,4.3772,4.4205,4.4306,4.43,4.4547,4.5233,4.5926,4.6172,4.6419,4.6419,4.5757,4.5588,4.5341,4.4456,4.4255,4.4079,4.3512,4.1807,4.0148,3.9223,3.867,3.8319,3.8185,3.8138,3.8444,3.9284,3.9407,3.96,4.013,4.0261,4.0296,4.0207,3.9879,3.9474,3.8999,3.7744,3.6396,3.5018,3.4113,3.2887,3.1374,3.0672,3.0022,0.0,0.0,0.0,0.0,0.0,0.0,0.0,0.0,0.0,0.0,0.0,0.0,0.0,0.0,0.0,0.0,0.0,0.0,0.0,0.0,0.0,0.0,0.0,0.0,0.0,4.6938,4.9678,5.2418,5.35,5.433,5.5042,5.4466,5.4635,5.6094,5.6801,5.7746,5.8981,6.0199,6.1112,6.1653,6.2144,6.2381,6.2381,6.2381,6.2516,6.277,6.2262,6.189,6.1637,6.0334,5.9066,5.7831,5.6867,5.5733,5.4566,5.4381,5.3703,5.2704,5.2164,5.1798,5.148,5.0832,5.0144,4.9314,4.7851,4.7131,4.6755,4.6366,4.5649,4.5049,4.5726,4.5926,4.5972,4.6203,4.6588,4.6942,4.6942,4.7111,4.6988,4.5849,4.5757,4.568,4.481,4.461,4.461,4.461,4.3325,4.1971,4.1047,4.0509,4.0078,3.9616,3.9339,3.9354,3.9767,3.9828,3.9963,4.032,4.047,4.0455,4.0366,3.984,3.929,3.8862,3.7353,3.5984,3.4829,3.3891,3.2767,3.1439,3.0751,3.0279,3.0089,0.0,0.0,0.0,0.0,0.0,0.0,0.0,0.0,0.0,0.0,0.0,0.0,0.0,0.0,0.0,0.0,0.0,0.0,0.0,0.0,0.0,0.0,0.0,4.6819,5.0135,5.3315,5.5547,5.6461,5.7188,5.7915,5.7357,5.756,5.9049,5.9793,6.052,6.1332,6.2009,6.2381,6.2381,6.2381,6.2381,6.2381,6.2381,6.2753,6.3463,6.1992,6.1653,6.2245,6.003,5.8575,5.7746,5.6325,5.5277,5.4533,5.3939,5.37,5.3717,5.3551,5.3382,5.311,5.2326,5.1623,5.0682,4.7895,4.6801,4.6535,4.5904,4.5673,4.578,4.6449,4.6665,4.6803,4.745,4.7619,4.7604,4.7604,4.8081,4.805,4.6065,4.6095,4.6203,4.4902,4.461,4.461,4.461,4.4071,4.3593,4.3578,4.2463,4.1586,4.1571,4.097,0.0,4.0489,4.0489,4.0489,4.0489,4.0489,4.0489,4.0489,3.9859,3.8923,3.7615,3.683,3.5522,3.3521,3.3398,3.2752,3.1439,3.0766,3.0766,3.1439,0.0,0.0,0.0,0.0,0.0,0.0,0.0,0.0,0.0,0.0,0.0,0.0,0.0,0.0,0.0,0.0,0.0,0.0,0.0,0.0,0.0,4.6092,4.9154,4.9898,5.2773,5.5615,5.7848,5.8744,5.9505,6.0283,6.0182,6.0672,6.2161,6.1958,6.2093,6.2871,6.2584,6.2381,6.2381,6.2381,6.2381,6.2381,6.2381,6.2482,6.2685,6.1755,6.1095,6.0689,5.9539,5.8034,5.6292,5.5902,5.5041,5.3939,5.3769,5.3783,5.3882,5.3734,5.3517,5.3264,5.252,5.1475,5.0227,4.8686,4.7653,4.7083,4.7449,4.7216,4.6975,4.8026,4.8341,4.8331,4.8337,4.7973,4.7604,4.7604,4.7388,4.688,4.5834,4.5726,4.5634,4.4756,4.461,4.461,4.461,4.4071,4.3454,4.2956,4.2171,4.1432,4.0858,4.0612,0.0,4.0489,4.0489,4.0489,4.0489,4.0489,4.0489,4.0489,3.9428,3.8631,3.8262,3.6215,3.4797,3.4227,3.3213,3.2259,3.1424,3.1213,3.1443,0.0,0.0,0.0,0.0,0.0,0.0,0.0,0.0,0.0,0.0,0.0,0.0,0.0,0.0,0.0,0.0,0.0,0.0,0.0,0.0,0.0,0.0,4.8731,5.2076,5.3466,5.5633,5.7814,5.9742,6.0605,6.1247,6.1721,6.1755,6.211,6.2973,6.2634,6.2584,6.3024,6.2618,6.2381,6.2381,6.2381,6.2381,6.2381,6.2381,6.2381,6.2381,6.1315,6.0554,6.0063,5.894,5.7384,5.5559,5.5559,5.4802,5.36,5.375,5.3915,5.4078,0.0,0.0,0.0,0.0,5.1206,4.9751,4.866,4.7659,4.6904,4.7622,4.7559,4.7442,4.8724,4.9078,4.8893,4.8461,4.8009,4.7481,4.6911,4.668,4.6357,4.5403,4.5387,4.5403,4.4726,4.461,4.461,4.461,4.3818,0.0,4.2757,4.2068,4.1447,4.1047,4.0689,4.0489,4.0489,4.0489,4.0489,4.0489,4.0489,4.0489,4.0489,3.9259,0.0,0.0,0.0,3.4797,3.452,3.3719,0.0,0.0,0.0,3.2903,3.3288,3.3288,0.0,0.0,3.3653,3.387,0.0,0.0,0.0,0.0,0.0,0.0,0.0,0.0,0.0,0.0,0.0,0.0,0.0,0.0,0.0,0.0,5.1276,5.4754,5.6913,5.8281,5.959,6.1129,6.1941,6.2381,6.2381,6.2465,6.255,6.2634,6.2589,6.2589,6.2674,6.2561,0.0,0.0,0.0,6.242,6.2381,6.2381,6.2347,6.2245,6.0791,6.0063,5.9928,5.8339,5.683,5.5518,5.5415,5.4679,5.3585,5.385,5.4078,5.4239,5.4045,5.3849,5.35,5.2416,5.0982,4.9448,4.8348,0.0,0.0,4.6981,4.7192,4.7489,4.8722,4.8998,4.8773,4.805,4.7627,4.7096,4.5895,4.5972,4.6065,4.4864,4.5033,4.5311,4.4748,4.461,4.461,4.461,4.3547,4.2659,4.2757,4.2083,4.1514,4.1549,4.0974,4.0558,4.0524,4.0524,4.0539,4.0489,0.0,0.0,4.0489,3.9354,3.8338,3.7661,3.6276,3.5213,3.4536,3.4505,3.4505,3.4505,3.4582,3.4659,3.4736,3.4813,3.5242,3.6026,3.5336,3.5198,0.0,0.0,0.0,0.0,0.0,0.0,0.0,0.0,0.0,0.0,0.0,0.0,0.0,0.0,0.0,5.0574,5.3656,5.6321,5.7782,5.8713,5.9739,6.1129,6.1941,6.2381,6.2381,6.2939,6.3531,6.4123,6.3775,6.3809,6.4387,6.3456,6.2808,6.2632,6.2632,6.2554,6.2381,6.2381,6.2093,6.1501,6.0554,0.0,5.9201,5.8103,5.7116,5.6258,5.5473,5.493,5.45,5.3955,5.4045,5.4399,5.4127,5.3717,5.3213,5.2485,5.1379,5.0042,4.8812,4.7739,4.693,4.6886,4.729,4.7772,4.7816,4.8106,0.0,4.7346,4.6561,4.5911,4.5649,4.528,4.491,4.4671,4.4718,4.4779,4.4641,4.461,4.461,4.461,4.359,4.2772,4.2793,4.1771,4.1016,4.1168,4.1093,4.0932,4.0765,4.073,4.0696,4.0524,4.0489,4.0489,4.0489,3.9751,3.9031,3.8354,3.6538,3.5213,3.4536,3.4505,3.4505,3.4505,3.5044,3.5553,3.6107,3.6645,3.7372,3.8165,3.6549,3.6449,0.0,0.0,0.0,0.0,0.0,0.0,0.0,0.0,0.0,0.0,0.0,4.3434,4.5363,0.0,5.094,5.2846,5.5272,5.733,5.8354,5.896,5.9777,6.1129,6.1637,6.1992,6.2347,6.2815,6.3266,6.3623,6.3497,6.3563,6.392,6.3354,6.2945,6.2847,6.2748,6.2671,6.2554,6.2437,6.2026,6.1298,6.0486,5.9725,5.8944,5.7924,5.6835,5.5777,5.5191,5.4638,5.4109,5.4101,5.4271,5.448,5.4207,5.3832,5.3366,5.2817,5.1506,4.988,4.8962,4.7773,4.6616,4.6766,4.7056,4.7403,4.7653,4.7792,4.7723,4.6943,4.6299,4.5726,4.4962,4.4492,4.4229,4.4117,4.4117,4.4194,4.4548,4.461,4.461,4.4723,4.3979,4.3392,4.3557,4.2505,4.1492,4.1164,4.1117,4.1068,4.095,4.095,4.0882,4.0662,4.0662,4.0627,4.0489,3.9874,3.9198,3.8554,3.7569,3.6846,3.6507,3.6492,3.6492,3.6492,3.683,3.7169,3.7507,3.7846,3.8387,3.9148,3.8274,3.82,0.0,0.0,0.0,0.0,0.0,0.0,0.0,4.1724,4.2629,4.3545,4.4875,4.6399,4.8083,5.0836,5.3308,5.4736,5.6587,5.8084,5.8702,5.902,5.9653,6.0821,6.1054,6.1443,6.2171,6.2547,6.2816,6.2952,6.3145,6.3281,6.3281,6.3182,6.3097,6.3076,6.2847,6.2748,6.271,6.2363,6.1806,6.1061,6.0266,5.9505,5.8741,5.7745,5.6553,5.5297,5.4887,5.4233,5.35,5.419,5.4512,5.448,5.4271,5.4013,5.3651,5.3144,5.1571,4.9637,4.905,4.7678,4.6191,4.6497,4.6692,4.6882,4.7356,4.741,4.7179,4.6489,4.615,4.5712,4.4489,4.4043,4.3892,4.3852,4.3738,4.3793,4.4509,4.4648,4.4739,4.4927,4.4421,4.4065,4.4344,4.3301,4.2218,4.1534,4.1297,4.1169,4.1135,4.1135,4.1115,4.1053,4.091,4.073,4.0524,3.9874,3.9259,3.8739,3.8585,3.8508,3.8508,3.8508,3.8508,3.8508,3.8646,3.8708,3.8708,3.8846,3.9185,3.9708,3.972,3.9707,3.8903,3.9442,4.0042,4.0127,4.1784,4.3406,0.0,4.4179,4.5211,4.6653,4.7743,4.9085,5.1274,5.3618,5.5529,5.6408,5.7823,5.8823,5.8806,5.8822,5.9093,5.9716,6.0197,6.0802,6.1622,6.2472,6.3231,6.3879,6.4145,6.4242,6.4242,6.3796,6.3452,6.3265,6.3076,6.2885,6.271,6.1871,6.1028,6.0233,5.9488,5.8744,5.8017,5.751,5.6854,5.6017,5.4981,5.4211,5.37,5.4271,5.4512,5.448,5.4271,5.4013,5.3651,5.3315,5.1863,5.0017,4.9316,4.7858,4.6259,4.5995,4.6313,4.6708,4.6202,4.6307,4.6473,4.5813,4.5477,4.526,4.5104,4.4474,4.4053,4.4626,4.4152,4.3831,4.4682,4.4874,4.4927,4.5129,4.47,4.436,4.438,4.3457,4.2629,4.255,4.1982,4.1456,4.129,4.129,4.1458,4.1913,4.1258,4.073,4.0524,3.9874,3.9493,3.9367,3.8846,3.8508,3.8508,3.8508,3.8508,3.8508,3.9059,3.9367,3.9367,3.9982,4.0305,4.0366,3.9801,3.9936,4.0508,4.0779,4.1366,4.2696,4.4211,4.5586,4.6433,4.7659,4.8822,4.9458,5.0619,5.1787,5.2735,5.4391,5.5874,5.6667,5.7685,5.8496,5.8875,5.8462,5.8187,5.8391,5.8253,5.8917,6.089,6.1961,6.2655,6.2963,6.3563,6.3953,6.3953,6.3718,6.3319,6.2667,6.2463,6.2053,6.1384,6.0871,6.0233,5.9471,5.9167,5.8609,5.7865,5.704,5.5907,5.4519,5.4054,5.372,5.3583,5.4239,5.4512,5.448,5.4271,5.3913,5.3432,5.2674,5.1308,4.9692,4.8651,4.7361,4.6116,4.588,4.5997,4.6171,4.5886,4.594,4.6008,4.574,4.5625,4.5421,4.4904,4.4205,4.3738,4.4366,4.3883,4.363,4.4822,4.5092,4.5129,4.5331,4.5191,4.506,4.5205,4.4457,4.3864,4.3864,4.2568,4.1555,4.1489,4.1868,4.232,4.2824,4.1965,4.1353,4.1249,4.0528,4.0074,4.0074,3.9813,3.9644,3.9644,3.9644,3.9644,3.9644,3.992,4.0074,4.0074,4.0351,4.0489,4.0489,4.0197,4.0081,4.1877,4.2244,4.3091,4.5162,4.6539,4.7733,4.8993,5.0233,5.1166,5.1373,5.2132,5.2839,5.3028,5.4305,5.5495,5.6081,5.715,5.8099,5.8633,5.8101,5.7689,5.7689,5.7036,5.7363,5.9419,6.064,6.1504,6.1916,6.2785,6.3289,6.3289,6.3289,6.2994,6.2297,6.187,6.1272,6.0489,6.0099,5.9577,5.9015,5.8795,5.8423,5.7865,5.6556,5.5105,5.3565,5.3499,5.35,5.36,5.4239,5.4512,5.448,5.4239,5.3848,5.323,5.1849,5.0585,4.9347,4.8081,4.6941,4.6076,4.588,4.5807,4.5807,4.5807,4.5807,4.5807,4.5807,4.5807,4.566,4.5011,4.4263,4.3847,4.4424,4.3977,4.3738,4.4991,4.5294,4.5331,4.5552,4.5589,4.5625,4.5771,4.5207,4.4717,4.4717,4.3263,4.2173,4.2173,4.2805,4.3289,4.3399,4.2849,4.226,4.1852,4.1198,4.0705,4.0505,4.0489,4.0489,4.0489,4.0489,4.0489,4.0489,4.0489,4.0489,4.0489,4.0489,4.0489,4.0489,4.0305,3.9951,4.2535,4.3888,4.5478,4.7024,4.8655,5.0097,5.0843,5.105,5.1321,5.1998,5.1649,5.1407,5.2084,5.3511,5.4546,5.4581,5.6443,5.7909,5.7943,5.7926,5.7909,5.7909,5.7253,5.684,5.6893,5.822,5.9702,6.122,6.2082,6.2513,6.2513,6.2513,6.2513,6.2479,6.1538,6.0908,6.0674,5.9791,5.9234,5.8998,5.8271,5.7898,5.7831,5.6198,5.4907,5.3975,5.3771,5.3816,5.4013,5.4353,5.4512,5.448,5.416,5.3766,5.3146,5.1026,4.986,4.9151,4.785,4.6833,4.6076,4.588,4.5807,4.5807,4.5807,4.5807,4.5807,4.5807,4.5807,4.5807,4.5792,4.5126,4.462,4.529,4.482,4.4398,4.5285,4.5478,4.5552,4.5735,4.5771,4.5771,4.5807,4.5207,4.4717,4.4717,4.4101,4.3658,4.3646,4.4211,4.4331,4.3493,4.383,4.351,4.193,4.1661,4.1263,4.0536,4.0489,4.0489,4.0489,4.0489,4.0489,4.0489,4.0489,4.0489,4.0489,4.0489,4.0489,4.0474,3.9828,3.9505,4.4208,4.5679,4.7221,4.8781,4.9964,5.0925,5.1653,5.1808,5.174,5.1498,5.1287,5.1045,5.0787,5.1563,5.2408,5.2877,5.4494,5.5822,5.6322,5.6374,5.6374,5.6374,5.5736,5.5684,5.6702,5.8133,5.9237,5.9737,6.0978,6.1703,6.1703,6.1703,6.1443,6.0783,6.0454,5.9934,5.9242,5.8931,5.8687,5.8453,5.809,5.7338,5.6215,5.5654,5.4604,5.3306,5.3585,5.375,5.3849,5.4321,5.4512,5.448,5.4239,5.3525,5.2487,5.0911,4.967,4.8591,4.7175,4.6414,4.6076,4.588,4.5807,4.5807,4.5807,4.5807,4.5807,4.5807,4.5807,4.5807,4.5807,4.5198,4.48,4.5525,4.511,4.4744,4.5541,4.5698,4.5698,4.5771,4.5807,4.5807,4.5807,4.5602,4.5444,4.5444,4.4429,4.388,4.4306,4.4575,4.4776,4.4957,4.4512,4.378,4.2809,4.2025,4.1294,4.0536,4.0489,4.0489,4.0489,4.0489,4.0489,4.0489,4.0489,4.0489,4.0489,4.0489,4.0489,4.0489,4.0259,3.992,4.6121,4.7534,4.8907,5.0424,5.1149,5.1563,5.174,5.1614,5.1102,5.0114,4.9683,4.9269,4.851,4.9172,5.0119,5.0861,5.2753,5.4477,5.5477,5.5857,5.6133,5.6408,5.577,5.5719,5.6702,5.7909,5.8737,5.8995,6.0185,6.0909,6.0909,6.0909,6.0615,6.0027,5.9735,5.9251,5.8596,5.8596,5.849,5.8188,5.7808,5.685,5.549,5.5273,5.4445,5.3196,5.3667,5.3865,5.3898,5.4335,5.4512,5.4445,5.3994,5.3263,5.2295,5.0742,4.966,4.8626,4.691,4.6227,4.6152,4.588,4.5859,4.588,4.5807,4.5844,4.588,4.5807,4.5807,4.5807,4.5807,4.546,4.5223,4.5697,4.546,4.5238,4.5713,4.5807,4.5807,4.5807,4.5807,4.5807,4.5807,4.5807,4.5807,4.5807,4.5049,4.4622,4.5049,4.5112,4.525,4.5651,4.5013,4.4154,4.3183,4.2381,4.1555,4.0551,4.0489,4.0489,4.0489,4.0489,4.0489,4.0489,4.0489,4.0489,4.0489,4.0489,4.0489,4.0489,4.0489,4.0259,4.8258,4.9465,5.0459,5.1843,5.2136,5.1895,5.1188,5.0424,4.9407,4.7879,4.701,4.6251,4.5432,4.6535,4.781,4.8568,5.1287,5.3804,5.5288,5.6219,5.7029,5.7823,5.7288,5.6891,5.6978,5.7581,5.8271,5.9012,5.9737,6.0133,6.0133,6.0133,6.0133,6.0133,5.9409,5.8927,5.8823,5.8788,5.8596,5.8207,5.7475,5.6622,5.5719,5.5077,5.4397,5.3733,5.4061,5.419,5.4239,5.4416,5.4512,5.4411,5.3493,5.296,5.2516,5.0543,4.9732,4.9275,4.714,4.6356,4.6301,4.5936,4.5952,4.6096,4.588,4.5952,4.606,4.588,4.5807,4.5807,4.5807,4.5807,4.5807,4.5807,4.5807,4.5807,4.5807,4.5807,4.5807,4.5807,4.5807,4.5807,4.5807,4.5771,4.5771,4.5771,4.5771,4.5771,4.5771,4.5771,4.5698,4.5515,4.5294,4.4563,4.3097,4.2741,4.2032,4.0628,4.052,4.0489,4.0489,4.0489,4.0489,4.0489,4.0489,4.0489,4.0489,4.0489,4.0489,4.0489,4.0489,4.0489,4.939,5.0666,5.1752,5.2101,5.136,5.0528,5.0338,4.8821,4.72,4.619,4.5406,4.4673,4.3914,4.4992,4.6242,4.7017,4.9717,5.2235,5.3753,5.5098,5.6408,5.7754,5.7736,5.8064,5.9219,5.8961,5.9047,5.984,5.953,5.9323,5.9323,5.9323,5.9323,5.9323,5.9116,5.8978,5.8961,5.884,5.8753,5.8631,5.7704,5.6832,5.6065,5.5349,5.4631,5.3915,5.4143,5.419,5.4239,5.4416,5.4512,5.4443,5.3621,5.2857,5.2052,5.083,4.9853,4.9036,4.8049,4.7404,4.6892,4.6349,4.6298,4.6439,4.6243,4.6298,4.6404,4.6096,4.6024,4.6004,4.5844,4.5807,4.5807,4.5807,4.5807,4.5807,4.5807,4.5807,4.5807,4.5807,4.5807,4.5807,4.5807,4.5662,4.5589,4.5589,4.5442,4.5405,4.5552,4.5589,4.5515,4.5294,4.5092,4.4623,4.3712,4.3004,4.2232,4.1386,4.0782,4.0489,4.0489,4.0489,4.0489,4.0489,4.0489,4.0489,4.0489,4.0489,4.0489,4.0489,4.0489,4.0489,5.12,5.2114,5.2649,5.2274,5.1309,5.0149,4.8821,4.7269,4.5579,4.3802,4.3095,4.2568,4.1809,4.2888,4.4389,4.5828,4.8648,5.139,5.358,5.5184,5.6822,5.8685,5.8909,5.9375,6.0565,5.9978,5.972,6.0168,5.9461,5.8875,5.8547,5.853,5.853,5.853,5.853,5.8685,5.9012,5.86,5.8342,5.8256,5.7055,5.6251,5.5823,5.5053,5.4521,5.4207,5.4303,5.4335,5.4335,5.4448,5.4512,5.4391,5.3304,5.2553,5.1928,5.0678,4.9769,4.9138,4.8608,4.8129,4.7671,4.6911,4.6842,4.7014,4.6684,4.6703,4.6772,4.6314,4.6168,4.606,4.5844,4.5807,4.5807,4.5807,4.5807,4.5807,4.5807,4.5807,4.5807,4.5807,4.5807,4.5807,4.5807,4.5625,4.5515,4.5515,4.5331,4.522,4.5241,4.5315,4.5294,4.5092,4.4964,4.4611,4.3834,4.3322,4.2617,4.1663,4.1217,4.0828,4.0505,4.0489,4.0489,4.0489,4.0489,4.0489,4.0489,4.0489,4.0489,4.0489,4.0489,4.047,5.3046,5.3408,5.3218,5.2377,5.1481,5.008,4.7251,4.5725,4.4199,4.1464,4.0739,4.0411,3.9802,4.0871,4.2595,4.4863,4.7769,5.0752,5.377,5.5615,5.7529,5.9909,6.0289,6.0685,6.153,6.084,6.034,6.034,5.9426,5.8581,5.7943,5.7909,5.7874,5.7771,5.7754,5.8064,5.8719,5.8081,5.7653,5.7483,5.6092,5.5439,5.5405,5.4583,5.4335,5.4512,5.4512,5.4512,5.4512,5.4512,5.4512,5.4356,5.2822,5.2188,5.1998,5.0363,4.9637,4.9411,4.8968,4.8688,4.8388,4.7505,4.7471,4.7671,4.7201,4.7167,4.7183,4.6547,4.6262,4.6096,4.5844,4.5807,4.5807,4.5807,4.5807,4.5807,4.5807,4.5807,4.5807,4.5807,4.5807,4.5807,4.5807,4.5625,4.5478,4.5478,4.5257,4.5055,4.4874,4.5055,4.5092,4.4874,4.4874,4.4567,4.3793,4.3655,4.3116,4.1925,4.1786,4.1463,4.0797,4.0674,4.0674,4.0766,4.0674,4.0674,4.0766,4.0766,4.072,4.0643,4.0643,4.0528,5.3339,5.3408,5.3218,5.2377,5.0688,4.8723,4.701,4.4527,4.2268,4.1136,3.9894,3.9129,3.9612,4.0457,4.1843,4.4121,4.6527,4.9137,5.2153,5.4428,5.6909,5.984,6.0737,6.1651,6.3048,6.1927,6.1116,6.1116,5.9237,5.803,5.7909,5.7909,5.7633,5.7012,5.6995,5.7047,5.7185,5.7047,5.6978,5.6911,5.5998,5.5568,5.5533,5.4775,5.448,5.4512,5.4512,5.4512,5.4512,5.4512,5.4512,5.4356,5.2822,5.2188,5.2015,5.0516,4.9772,4.9488,4.9381,4.9094,4.8644,4.8049,4.7984,4.8065,4.7853,4.7836,4.7721,4.6979,4.6668,4.6388,4.59,4.5807,4.5807,4.5807,4.5807,4.5807,4.5807,4.5807,4.5807,4.5807,4.5807,4.5807,4.5807,4.5478,4.5257,4.5257,4.4942,4.4701,4.4663,4.4852,4.4874,4.4685,4.4648,4.4601,4.4456,4.3932,4.3516,4.3285,4.2725,4.2371,4.2248,4.1709,4.1678,4.2232,4.1694,4.1694,4.2248,4.2248,4.1955,4.1417,4.1417,4.1058,5.3873,5.3977,5.3701,5.2511,5.0792,4.8734,4.601,4.363,4.1464,3.9531,3.8548,3.8151,3.8474,3.9491,4.0912,4.2792,4.5699,4.8603,5.1269,5.3911,5.6598,5.9271,6.0254,6.1168,6.2289,6.1392,6.0547,6.0133,5.8651,5.7653,5.7357,5.6943,5.6546,5.6202,5.6581,5.6805,5.6805,5.6391,5.6184,5.6167,5.5408,5.5046,5.4997,5.4571,5.4335,5.4335,5.4271,5.4271,5.4335,5.4335,5.4175,5.3822,5.2666,5.1964,5.1481,5.0302,4.9696,4.9488,4.9307,4.897,4.8564,4.8098,4.813,4.8292,4.7951,4.7853,4.7671,4.6945,4.6598,4.6333,4.59,4.5807,4.5807,4.5807,4.5807,4.5807,4.5807,4.5807,4.5807,4.5807,4.5807,4.5807,4.5807,4.5552,4.5368,4.5368,4.5092,4.4905,4.4905,4.5017,4.4927,4.461,4.461,4.461,4.461,4.4317,4.3978,4.3624,4.3316,4.2956,4.2617,4.2294,4.2279,4.2602,4.2294,4.2279,4.2602,4.2602,4.2432,4.2109,4.1755,4.1331,5.4032,5.431,5.4069,5.2475,5.0858,4.8701,4.5051,4.2787,4.0709,3.8003,3.7335,3.7305,3.7478,3.8439,3.9784,4.1498,4.4423,4.7355,4.9804,5.2735,5.5495,5.7771,5.9168,6.0237,6.0996,6.0375,5.965,5.9013,5.7775,5.6883,5.6449,5.5708,5.5245,5.5245,5.588,5.6207,5.624,5.5619,5.5309,5.5374,5.4724,5.4448,5.4448,5.4239,5.4175,5.4126,5.3874,5.3806,5.3918,5.3764,5.3447,5.2988,5.2165,5.1494,5.0892,5.0,4.956,4.9381,4.9094,4.8736,4.8371,4.7967,4.8081,4.8292,4.7803,4.7638,4.7488,4.6791,4.6458,4.6227,4.588,4.5807,4.5855,4.5997,4.6013,4.606,4.6234,4.6266,4.6218,4.6044,4.6013,4.5981,4.5839,4.5662,4.5599,4.574,4.5682,4.5655,4.5737,4.5843,4.57,4.5285,4.4909,4.4663,4.461,4.461,4.4394,4.3855,4.3824,4.3593,4.3048,4.2894,4.2879,4.3033,4.2894,4.2879,4.3033,4.3033,4.2956,4.2802,4.2125,4.1653,5.3049,5.3707,5.383,5.2164,5.0116,4.7734,4.4639,4.1755,3.9272,3.7647,3.6823,3.6628,3.7374,3.7616,3.8427,4.0653,4.1861,4.3578,4.6596,4.9631,5.2373,5.4649,5.7409,5.9426,6.022,5.9582,5.903,5.8823,5.6509,5.5127,5.526,5.4559,5.4148,5.4148,5.4216,5.4316,5.4445,5.4377,5.4407,5.4615,5.4338,5.4239,5.4222,5.4078,5.4013,5.3979,5.3312,5.3022,5.297,5.2301,5.1976,5.187,5.1052,5.071,5.0556,4.9791,4.9381,4.9199,4.9063,4.8642,4.8163,4.7836,4.7886,4.7951,4.7555,4.7438,4.7303,4.6756,4.6442,4.623,4.59,4.5807,4.5965,4.6566,4.6708,4.6898,4.7561,4.7703,4.7514,4.6834,4.6708,4.6518,4.5918,4.5771,4.5976,4.6576,4.6824,4.7099,4.7577,4.7791,4.7791,4.739,4.5846,4.4799,4.4625,4.461,4.4594,4.4533,4.4533,4.4502,4.444,4.384,4.3809,4.4425,4.3824,4.3824,4.444,4.444,4.4117,4.3501,4.2817,4.2186,5.2532,5.3073,5.2927,5.1696,4.9729,4.7194,4.3729,4.106,3.8771,3.6785,3.6311,3.6337,3.6664,3.7159,3.7944,3.9307,0.0,4.2906,4.55,4.8528,5.1085,5.2802,5.5264,5.6916,5.7106,5.7278,5.709,5.6337,5.4617,5.3531,5.3427,5.3568,5.365,5.365,5.365,5.3716,5.3898,5.3898,5.4013,5.4207,5.411,5.4078,5.4061,5.3454,5.3152,5.3118,5.2255,5.1932,5.2043,5.1736,5.1407,5.1056,5.0731,5.0338,4.9881,4.947,4.926,4.9168,4.894,4.8564,4.813,4.7655,4.7504,4.7454,4.7048,4.6929,4.6825,4.642,4.6243,4.61,4.588,4.5807,4.5981,4.6645,4.6803,4.7008,4.7735,4.7893,4.7672,4.6945,4.6803,4.6634,4.6079,4.6028,4.6414,4.7385,4.768,4.8081,4.8828,4.8909,4.8675,4.8137,4.6758,4.5743,4.5402,4.4993,4.4723,4.461,4.461,4.461,4.461,4.4348,4.4348,4.4572,4.4348,4.4348,4.461,4.461,4.4471,4.4194,4.3494,4.3048,5.1134,5.1526,5.1232,5.0451,4.8419,4.5774,4.2482,4.0095,3.8058,3.6062,3.5839,3.6036,3.6058,3.6612,3.7369,0.0,0.0,4.1687,4.4019,4.68,4.9085,5.051,5.2866,5.4484,5.4748,5.5433,5.5434,5.4415,5.3328,5.2644,5.2414,5.2679,5.2853,5.2905,5.2957,5.3111,5.3366,5.35,5.3684,5.3915,5.3915,5.3813,5.3574,5.285,5.2379,5.2141,5.1249,5.096,5.107,5.0849,5.0504,5.0134,5.0134,4.9828,4.932,4.9199,4.9138,4.9107,4.8894,4.858,4.8227,4.7704,4.7421,4.7201,4.686,4.6687,4.6528,4.6187,4.5988,4.588,4.5807,4.5771,4.5908,4.6645,4.6961,4.7324,4.8035,4.8193,4.7988,4.7186,4.6908,4.6618,4.6043,4.612,4.6664,4.7671,4.812,4.866,4.9398,4.9641,4.9469,4.8886,4.7935,4.6966,4.6004,4.5485,4.5015,4.4625,4.461,4.461,4.461,4.461,4.461,4.461,4.461,4.461,4.461,4.461,4.461,4.4594,4.3917,4.3501,4.8419,4.8784,4.8534,4.8147,4.5812,4.3078,4.0906,3.8774,3.6869,3.5569,3.5458,3.5644,3.5773,3.5927,3.6493,3.7974,3.823,0.0,4.1496,4.3803,4.5812,4.7356,5.0189,5.2546,5.3876,5.4565,5.4601,5.3785,5.3008,5.259,5.259,5.1908,5.1577,5.1712,5.1915,5.2219,5.2626,5.299,5.3382,5.37,5.37,5.3326,5.2597,5.2382,5.1911,5.1183,5.0422,5.0101,5.005,4.9323,4.9018,4.9018,4.9018,4.9001,4.9001,4.9001,4.9001,4.897,4.8849,4.8675,4.8435,4.8032,4.7671,4.7371,4.7152,4.6844,4.6528,4.6187,4.5807,4.5552,4.5735,4.5662,4.5725,4.6608,4.7356,4.8067,4.8731,4.8873,4.8645,4.7752,4.7142,4.6508,4.5662,4.5956,4.6538,4.7293,4.8015,4.8695,4.9235,5.0131,5.0464,4.9855,4.9598,4.8501,4.612,4.5881,4.551,4.4656,4.461,4.461,4.461,4.461,4.461,4.461,4.461,4.461,4.461,4.461,4.461,4.4594,4.3917,4.3217,4.5765,4.6102,4.5937,4.556,4.3622,4.1371,3.9598,3.7567,3.5844,3.4937,3.4913,3.5131,3.5412,3.5464,3.5813,3.6941,3.7533,3.8698,4.107,4.2994,4.4906,4.6925,4.9256,5.1335,5.2881,5.3223,5.3362,5.3483,5.2555,5.1808,5.1456,5.0481,5.0196,5.0794,5.0721,5.0658,5.0556,5.0817,5.116,5.1647,5.1878,5.1874,5.162,5.1193,5.05,4.9695,4.9458,4.8781,4.7868,4.8139,4.7953,4.7496,4.7496,4.78,4.8257,4.8257,4.8578,4.9001,4.8956,4.8832,4.8658,4.842,4.8146,4.7918,4.777,4.7286,4.6738,4.6353,4.5992,4.5698,4.5625,4.5442,4.5487,4.6235,4.6564,4.6924,4.7667,4.7824,4.7582,4.6785,4.6624,4.6396,4.5809,4.6048,4.6628,4.7652,4.812,4.866,4.9415,5.0063,5.0318,4.9839,4.9901,4.9321,4.7676,4.6671,4.588,4.5318,4.4872,4.461,4.461,4.5018,4.5087,4.4625,4.5033,4.5049,4.461,4.461,4.461,4.4572,4.4394,4.3932,4.2582,4.282,4.2469,4.2479,4.1047,3.9259,3.7919,3.6452,3.5154,3.4422,3.4391,3.461,3.4859,3.4913,3.5217,3.6085,3.6877,3.8129,4.0271,4.226,4.4517,4.7226,4.9101,5.0631,5.1741,5.2081,5.2407,5.2718,5.1949,5.1313,5.0904,5.0007,4.9581,4.9742,4.9697,4.9596,4.939,4.9723,5.0137,5.061,5.1006,5.1097,5.089,5.0238,4.9474,4.8636,4.8321,4.7648,0.0,4.731,4.7208,4.6786,4.6786,4.7073,4.7496,4.7496,4.7784,4.8206,4.8494,4.8534,4.8459,4.8301,4.7943,4.7521,4.7396,4.7243,4.7014,4.6617,4.6175,4.5739,4.5552,4.5278,4.5201,4.5734,4.6015,4.6327,4.6779,4.6873,4.6733,4.6204,4.6022,4.5875,4.5525,4.576,4.6247,4.6945,4.7278,4.7634,4.8177,4.8994,4.9404,4.9085,4.9587,4.9568,4.8633,4.7271,4.6307,4.6011,4.5341,4.5064,4.5326,4.5741,4.5772,4.5341,4.5511,4.5372,4.4995,4.4695,4.461,4.461,4.461,4.4394,0.0,3.9067,3.8572,3.9129,3.8197,3.6928,3.6099,3.5379,0.0,3.4018,3.3975,3.4101,3.425,3.4374,3.4677,3.543,3.6261,3.7461,3.9265,4.1764,4.4603,4.7851,4.946,5.0365,5.0554,5.1199,5.1657,5.1694,5.1308,5.1017,5.0873,5.0276,4.9523,4.8644,4.8768,4.8891,4.8868,4.9452,4.9902,5.0276,5.0738,5.0737,5.0229,4.9433,4.8651,4.7903,4.7145,4.6764,4.6633,4.6684,4.6684,4.6633,4.6633,4.6667,4.6718,4.6718,4.6752,4.6887,4.7597,4.7804,4.7804,4.7804,4.7224,4.6484,4.6384,4.6774,4.719,4.6867,4.6208,4.5613,4.5458,4.5157,4.4927,4.5092,4.5634,4.6086,4.6086,4.6086,4.6048,4.5857,4.5475,4.5129,4.4911,4.521,4.5468,4.5468,4.5728,4.5929,4.5929,4.7151,4.7949,4.7792,4.8859,4.9412,4.9037,4.7756,4.6887,4.6603,4.5957,4.5865,4.6496,4.6573,4.6603,4.6603,4.5926,4.5588,4.5588,4.4957,4.4687,4.4687,4.4687,4.4687,3.5375,0.0,3.6993,3.7026,3.6367,3.5586,0.0,3.4525,3.3928,3.3664,3.3633,3.3694,3.3949,3.3924,3.4149,3.4936,3.5726,3.701,3.9317,4.2945,4.5708,4.6669,4.8206,4.9509,5.0365,5.0707,5.1093,5.1674,5.1227,5.081,5.0464,4.9765,4.8919,4.7897,4.7811,4.7787,4.7776,4.808,4.8448,4.8954,4.8872,4.8838,4.886,4.8196,4.7341,4.6459,4.6804,4.6242,4.5173,4.572,4.5618,4.5139,4.5139,4.5449,4.5957,4.5957,4.6312,4.6819,4.7005,4.7056,4.7056,4.7056,4.6908,4.6727,4.6697,4.6466,4.6073,4.5587,4.5259,4.4978,4.4559,4.4561,4.4685,4.4739,4.4847,4.497,4.497,4.497,4.497,4.4917,4.496,4.4964,4.4911,4.5114,4.5278,4.5278,4.5352,4.5373,4.5373,4.6564,4.7394,4.7332,4.844,4.9118,4.8996,4.8221,4.7413,4.6634,4.5957,4.5664,4.5818,4.6326,4.6603,4.6603,4.5926,4.5588,4.5588,4.5418,4.5341,4.5341,4.5341,4.5341,3.3524,3.4424,3.537,3.5231,3.4914,3.453,3.4244,3.3904,3.3581,3.3424,3.3398,3.345,3.3607,3.3836,3.4118,3.4564,3.5842,3.7785,4.068,4.3448,4.5415,4.601,4.7007,4.8043,4.9001,4.9022,4.9244,4.9981,4.9624,4.9196,4.8877,4.8579,4.8111,4.742,4.7288,4.7077,4.6764,4.6877,4.7133,4.7572,4.7594,4.7732,4.7963,4.7277,4.6638,4.6077,4.609,4.5552,4.4716,4.5122,4.5027,4.4615,4.4615,4.4823,4.5196,4.5196,4.5449,4.585,4.6177,4.6295,4.6295,4.6295,4.6058,4.5771,4.5667,4.5286,4.4906,4.5062,4.4782,4.4399,4.4142,4.413,4.4225,4.4548,4.461,4.461,4.461,4.461,4.461,4.461,4.4685,4.4761,4.4761,4.4852,4.4927,4.4927,4.4927,4.4927,4.4927,4.6121,4.6904,4.6904,4.8063,4.8816,4.8816,4.8476,4.8065,4.7542,4.6603,4.6326,4.6942,4.7034,4.7065,4.7065,4.6696,4.6357,4.6049,4.6049,4.6049,4.6049,4.6049,4.588,3.2779,3.3321,3.3912,3.4011,3.3954,3.3829,3.3682,0.0,0.0,0.0,0.0,0.0,3.3309,3.3846,3.4367,3.4589,3.6629,3.9155,4.2024,4.3373,4.4453,4.5375,4.5868,4.643,4.7203,4.7001,4.7106,4.781,4.758,4.7335,4.7244,4.7392,4.7386,4.7119,4.6976,4.651,4.5728,4.6002,4.624,4.6439,4.6627,4.6812,4.6972,4.6192,4.5804,4.5743,4.5138,0.0,4.4678,4.4752,4.472,4.4626,4.4598,4.4615,4.4615,4.4615,4.4615,4.4699,4.5314,4.5534,4.5534,4.5534,4.5094,4.4514,4.431,4.4006,4.3843,4.4554,4.4283,4.3749,4.3803,4.3619,4.3639,4.4302,4.4471,4.4486,4.4594,4.461,4.461,4.461,4.461,4.461,4.461,4.461,4.461,4.461,4.461,4.461,4.461,4.5757,4.6603,4.6603,4.7804,4.862,4.862,4.862,4.8573,4.8466,4.7296,4.7111,4.8224,4.7917,4.7758,4.7717,4.7665,4.7327,4.6742,4.6742,4.6742,4.6742,4.6742,4.6388,3.2684,3.2867,3.3178,3.4286,3.4142,3.3828,3.425,3.3906,0.0,0.0,0.0,0.0,3.3309,3.3846,3.4683,3.5872,3.8455,4.0499,4.1023,4.2543,4.3703,4.3976,4.4771,4.5452,4.5868,4.5939,4.6182,4.6722,4.6861,4.706,4.7437,4.7466,4.723,4.6704,4.6526,4.5754,4.438,4.6022,4.6622,4.6181,4.5699,4.5228,4.4759,4.4027,4.3588,4.3443,0.0,4.4144,4.408,4.4575,4.4776,4.4748,4.4654,4.4615,4.4615,4.4615,4.4615,4.4632,4.4733,4.4784,4.4784,4.4784,4.457,4.431,4.4184,4.3684,4.3146,4.2828,4.2895,4.294,4.2504,4.2581,4.2925,4.3608,4.3762,4.3917,4.4486,4.461,4.461,4.461,4.461,4.461,4.461,4.461,4.461,4.461,4.461,4.461,4.461,4.5757,4.6603,4.6603,4.7804,4.862,4.862,4.862,4.8373,4.7788,4.7034,4.6616,4.667,4.783,4.8383,4.8217,4.7814,4.7558,4.745,4.745,4.745,4.745,4.745,4.7096,3.1438,3.198,3.2733,3.3699,3.4054,3.4165,3.4333,3.4449,3.4512,0.0,0.0,0.0,3.4431,3.4984,3.6026,3.7796,3.9549,4.0832,4.1181,4.2044,4.267,4.2703,4.3315,4.3975,4.4509,4.4543,4.4619,4.492,4.4875,4.4857,4.478,4.4959,4.4981,4.4768,4.4586,4.419,4.352,4.4312,4.4626,4.4367,4.4077,4.3881,4.369,4.3286,4.3038,4.2962,0.0,4.34,4.3287,4.3638,4.3685,4.3603,4.3929,4.4027,4.3995,4.4445,4.4615,4.4615,4.4615,4.4615,4.457,4.4468,4.4327,4.4138,4.3835,4.3372,4.2867,4.227,4.2056,4.2007,4.1956,4.2014,4.2325,4.3362,4.3608,4.3793,4.4471,4.461,4.461,4.461,4.461,4.461,4.461,4.461,4.461,4.461,4.461,4.4748,4.5064,4.5988,4.6742,4.7096,4.8019,4.862,4.862,4.8281,4.7773,4.7096,4.6991,4.6772,4.6299,4.7568,4.8244,4.8133,4.8022,4.7993,4.7993,4.7707,4.7604,4.7604,4.7604,4.7234,3.0077,3.1068,3.2212,3.2934,3.3794,3.446,3.4537,3.4984,3.5394,0.0,0.0,3.545,3.545,3.6302,3.7569,3.9342,4.0373,4.1117,4.1591,4.1642,4.1611,4.1595,4.1805,4.2186,4.2782,4.2766,4.2818,4.3085,4.2941,4.2743,4.2515,4.2749,4.2962,4.3106,4.3005,4.2843,4.2629,4.2527,4.251,4.2586,4.2586,4.2593,4.2555,4.2447,4.2372,4.2372,4.2543,4.2535,4.2415,4.2698,4.268,4.2504,4.3037,4.3176,4.3141,4.3928,4.4232,4.4249,4.4418,4.4457,4.4384,4.4196,4.4006,4.3789,4.3295,4.2914,4.2524,4.1882,4.1439,4.1247,4.1503,4.1465,4.1648,4.2869,4.327,4.3562,4.424,4.4502,4.461,4.461,4.461,4.461,4.461,4.461,4.461,4.461,4.461,4.481,4.528,4.608,4.6803,4.7311,4.7973,4.8312,4.8158,4.7527,4.6973,4.6619,4.7073,4.7028,4.6234,4.7417,4.8007,4.7922,4.8175,4.8286,4.8286,4.7973,4.7835,4.7835,4.7835,4.7481,2.9187,3.0323,3.1485,3.2333,3.3456,3.4505,3.5157,3.5347,0.0,3.5394,0.0,3.5574,3.5574,3.7355,3.9072,3.9839,4.1118,4.1981,4.1882,4.131,4.0833,4.0704,4.0293,4.0082,4.0252,4.054,4.0926,4.1517,4.1649,4.1925,4.2481,4.2507,4.2619,4.2817,4.2817,4.2407,4.1529,4.1503,4.158,4.1697,4.1697,4.1355,4.0688,4.0557,4.0483,4.0517,4.124,4.1503,4.1554,4.2244,4.2428,4.2303,4.2237,4.2118,4.2093,4.2847,4.3116,4.3216,4.3891,4.3993,4.3831,4.3697,4.3429,4.3066,4.2538,4.2206,4.1866,4.1305,4.1003,4.0848,4.0861,4.0739,4.0766,4.1555,4.2217,4.2863,4.3547,4.4178,4.461,4.461,4.461,4.461,4.461,4.461,4.461,4.461,4.461,4.4641,4.4687,4.5788,4.6619,4.6665,4.7281,4.7419,4.6803,4.6126,4.5972,4.6557,4.7234,4.7053,4.5991,4.7444,4.8076,4.7624,4.8091,4.8286,4.8286,4.8434,4.8543,4.8543,4.8543,4.8189,2.8201,2.9115,3.014,3.1383,3.2697,0.0,0.0,3.6144,3.6875,3.739,3.7512,0.0,3.71,3.8099,3.9214,3.9886,4.0462,4.0927,4.1358,4.0752,4.0275,4.0228,4.016,4.0168,4.0303,4.0586,4.0754,4.0846,4.1042,4.1163,4.1129,4.1222,4.1297,4.1381,4.1206,4.0654,3.9674,3.9496,3.9133,3.8588,3.9986,4.0485,4.0113,3.9986,3.9841,3.9764,4.005,4.0219,4.0373,4.0721,4.0813,4.0707,4.0794,4.1106,4.1493,4.1775,4.1891,4.1991,4.2824,4.3003,4.2894,4.3207,4.2988,4.2522,4.2174,4.1801,4.1439,4.1037,4.0867,4.0765,4.0662,4.0558,4.0674,4.1432,4.2109,4.2786,4.347,4.4132,4.461,4.461,4.461,4.461,4.461,4.461,4.461,4.461,4.461,4.4764,4.5195,4.5649,4.6126,4.6557,4.6819,4.6711,4.6034,4.6126,4.6142,4.5972,4.6484,4.6783,4.6773,4.7631,4.8049,4.7837,4.8175,4.8286,4.8286,4.8065,4.7989,4.7989,4.7989,4.785,2.7359,2.8283,2.9368,3.0884,0.0,0.0,3.5208,3.641,3.7413,3.8273,3.849,3.8448,3.8101,3.8656,3.9328,3.9808,4.0082,4.0419,4.0902,4.0118,3.9464,3.9404,3.9138,3.9011,3.9127,3.9438,3.96,3.9534,3.9772,3.9851,3.9657,3.972,3.9751,3.9703,3.95,3.8991,3.8146,3.7917,3.7385,3.6581,3.814,3.8897,3.8888,3.8975,3.8927,3.8795,3.9043,3.9222,3.9372,3.9494,3.9451,3.9369,3.9512,3.9849,4.0263,4.0566,4.0619,4.0701,4.1584,4.1789,4.1727,4.202,4.1974,4.1773,4.1468,4.1365,4.1256,4.0969,4.0882,4.0848,4.0662,4.0558,4.0612,4.114,4.1955,4.274,4.3171,4.3994,4.461,4.461,4.461,4.461,4.461,4.461,4.461,4.461,4.461,4.4779,4.5218,4.5464,4.5772,4.6234,4.628,4.6003,4.5326,4.5856,4.6094,4.5848,4.6278,4.6737,4.7277,4.781,4.8049,4.788,4.8091,4.8218,4.8202,4.7952,4.7845,4.7927,4.7927,4.7927,2.6626,2.7899,2.9375,3.0965,0.0,0.0,3.5081,3.6001,3.6656,3.7544,3.7979,3.8221,3.8363,3.8987,3.9518,3.9662,4.0216,4.0655,4.0671,3.9352,3.8319,3.8103,3.6849,3.605,3.6185,3.6623,3.7044,3.7368,3.7653,3.7933,3.819,3.8213,3.8144,3.7993,3.7919,3.7648,3.7103,3.6951,3.6669,3.6265,3.6265,3.6424,3.6711,3.723,3.7476,3.7525,3.8285,3.8595,3.8611,3.875,3.8722,3.8583,3.8448,3.8262,3.8196,3.9127,3.9357,3.9304,4.0189,4.0404,4.024,4.0059,4.0353,4.0722,4.0384,4.0758,4.1256,4.1135,4.1117,4.1034,4.0833,4.0662,4.0489,4.0489,4.1601,4.2602,4.2602,4.3648,4.461,4.461,4.461,4.461,4.461,4.461,4.461,4.461,4.461,4.461,4.461,4.5157,4.5572,4.5572,4.5572,4.5311,4.4671,4.5009,4.5565,4.6238,4.6752,4.7091,4.7308,4.7935,4.8091,4.7639,4.788,4.8007,4.8007,4.8218,4.8412,4.862,4.862,4.862,2.5784,2.6707,2.7901,3.0006,3.1067,3.2086,0.0,3.5581,0.0,0.0,3.8547,3.833,3.7855,3.7606,3.7638,3.8204,3.8008,3.8019,3.8515,3.7688,3.6978,3.6897,3.6486,3.6244,3.6387,3.6779,3.7161,3.7443,3.7807,3.8037,3.8131,3.8131,3.8061,3.7919,3.7745,3.7094,3.6066,3.5813,3.5182,3.4176,3.4176,3.4899,3.6281,3.6438,3.6728,3.7102,3.7311,3.7738,3.8258,3.8286,3.8286,3.823,3.8004,3.7876,3.7863,3.8144,3.8195,3.8275,3.9157,3.9338,3.9251,3.9717,3.9802,3.9802,4.0178,4.033,4.048,4.0961,4.1117,4.1034,4.0833,4.0765,4.0662,4.0524,4.1601,4.2602,4.2602,4.3648,4.461,4.461,4.461,4.461,4.461,4.461,4.461,4.461,4.461,4.461,4.461,4.4756,4.4918,4.4918,4.4918,4.4841,4.4641,4.5009,4.5526,4.5966,4.6459,4.7035,4.7772,4.7985,4.7922,4.7639,4.7666,4.7709,4.7709,4.7794,4.8007,4.837,4.837,4.8453,2.5773,2.6398,2.7317,2.9943,3.0907,3.1735,3.3814,3.5272,3.6448,3.7492,3.7729,3.7595,3.7129,3.6806,3.6774,3.7301,3.7016,3.6884,3.7396,3.642,3.5654,3.5654,3.4961,3.4586,3.4772,3.5046,3.5363,3.5656,3.6004,3.6186,3.6231,3.6276,3.6254,3.6135,3.5912,3.5328,3.4388,3.408,3.3471,3.2548,3.2497,3.3069,3.4174,3.5006,3.5559,3.5864,3.6166,3.6733,3.7412,3.7412,3.7588,3.786,3.7671,3.7424,3.7112,3.7171,3.6951,3.678,3.7669,3.7878,3.7914,3.8643,3.8918,3.9109,3.977,4.0099,4.0394,4.11,4.1288,4.1254,4.0984,4.0916,4.0848,4.0574,4.1351,4.2279,4.254,4.3433,4.4302,4.4564,4.461,4.461,4.461,4.461,4.461,4.461,4.461,4.461,4.461,4.461,4.461,4.461,4.461,4.461,4.461,4.4971,4.5407,4.5844,4.6279,4.6788,4.7551,4.7666,4.7538,4.7207,4.7193,4.7149,4.7047,4.7236,4.7523,4.7876,4.8145,4.837,2.6193,2.6664,2.7433,3.036,3.1255,3.1871,3.3688,3.4822,3.5555,3.5746,3.6082,3.6283,3.6218,3.6251,3.6341,3.6478,3.6503,3.6528,3.6654,3.5301,3.4276,3.4276,3.2829,3.1909,3.2136,3.2315,3.2504,3.2807,3.3086,3.3262,3.3313,3.3456,3.3477,3.3372,3.3262,3.2983,3.2523,3.219,3.183,3.1428,3.1281,3.1207,3.1246,3.3166,3.4083,3.4241,3.5047,3.5758,3.6298,3.6298,3.6706,3.732,3.732,3.6808,3.614,3.6269,3.5802,3.5244,3.6048,3.6345,3.6503,3.718,3.7859,3.8539,3.9218,3.9929,4.064,4.1304,4.1541,4.1489,4.1169,4.1083,4.0966,4.0593,4.1078,4.1771,4.2386,4.3033,4.3701,4.4317,4.4486,4.4533,4.4533,4.4579,4.461,4.461,4.461,4.461,4.461,4.461,4.461,4.461,4.461,4.461,4.461,4.4808,4.5202,4.5875,4.6097,4.6418,4.6843,4.7121,4.7033,4.655,4.655,4.6403,4.6121,4.6609,4.6945,4.7204,4.7934,4.8286,2.5728,2.6412,2.7428,2.9825,3.1634,3.2835,3.275,3.301,3.3764,3.5443,3.5695,3.544,3.487,3.4399,3.3923,3.3447,3.3388,3.3372,3.3412,3.2992,3.2686,3.2686,3.2174,3.1821,3.1885,3.2104,3.2266,3.2357,3.2652,3.2851,3.2857,3.2966,3.3091,3.3156,3.3146,3.2972,3.2646,3.238,3.201,3.1557,3.1404,3.1306,3.1214,3.164,3.2471,3.3593,3.4841,3.5473,3.5616,3.5616,3.571,3.5837,3.5837,3.5758,3.5587,3.5616,3.5493,3.5366,3.5552,3.5963,3.6424,3.6582,3.7133,3.7828,3.8507,3.9202,3.9882,4.0609,4.1095,4.1323,4.1135,4.1,4.0799,4.0558,4.1078,4.1632,4.1786,4.234,4.2863,4.3002,4.3448,4.3824,4.3824,4.4255,4.461,4.461,4.461,4.461,4.461,4.461,4.461,4.461,4.461,4.461,4.461,4.4519,4.4882,4.5855,4.5661,4.5871,4.6624,4.6887,4.6668,4.606,4.606,4.5925,4.564,4.6121,4.6565,4.6989,4.7737,4.8175,2.5618,2.6345,2.7441,2.9635,3.1255,3.2203,3.1839,3.1944,3.2446,3.3566,3.3781,3.364,3.3267,3.2901,3.255,3.2255,3.2213,3.2099,3.1824,3.1436,3.1049,3.0706,3.0083,2.9717,2.9784,2.9857,2.9923,2.9989,3.0206,3.0377,3.0399,3.0525,3.0688,3.0833,3.0866,3.0767,3.0605,3.033,3.0005,2.9643,2.9469,2.9506,2.9753,3.0765,3.1593,3.2345,3.3072,3.3767,3.4383,3.4383,3.4794,3.5394,3.5394,3.5173,3.4857,3.4857,3.4668,3.4431,3.4747,3.5094,3.5521,3.6172,3.6645,3.7164,3.8207,3.8744,3.925,4.0309,4.0716,4.0849,4.1042,4.095,4.0765,4.0558,4.0782,4.1186,4.1524,4.1878,4.2217,4.254,4.2879,4.311,4.311,4.3402,4.3741,4.4086,4.4132,4.4255,4.4579,4.461,4.4572,4.4473,4.4473,4.4435,4.432,4.4143,4.4358,4.5223,4.5289,4.5473,4.5903,4.6315,4.621,4.5549,4.564,4.5518,4.5152,4.5866,4.6388,4.6756,4.7624,4.8091,2.5691,2.6576,2.7731,2.954,3.0607,3.1167,3.1065,3.1133,3.1198,3.1046,3.1436,3.1753,3.1577,3.1338,3.1146,3.1096,3.1103,3.0962,3.0498,2.9973,2.9425,2.8844,2.7969,2.7448,2.7552,2.7437,2.7416,2.7515,2.766,2.7762,2.7806,2.7947,2.8102,2.8315,2.8334,2.8337,2.8288,2.8043,2.7798,2.7515,2.729,2.7438,2.7984,2.9722,3.0701,3.1049,3.1135,3.1871,3.2945,3.2945,3.3704,3.4841,3.4841,3.4557,3.4115,3.4115,3.3767,3.3388,3.3925,3.4194,3.4494,3.5651,3.6108,3.6456,3.7735,3.8239,3.8602,3.9882,4.0259,4.0396,4.0841,4.0891,4.0765,4.0593,4.0539,4.0659,4.1294,4.1417,4.1571,4.214,4.2355,4.2463,4.2586,4.2602,4.2786,4.3362,4.3439,4.3685,4.4348,4.4402,4.4373,4.4305,4.4205,4.4073,4.3895,4.366,4.3773,4.4459,4.4874,4.5111,4.5142,4.5696,4.5671,4.494,4.5261,4.523,4.483,4.5821,4.6403,4.6668,4.7624,4.8133,2.5798,2.7377,2.887,2.9177,3.0219,3.1065,3.0489,3.0052,2.9569,2.8889,2.9916,3.0712,2.9902,2.9112,2.8357,2.7595,2.7545,2.7612,2.7716,2.7758,2.7782,2.7867,2.76,2.7406,2.7427,2.7306,2.7232,2.7248,2.7374,2.7458,2.7462,2.7582,2.7762,2.7947,2.8083,2.8165,2.8207,2.8119,2.7916,2.7577,2.7275,2.7168,2.7241,2.7525,2.8632,3.0378,3.0954,3.1293,3.1467,3.1467,3.1966,3.2703,3.2703,3.3019,3.3435,3.3435,3.3372,3.3309,3.3403,3.3814,3.432,3.451,3.4999,3.5679,3.644,3.7133,3.778,3.857,3.9503,4.0318,4.038,4.0585,4.0799,4.0765,4.0627,4.052,4.0612,4.0643,4.0659,4.0751,4.1309,4.1925,4.2509,4.2602,4.2633,4.2725,4.274,4.2971,4.3655,4.3598,4.3677,4.4259,4.3786,4.3403,4.3418,4.3006,4.3127,4.3998,4.4236,4.4557,4.4908,4.5144,4.4894,4.4162,4.4801,4.5124,4.5078,4.6046,4.6624,4.6887,4.7822,4.8286,2.5819,2.6672,2.7456,2.7867,2.8487,2.8881,2.8602,2.8455,2.826,2.787,2.8052,2.8228,2.8025,2.7573,2.7061,2.6647,2.6318,2.6062,2.5882,2.5739,2.5567,2.5263,2.5118,2.5038,2.5038,2.4888,2.4775,2.4775,2.4849,2.5082,2.554,2.5611,2.5728,2.5943,2.6,2.5863,2.5566,2.588,2.6079,2.619,2.6021,2.6119,2.6483,2.6483,2.7415,2.905,2.9343,2.9864,3.0516,3.0516,3.0901,3.151,3.1862,3.2259,3.2667,3.3061,3.3229,3.3309,3.3309,3.3535,3.3905,3.4286,3.4689,3.5193,3.6204,3.673,3.7205,3.8207,3.881,3.9314,4.0083,4.0325,4.0453,4.0857,4.0882,4.083,4.0696,4.0593,4.0489,4.0489,4.0751,4.1093,4.1351,4.1397,4.155,4.1986,4.2048,4.2279,4.294,4.287,4.2755,4.2857,4.2692,4.2431,4.2088,4.2088,4.2189,4.2466,4.288,4.3113,4.3066,4.3307,4.3283,4.2819,4.4309,4.5124,4.5124,4.609,4.6771,4.7164,4.7666,4.8007,2.5638,2.5923,2.6192,2.6751,2.709,2.7248,2.7248,2.7246,2.7222,2.7114,2.6538,2.6106,2.6214,2.6094,2.5836,2.5463,2.5075,2.4653,2.4213,2.3986,2.3704,2.3301,2.3184,2.3149,2.3149,2.3006,2.2898,2.2898,2.2898,2.3172,2.3766,2.3798,2.3875,2.4042,2.4026,2.3838,2.3429,2.384,2.4321,2.4837,2.4756,2.508,2.574,2.574,2.6404,2.7573,2.7762,2.8469,2.9469,2.9469,2.9899,3.0613,3.1129,3.1544,3.1913,3.2631,3.2988,3.3108,3.3298,3.345,3.3686,3.4186,3.4425,3.4744,3.584,3.6266,3.6635,3.7727,3.8132,3.8528,3.9566,3.9846,3.9996,4.0732,4.087,4.0816,4.0802,4.0627,4.0489,4.0489,4.0489,4.0489,4.0489,4.0489,4.0674,4.1247,4.1324,4.1535,4.2191,4.2107,4.186,4.1656,4.176,4.1636,4.105,4.1328,4.1423,4.1141,4.171,4.1819,4.1351,4.173,4.1837,4.1604,4.3395,4.4573,4.4972,4.6137,4.6902,4.7381,4.7596,4.7794,2.5135,2.5664,2.6204,2.6317,2.6869,2.7385,2.7385,2.696,2.6499,2.6293,2.5775,2.5167,2.4555,2.441,2.4028,2.2885,2.2834,2.2788,2.2394,2.2552,2.2799,2.309,2.3042,2.301,2.301,2.2936,2.2898,2.2898,2.2898,2.2914,2.2961,2.2961,2.3,2.3074,2.3074,2.3127,2.3218,2.3112,2.344,2.4153,2.4024,2.4334,2.5049,2.5049,2.5444,2.6151,2.6862,2.7469,2.8018,2.8018,2.8732,2.9889,3.0033,3.049,3.1143,3.2019,3.2415,3.2638,3.328,3.3658,3.3873,3.3921,3.4023,3.4244,3.4806,3.538,3.5975,3.654,3.7569,3.8492,3.8571,3.8952,3.9501,4.0193,4.0186,4.0193,4.0693,4.0627,4.0489,4.0489,4.0489,4.0489,4.0489,4.0489,4.0505,4.0551,4.0551,4.0762,4.1311,4.1188,4.114,4.1385,4.1425,4.1226,4.0752,4.0898,4.0972,4.073,4.1117,4.1113,4.0594,4.0927,4.1022,4.0756,4.1814,4.3074,4.4612,4.6167,4.7149,4.7581,4.7837,4.7964,2.5088,2.5298,2.5509,2.5623,2.5573,2.5487,2.5529,2.5037,2.4539,2.4429,2.4166,2.3771,2.3188,2.3403,2.3397,2.2635,2.1909,2.1457,2.1443,2.1291,2.1295,2.1587,2.1639,2.1641,2.1641,2.1605,2.1537,2.1537,2.1537,2.1775,2.2234,2.2266,2.2266,2.2285,2.2285,2.2302,2.2304,2.2253,2.26,2.333,2.372,2.403,2.4302,2.478,2.5128,2.5381,2.565,2.6267,2.7161,2.7592,2.7961,2.8363,2.9353,2.9933,3.0338,3.1159,3.1896,3.2551,3.2866,3.3503,3.4176,3.425,3.4423,3.4701,3.5147,3.5724,3.6276,3.6781,3.7438,3.8088,3.8516,3.8712,3.9078,4.0212,4.0335,4.0344,4.0982,4.0901,4.0662,4.0539,4.0489,4.0489,4.0489,4.0489,4.0489,4.0489,4.0489,4.0547,4.0633,4.038,4.0097,3.9935,4.0056,4.007,3.9946,4.0355,4.0576,4.046,4.0582,4.0459,4.0001,3.9969,3.9988,4.006,4.1076,4.2519,4.4376,4.5493,4.6515,4.7424,4.751,4.7553,2.5068,0.0,0.0,2.5051,2.4724,2.4376,2.4204,2.3785,2.3428,2.3377,2.3237,2.3006,2.2549,2.2566,2.2435,2.1832,2.1085,2.0576,2.0467,2.0355,2.0376,2.0644,2.0778,2.0877,2.0877,2.0827,2.0794,2.0794,2.0794,2.1015,2.1489,2.1521,2.1521,2.1521,2.1521,2.1505,2.1457,2.1457,2.182,2.2532,2.3022,2.3354,2.3613,2.4106,2.4493,2.4735,2.4712,2.5348,2.6442,2.6873,2.7223,2.7543,2.8558,2.9159,2.9552,3.0378,3.1184,3.1974,3.2586,3.3397,3.4266,3.4633,3.493,3.5171,3.5365,3.581,3.6326,3.6756,3.7106,3.7568,3.8193,3.8439,3.8744,3.9677,4.0149,4.0493,4.0868,4.0932,4.0848,4.0627,4.0593,4.0593,4.0524,4.0489,4.0489,4.0489,4.0489,4.0436,4.0242,3.9859,3.9466,3.9053,3.9274,3.9537,3.9798,4.0392,4.0764,4.0788,4.0702,4.0416,3.9922,3.9733,3.9733,3.9878,4.082,4.212,4.3789,4.501,4.6073,4.698,4.7204,4.7309,0.0,0.0,0.0,0.0,2.445,2.4256,2.3609,2.3329,2.3227,2.3227,2.3087,2.2855,2.2592,2.1845,2.1039,2.0303,2.0298,2.0135,1.9498,1.9797,2.0168,2.0371,2.0644,2.0794,2.0794,2.0794,2.0794,2.0794,2.0794,2.0794,2.0794,2.0794,2.0794,2.0794,2.0794,2.0794,2.0794,2.0794,2.1126,2.1771,2.1869,2.2285,2.2961,2.2992,2.3428,2.4169,2.4127,2.4736,2.5748,2.5796,2.6439,2.7465,2.7634,2.8139,2.8865,2.9673,3.0291,3.0912,3.2409,3.3421,3.4151,3.5,3.5418,3.5577,3.5383,3.5588,3.5993,3.6284,3.6588,3.6905,3.7523,3.8074,3.8491,3.8507,3.955,4.0513,4.0352,4.072,4.1052,4.0833,4.0799,4.073,4.0524,4.0489,4.0489,4.0489,4.0489,4.0366,4.0031,3.9646,3.9256,3.8855,3.9237,3.9768,4.0368,4.1032,4.1543,4.1742,4.1549,4.1114,4.0388,4.0345,4.0345,4.0345,4.1015,4.1877,4.3005,4.4758,4.5836,4.6337,4.6995,4.7309,2.3353,0.0,0.0,0.0,0.0,0.0,2.2649,2.2082,2.1614,2.1745,2.158,2.1379,2.1257,2.0914,2.0463,1.9922,1.9716,1.9582,1.9549,1.9705,1.9957,2.0354,2.0577,2.0744,2.0794,2.0794,2.0794,2.0794,2.0794,2.0794,2.0794,2.0794,2.0794,2.0794,2.0794,2.0794,2.0794,2.0794,2.0889,2.1094,2.1632,2.2031,2.2293,2.2786,2.314,2.3433,2.3943,2.4315,2.4625,2.5464,2.5957,2.6312,2.7411,2.7973,2.8262,2.9053,2.9909,3.0783,3.1424,3.2737,3.4203,3.4605,3.5248,3.5844,3.5577,3.583,3.6163,3.6,3.6084,3.6297,3.6676,3.7273,3.7891,3.8397,3.8807,3.9329,4.0308,4.0621,4.0774,4.0974,4.0916,4.0799,4.073,4.0593,4.0489,4.0489,4.0489,4.0366,4.0031,3.9646,3.9292,3.9053,3.9438,4.005,4.0823,4.1659,4.2273,4.2629,4.2592,4.2252,4.1576,4.1534,4.145,4.1296,4.1617,4.2119,4.279,4.4391,4.5548,4.6337,4.6995,4.7309,0.0,0.0,0.0,0.0,0.0,0.0,2.1675,2.1129,2.0745,2.0941,2.0826,2.0678,2.0727,2.0611,2.0409,2.0048,1.9762,1.9578,1.952,1.9654,1.9889,2.0304,2.0559,2.0743,2.0794,2.0794,2.0794,2.0794,2.0794,2.0794,2.0794,2.0794,2.0794,2.0794,2.0794,2.0794,2.0794,2.0794,2.0794,2.0811,2.1237,2.151,2.1643,2.2026,2.2445,2.282,2.3167,2.364,2.4191,2.4827,2.5386,2.5947,2.7139,2.7775,2.8077,2.8891,2.9651,3.0371,3.0961,3.2062,3.3349,3.4172,3.4859,3.5375,3.5498,3.5652,3.5795,3.5721,3.5977,3.6278,3.6368,3.6959,3.7605,3.7986,3.8302,3.8807,3.9898,4.0388,4.0701,4.1129,4.1052,4.0916,4.0799,4.0627,4.0489,4.0489,4.0489,4.0366,4.0031,3.9646,3.9343,3.9141,3.9587,4.0314,4.1257,4.2136,4.2874,4.3364,4.3314,4.3021,4.2578,4.2456,4.2374,4.2252,4.2374,4.271,4.3371,4.4198,4.5037,4.5918,4.6576,4.689,0.0,0.0,0.0,0.0,2.1624,0.0,2.0785,2.0509,2.041,2.0626,2.056,2.0544,2.0728,2.0744,2.0644,2.0444,2.0202,1.9902,1.9523,1.9657,1.9927,2.027,2.0526,2.0711,2.0794,2.0794,2.0794,2.0794,2.0794,2.0794,2.0794,2.0794,2.0794,2.0794,2.0794,2.0794,2.0794,2.0794,2.0794,2.0794,2.0794,2.0892,2.1087,2.1087,2.152,2.2247,2.2146,2.2813,2.3962,2.4063,2.481,2.5982,2.6883,2.7545,2.8107,2.8973,2.9464,2.9823,3.0777,3.1391,3.2012,3.3666,3.4324,3.4536,3.5143,3.5188,3.5079,3.5308,3.5878,3.634,3.6308,3.6832,3.7415,3.7494,3.7954,3.857,3.925,3.9898,4.0497,4.0995,4.1111,4.1068,4.0882,4.0662,4.0539,4.0489,4.0489,4.0401,4.0066,3.9681,3.9415,3.9213,3.9757,4.0599,4.1685,4.2553,4.3351,4.402,4.384,4.363,4.3409,4.3195,4.3115,4.3076,4.3036,4.3398,4.4212,4.4084,4.4456,4.5304,4.5918,4.6204,0.0,0.0,0.0,0.0,2.0576,0.0,2.0404,2.0254,2.0202,2.0356,2.0356,2.039,2.0527,2.0678,2.0712,2.051,2.0376,2.022,1.9919,1.9836,1.9945,2.0321,2.0475,2.0611,2.0778,2.0794,2.0794,2.0794,2.0794,2.0794,2.0794,2.0794,2.0794,2.0794,2.0794,2.0761,2.0726,2.0726,2.0726,2.0726,2.0726,2.0794,2.0942,2.0942,2.1086,2.1391,2.1871,2.2235,2.2517,2.3706,2.4611,2.5405,2.6812,2.7365,2.7534,2.8828,2.9396,2.9592,2.9839,3.057,3.1583,3.268,3.345,3.4072,3.4735,3.4794,3.4554,3.4161,3.4484,3.5022,3.547,3.6105,3.6769,3.7368,3.7605,3.7875,3.8555,3.8823,3.9092,3.9724,4.0619,4.1205,4.1068,4.0882,4.0696,4.0524,4.0489,4.0436,4.0277,4.0031,3.9854,3.9818,4.0284,4.1021,4.2108,4.2816,4.3601,4.4427,4.4419,4.4305,4.4112,4.3895,4.3738,4.3557,4.3344,4.331,4.3484,4.4022,4.462,4.5289,4.5424,4.5714,0.0,0.0,0.0,1.9975,2.0028,0.0,0.0,1.9975,1.994,2.0028,2.0133,2.0254,2.041,2.0611,2.0727,2.0627,2.0494,2.0342,2.0233,2.0028,2.0028,2.0371,2.0424,2.0526,2.0727,2.0678,2.0678,2.0744,2.0778,2.0778,2.0744,2.0744,2.0727,2.0645,2.0645,2.0628,2.061,2.061,2.061,2.061,2.0676,2.076,2.0844,2.0877,2.0974,2.1103,2.1389,2.169,2.2086,2.3157,2.4002,2.4761,2.6338,2.7086,2.7434,2.8552,2.9093,2.9312,2.9477,2.9875,3.0451,3.1313,3.2115,3.2833,3.3615,3.3982,3.4025,3.3694,3.3996,3.456,3.5233,3.5916,3.6582,3.7306,3.751,3.767,3.8365,3.8507,3.8713,3.9376,4.0008,4.0335,4.0089,3.9907,3.974,3.9524,3.9782,3.9948,3.9776,3.9978,4.0101,4.0011,4.0588,4.1228,4.1744,4.2803,4.3651,4.4086,4.4425,4.4534,4.4458,4.4166,4.3832,4.3518,4.3518,4.3518,4.3518,4.3848,4.4083,4.4332,4.4661,4.5045,0.0,0.0,0.0,0.0,0.0,1.9654,0.0,0.0,0.0,1.9762,1.9922,2.01,2.0291,2.0492,2.061,2.0577,2.0443,2.0325,2.0287,2.0096,2.0078,2.0373,2.0405,2.0491,2.0676,2.0594,2.0544,2.0644,2.0711,2.0712,2.0661,2.0644,2.061,2.051,2.051,2.0494,2.0477,2.0477,2.0477,2.0477,2.0577,2.0694,2.0778,2.0844,2.0925,2.1038,2.0925,2.1227,2.1829,2.2657,2.334,2.406,2.5785,2.6747,2.7232,2.8148,2.8643,2.8879,2.9234,2.9282,2.9324,3.0154,3.0991,3.1861,3.2663,3.3221,3.3555,3.345,3.3768,3.4273,3.4984,3.5695,3.6377,3.7117,3.7415,3.7668,3.8191,3.8318,3.8476,3.9013,3.9108,3.9093,3.9029,3.8914,3.8767,3.8541,3.9059,3.9441,3.929,3.9902,4.0277,4.0101,4.073,4.1204,4.1342,4.2606,4.347,4.3593,4.424,4.461,4.461,4.4205,4.3778,4.329,4.3557,4.369,4.369,4.369,4.3596,4.3384,4.3883,4.4393,0.0,0.0,0.0,0.0,1.925,1.9395,1.9574,0.0,1.9629,1.9708,0.0,1.9884,2.0008,0.0,0.0,2.0185,2.0135,2.0065,1.9892,1.9836,1.9993,2.0443,2.0441,2.0491,2.0676,2.0594,2.051,2.0527,2.0527,2.0527,2.0527,2.0527,2.0527,2.051,2.051,2.046,2.0405,2.0405,2.0405,2.0405,2.0423,2.0542,2.071,2.0726,2.076,2.0827,2.0827,2.0858,2.1032,2.2378,2.2984,2.3344,2.5483,2.6265,2.6335,2.767,2.8014,2.7944,2.8631,2.8865,2.8998,2.9808,3.095,3.2153,3.2729,3.3022,3.315,3.315,3.3277,3.3577,3.4241,3.4968,3.5679,3.6345,3.7022,3.7526,3.7605,3.7621,3.7652,3.7715,3.7747,3.8006,3.8857,3.8979,3.8883,3.8541,3.9059,3.949,3.9474,4.0074,4.047,4.047,4.0532,4.0874,4.1504,4.2279,4.2971,4.3562,4.424,4.461,4.461,4.4205,4.3778,4.329,4.3557,4.369,4.369,4.369,4.369,4.3651,4.3498,4.3864,0.0,0.0,0.0,0.0,0.0,0.0,1.9343,0.0,1.9629,0.0,0.0,0.0,0.0,0.0,0.0,0.0,1.9572,1.9398,1.9704,1.9399,1.9431,2.0191,2.0591,2.0872,2.1031,2.0674,2.0441,2.0441,2.0477,2.0477,2.0441,2.0441,2.0424,2.039,2.0375,2.0373,2.0339,2.0339,2.0339,2.0339,2.0388,2.0458,2.0594,2.0644,2.0727,2.0794,2.0794,2.0794,2.0905,2.2242,2.2794,2.3004,2.4654,2.5589,2.6098,2.7066,2.7503,2.7736,2.8435,2.8636,2.8688,2.9428,3.0373,3.1332,3.1964,3.2542,3.2978,3.2978,3.3032,3.3226,3.3995,3.4731,3.5455,3.6235,3.6959,3.751,3.751,3.751,3.751,3.751,3.7405,3.7428,3.7779,3.7842,3.7732,3.7402,3.8246,3.8939,3.8939,3.9828,4.0489,4.0489,4.0489,4.0612,4.0955,4.1617,4.2309,4.2971,4.3987,4.4549,4.4435,4.4243,4.4011,4.3699,4.3934,4.4065,4.4065,4.3949,4.3871,4.3871,4.3503,4.3845,1.6664,0.0,0.0,0.0,0.0,0.0,0.0,0.0,0.0,0.0,0.0,0.0,0.0,0.0,0.0,0.0,0.0,1.8872,1.951,1.9069,1.9028,1.9989,2.0579,2.1016,2.1273,2.074,2.0371,2.0371,2.0441,2.0458,2.0405,2.0405,2.0388,2.0321,2.0304,2.0304,2.0304,2.0304,2.0304,2.0304,2.0354,2.0424,2.051,2.061,2.0711,2.081,2.1015,2.1078,2.1139,2.2472,2.2982,2.3055,2.4157,2.4983,2.5691,2.65,2.6987,2.7388,2.8255,2.8468,2.8519,2.9171,2.9909,3.0665,3.133,3.2133,3.2816,3.2816,3.287,3.3033,3.3611,3.4281,3.503,3.5791,3.6558,3.7125,3.7314,3.7361,3.7361,3.7361,3.7255,3.7089,3.6923,3.6908,3.68,3.6554,3.7646,3.8508,3.8508,3.9659,4.0489,4.0489,4.0489,4.0489,4.0489,4.1186,4.1955,4.2817,4.3941,4.4511,4.432,4.4281,4.422,4.4026,4.4205,4.4281,4.4281,4.4127,4.4065,4.3988,4.3542,4.3926,0.0,0.0,0.0,1.6871,0.0,0.0,0.0,0.0,1.9126,0.0,0.0,0.0,0.0,0.0,0.0,0.0,0.0,0.0,0.0,1.8909,1.8976,1.9989,2.0285,2.0649,2.1227,2.0705,2.0304,2.0304,2.0371,2.0405,2.0405,2.0405,2.0405,2.0405,2.0321,2.0304,2.0304,2.0304,2.0304,2.0304,2.0304,2.0357,2.051,2.051,2.0611,2.0842,2.1553,2.1801,2.1774,2.3189,2.3697,2.3628,2.4259,2.4513,2.472,2.6032,2.647,2.6633,2.7934,2.8396,2.8519,2.9171,2.9848,3.0525,3.1182,3.1983,3.2621,3.2621,3.2746,3.2912,3.2928,3.3455,3.411,3.4797,3.5515,3.6233,3.6874,3.7015,3.7015,3.7015,3.6999,3.6938,3.6723,3.6723,3.6662,3.6523,3.7646,3.8508,3.8508,3.9659,4.0489,4.0489,4.0489,4.0489,4.0489,4.1186,4.2155,4.3485,4.424,4.4511,4.432,4.4281,4.422,4.4026,4.4205,4.4281,4.4281,4.4281,4.4166,4.3988,4.3542,4.3926,0.0,0.0,1.6137,1.6376,0.0,0.0,0.0,0.0,0.0,0.0,0.0,0.0,0.0,0.0,0.0,0.0,0.0,0.0,0.0,1.8856,1.9489,2.0866,2.0688,2.0738,2.1437,2.0845,2.0426,2.0426,2.0443,2.0475,2.0475,2.0475,2.0475,2.0475,2.0443,2.0426,2.0426,2.0426,2.0426,2.0426,2.0426,2.0494,2.0627,2.0627,2.0694,2.0842,2.1568,2.1834,2.186,2.3133,2.3635,2.3659,2.4133,2.4333,2.4467,2.5376,2.6002,2.6603,2.7934,2.8411,2.8442,2.8673,2.9196,2.9848,3.0525,3.1239,3.1909,3.2329,3.2523,3.2578,3.2676,3.3243,3.3954,3.4709,3.5455,3.6172,3.6859,3.7015,3.7015,3.7015,3.6908,3.6785,3.6723,3.6631,3.6554,3.6523,3.7646,3.8508,3.8508,3.9659,4.0489,4.0489,4.0489,4.0489,4.0489,4.1601,4.2633,4.3547,4.424,4.4572,4.4496,4.4511,4.4473,4.4396,4.4458,4.4511,4.4511,4.4358,4.4205,4.3988,4.3714,4.3903,1.3747,1.4431,0.0,1.5408,1.629,0.0,1.7476,0.0,1.8364,0.0,0.0,0.0,0.0,0.0,0.0,0.0,0.0,0.0,0.0,1.9204,2.0052,2.1125,2.0859,2.0842,2.1577,2.073,2.0246,2.0478,2.0293,2.0295,2.0561,2.0577,2.0577,2.0577,2.0527,2.051,2.051,2.051,2.051,2.051,2.051,2.0577,2.0693,2.0693,2.0727,2.0842,2.1839,2.2199,2.2222,2.3455,2.3935,2.3942,2.4148,2.4255,2.4374,2.5044,2.5911,2.6872,2.775,2.8211,2.8411,2.8411,2.8858,2.9464,2.991,3.0689,3.1501,3.1905,3.2213,3.2425,3.2523,3.2875,3.3441,3.4193,3.4936,3.565,3.6334,3.6645,3.6816,3.6816,3.6708,3.6631,3.6631,3.6554,3.6492,3.6492,3.7646,3.8508,3.8508,3.9659,4.0489,4.0489,4.0489,4.0597,4.0858,4.1955,4.2879,4.3562,4.424,4.461,4.461,4.461,4.461,4.461,4.461,4.461,4.461,4.4473,4.4281,4.4089,4.391,4.3901]}]]